[[{"header":{"parameterUnit":"m.s-1","parameterCategory":1,"la1":31.0,"la2":29.5877,"lo1":-88.7671,"lo2":-86.6584,"dy":0.0162,"dx":0.0185,"nx":115,"ny":88,"refTime":"2024-04-15T00:00:00:Z","depth":0,"parameterNumber":2,"parameterNumberName":"U-component_of_WINDS"},"data":[0.0,0.0,0.0,0.0,0.0,0.0,0.0,0.0,0.0,0.0,0.0,0.0,0.0,0.0,0.0,0.0,0.0,0.0,0.0,0.0,0.0,0.0,0.0,0.0,0.0,0.0,0.0,0.0,0.0,0.0,0.0,0.0,0.0,0.0,0.0,0.0,0.0,0.0,0.0,0.0,0.0,0.0,0.0,0.0,0.0,0.0,0.0,0.0,0.0,0.0,0.0,0.0,0.0,0.0,0.0,0.0,0.0,0.0,0.0,0.0,0.0,0.0,0.0,0.0,0.0,0.0,0.0,0.0,0.0,0.0,0.0,0.0,0.0,0.0,0.0,0.0,0.0,0.0,0.0,0.0,0.0,0.0,0.0,0.0,0.0,0.0,0.0,0.0,0.0,0.0,0.0,0.0,0.0,0.0,0.0,0.0,0.0,0.0,0.0,0.0,0.0,0.0,0.0,0.0,0.0,0.0,0.0,0.0,0.0,0.0,0.0,0.0,0.0,0.0,0.0,0.0,0.0,0.0,0.0,0.0,0.0,0.0,0.0,0.0,0.0,0.0,0.0,0.0,0.0,0.0,0.0,0.0,0.0,0.0,0.0,0.0,0.0,0.0,0.0,0.0,0.0,0.0,0.0,0.0,0.0,0.0,0.0,0.0,0.0,0.0,0.0,0.0,0.0,0.0,0.0,0.0,0.0,0.0,0.0,0.0,0.0,0.0,0.0,0.0,0.0,0.0,0.0,0.0,0.0,0.0,0.0,0.0,0.0,0.0,0.0,0.0,0.0,0.0,0.0,0.0,0.0,0.0,0.0,0.0,0.0,0.0,0.0,0.0,0.0,0.0,0.0,0.0,0.0,0.0,0.0,0.0,0.0,0.0,0.0,0.0,0.0,0.0,0.0,0.0,0.0,0.0,0.0,0.0,0.0,0.0,0.0,0.0,0.0,0.0,0.0,0.0,0.0,0.0,0.0,0.0,0.0,0.0,0.0,0.0,0.0,0.0,0.0,0.0,0.0,0.0,0.0,0.0,0.0,0.0,0.0,0.0,0.0,0.0,0.0,0.0,0.0,0.0,0.0,0.0,0.0,0.0,0.0,0.0,0.0,0.0,0.0,0.0,0.0,0.0,0.0,0.0,0.0,0.0,0.0,0.0,0.0,0.0,0.0,0.0,0.0,0.0,0.0,0.0,0.0,0.0,0.0,0.0,0.0,0.0,0.0,0.0,0.0,0.0,0.0,0.0,0.0,0.0,0.0,0.0,0.0,0.0,0.0,0.0,0.0,0.0,0.0,0.0,0.0,0.0,0.0,0.0,0.0,0.0,0.0,0.0,0.0,0.0,0.0,0.0,0.0,0.0,0.0,0.0,0.0,0.0,0.0,0.0,0.0,0.0,0.0,0.0,0.0,0.0,0.0,0.0,0.0,0.0,0.0,0.0,0.0,0.0,0.0,0.0,0.0,0.0,0.0,0.0,0.0,0.0,0.0,0.0,0.0,0.0,0.0,0.0,0.0,0.0,0.0,0.0,0.0,0.0,0.0,0.0,0.0,0.0,0.0,0.0,0.0,0.0,0.0,0.0,0.0,0.0,0.0,0.0,0.0,0.0,0.0,0.0,0.0,0.0,0.0,0.0,0.0,0.0,0.0,0.0,0.0,0.0,0.0,0.0,0.0,0.0,0.0,0.0,0.0,0.0,0.0,0.0,0.0,0.0,0.0,0.0,0.0,0.0,0.0,0.0,0.0,0.0,0.0,0.0,0.0,0.0,0.0,0.0,0.0,0.0,0.0,0.0,0.0,0.0,0.0,0.0,0.0,0.0,0.0,0.0,0.0,0.0,0.0,0.0,0.0,0.0,0.0,0.0,0.0,0.0,0.0,0.0,0.0,0.0,0.0,0.0,0.0,0.0,0.0,0.0,0.0,0.0,0.0,0.0,0.0,0.0,0.0,0.0,0.0,0.0,0.0,0.0,0.0,0.0,0.0,0.0,0.0,0.0,0.0,0.0,0.0,0.0,0.0,0.0,0.0,0.0,0.0,0.0,0.0,0.0,0.0,0.0,0.0,0.0,0.0,0.0,0.0,0.0,0.0,0.0,0.0,0.0,0.0,0.0,0.0,0.0,0.0,0.0,0.0,0.0,0.0,0.0,0.0,0.0,0.0,0.0,0.0,0.0,0.0,0.0,0.0,0.0,0.0,0.0,0.0,0.0,0.0,0.0,0.0,0.0,0.0,0.0,0.0,0.0,0.0,0.0,0.0,0.0,0.0,0.0,0.0,0.0,0.0,0.0,0.0,0.0,0.0,0.0,0.0,0.0,0.0,0.0,0.0,0.0,0.0,0.0,0.0,0.0,0.0,0.0,0.0,0.0,0.0,0.0,0.0,0.0,0.0,0.0,0.0,0.0,0.0,0.0,0.0,0.0,0.0,0.0,0.0,0.0,0.0,0.0,0.0,0.0,0.0,0.0,0.0,0.0,0.0,0.0,0.0,0.0,0.0,0.0,0.0,0.0,0.0,0.0,0.0,0.0,0.0,0.0,0.0,0.0,0.0,0.0,0.0,0.0,0.0,0.0,0.0,0.0,0.0,0.0,0.0,0.0,0.0,0.0,0.0,0.0,0.0,0.0,0.0,0.0,0.0,0.0,0.0,0.0,0.0,0.0,0.0,0.0,0.0,0.0,0.0,0.0,0.0,0.0,0.0,0.0,0.0,0.0,0.0,0.0,0.0,0.0,0.0,0.0,0.0,0.0,0.0,0.0,0.0,0.0,0.0,0.0,0.0,0.0,0.0,0.0,0.0,0.0,0.0,0.0,0.0,0.0,0.0,0.0,0.0,0.0,0.0,0.0,0.0,0.0,0.0,0.0,0.0,0.0,0.0,0.0,0.0,0.0,0.0,0.0,0.0,0.0,0.0,0.0,0.0,0.0,0.0,0.0,0.0,0.0,0.0,0.0,0.0,0.0,0.0,0.0,0.0,0.0,0.0,0.0,0.0,0.0,0.0,0.0,0.0,0.0,0.0,0.0,0.0,0.0,0.0,0.0,0.0,0.0,0.0,0.0,0.0,0.0,0.0,0.0,0.0,0.0,0.0,0.0,0.0,0.0,0.0,0.0,0.0,0.0,0.0,0.0,0.0,0.0,0.0,0.0,0.0,0.0,0.0,0.0,0.0,0.0,0.0,0.0,0.0,0.0,0.0,0.0,0.0,0.0,0.0,0.0,0.0,0.0,0.0,0.0,0.0,0.0,0.0,0.0,0.0,0.0,0.0,0.0,0.0,0.0,0.0,0.0,0.0,0.0,0.0,0.0,0.0,0.0,0.0,0.0,0.0,0.0,0.0,0.0,0.0,0.0,0.0,0.0,0.0,0.0,0.0,0.0,0.0,0.0,0.0,0.0,0.0,0.0,0.0,0.0,0.0,0.0,0.0,0.0,0.0,0.0,0.0,0.0,0.0,0.0,0.0,0.0,0.0,0.0,0.0,0.0,0.0,0.0,0.0,0.0,0.0,0.0,0.0,0.0,0.0,0.0,0.0,0.0,0.0,0.0,0.0,0.0,0.0,0.0,0.0,0.0,0.0,0.0,0.0,0.0,0.0,0.0,0.0,0.0,0.0,0.0,0.0,0.0,0.0,0.0,0.0,0.0,0.0,0.0,0.0,0.0,0.0,0.0,0.0,0.0,0.0,0.0,0.0,0.0,0.0,0.0,0.0,0.0,0.0,0.0,0.0,0.0,0.0,0.0,0.0,0.0,0.0,0.0,0.0,0.0,0.0,0.0,0.0,0.0,0.0,0.0,0.0,0.0,0.0,0.0,0.0,0.0,0.0,0.0,0.0,0.0,0.0,0.0,0.0,0.0,0.0,0.0,0.0,0.0,0.0,0.0,0.0,0.0,0.0,0.0,0.0,0.0,0.0,0.0,0.0,0.0,0.0,0.0,0.0,0.0,0.0,0.0,0.0,0.0,0.0,0.0,0.0,0.0,0.0,0.0,0.0,0.0,0.0,0.0,0.0,0.0,0.0,0.0,0.0,0.0,0.0,0.0,0.0,0.0,0.0,0.0,0.0,0.0,0.0,0.0,0.0,0.0,0.0,0.0,0.0,0.0,0.0,0.0,0.0,0.0,0.0,0.0,0.0,0.0,0.0,0.0,0.0,0.0,0.0,0.0,0.0,0.0,0.0,0.0,0.0,0.0,0.0,0.0,0.0,0.0,0.0,0.0,0.0,0.0,0.0,0.0,0.0,0.0,0.0,0.0,0.0,0.0,0.0,0.0,0.0,0.0,-5.7577,0.0,0.0,0.0,0.0,0.0,0.0,0.0,0.0,0.0,0.0,0.0,0.0,0.0,0.0,0.0,0.0,0.0,0.0,0.0,0.0,0.0,0.0,0.0,0.0,0.0,0.0,0.0,0.0,0.0,0.0,0.0,0.0,0.0,0.0,0.0,0.0,0.0,0.0,0.0,0.0,0.0,0.0,0.0,0.0,0.0,0.0,0.0,0.0,0.0,0.0,0.0,0.0,0.0,0.0,0.0,0.0,0.0,0.0,0.0,0.0,0.0,0.0,0.0,0.0,0.0,0.0,0.0,0.0,0.0,0.0,0.0,0.0,0.0,0.0,0.0,0.0,0.0,0.0,0.0,0.0,0.0,0.0,0.0,0.0,0.0,0.0,0.0,0.0,0.0,0.0,0.0,0.0,0.0,0.0,0.0,0.0,0.0,0.0,0.0,0.0,0.0,0.0,0.0,0.0,0.0,0.0,0.0,0.0,0.0,0.0,-6.1862,-6.0518,-6.1176,-6.0352,-5.7701,0.0,0.0,0.0,0.0,0.0,0.0,0.0,0.0,0.0,0.0,0.0,0.0,0.0,0.0,0.0,0.0,0.0,0.0,0.0,0.0,0.0,0.0,0.0,0.0,0.0,0.0,0.0,0.0,0.0,0.0,0.0,0.0,0.0,0.0,0.0,0.0,0.0,0.0,0.0,0.0,0.0,0.0,0.0,0.0,0.0,0.0,0.0,0.0,0.0,0.0,0.0,0.0,0.0,0.0,0.0,0.0,0.0,0.0,0.0,0.0,0.0,0.0,0.0,0.0,0.0,0.0,0.0,0.0,0.0,0.0,0.0,0.0,0.0,0.0,0.0,0.0,0.0,0.0,0.0,0.0,0.0,0.0,0.0,0.0,0.0,0.0,0.0,0.0,0.0,0.0,0.0,0.0,0.0,0.0,0.0,0.0,0.0,0.0,0.0,0.0,0.0,0.0,0.0,0.0,0.0,0.0,0.0,0.0,0.0,0.0,0.0,0.0,-6.1807,-6.088,-5.8114,0.0,0.0,0.0,0.0,0.0,0.0,0.0,0.0,0.0,0.0,0.0,0.0,0.0,0.0,0.0,0.0,0.0,0.0,0.0,0.0,0.0,0.0,0.0,0.0,0.0,0.0,0.0,0.0,0.0,0.0,0.0,0.0,0.0,0.0,0.0,0.0,0.0,0.0,0.0,0.0,0.0,0.0,0.0,0.0,0.0,0.0,0.0,0.0,0.0,0.0,0.0,0.0,0.0,0.0,0.0,0.0,0.0,0.0,0.0,0.0,0.0,0.0,0.0,0.0,0.0,0.0,0.0,0.0,0.0,0.0,0.0,0.0,0.0,0.0,0.0,0.0,0.0,0.0,0.0,0.0,0.0,0.0,0.0,0.0,0.0,0.0,0.0,0.0,0.0,0.0,0.0,0.0,0.0,0.0,0.0,0.0,0.0,0.0,0.0,0.0,0.0,0.0,0.0,0.0,0.0,0.0,0.0,0.0,0.0,0.0,-6.0748,-6.3464,-6.3703,0.0,-5.9424,0.0,0.0,0.0,0.0,0.0,0.0,0.0,0.0,0.0,0.0,0.0,0.0,0.0,0.0,0.0,0.0,0.0,0.0,0.0,0.0,0.0,0.0,0.0,0.0,0.0,0.0,0.0,0.0,0.0,0.0,0.0,0.0,0.0,0.0,0.0,0.0,0.0,0.0,0.0,0.0,0.0,0.0,0.0,0.0,0.0,0.0,0.0,0.0,0.0,0.0,0.0,0.0,0.0,0.0,0.0,0.0,0.0,0.0,0.0,0.0,0.0,0.0,0.0,0.0,0.0,0.0,0.0,0.0,0.0,0.0,0.0,0.0,0.0,0.0,0.0,0.0,0.0,0.0,0.0,0.0,0.0,0.0,0.0,0.0,0.0,0.0,0.0,0.0,0.0,0.0,0.0,0.0,0.0,0.0,0.0,0.0,0.0,0.0,0.0,0.0,0.0,0.0,0.0,0.0,0.0,0.0,0.0,0.0,0.0,0.0,-5.9931,-6.22,-6.1847,-6.001,0.0,0.0,0.0,0.0,0.0,0.0,0.0,0.0,0.0,0.0,0.0,0.0,0.0,0.0,0.0,0.0,0.0,0.0,0.0,0.0,0.0,0.0,0.0,0.0,0.0,0.0,0.0,0.0,0.0,0.0,0.0,0.0,0.0,0.0,0.0,0.0,0.0,0.0,0.0,0.0,0.0,0.0,0.0,0.0,0.0,0.0,0.0,0.0,0.0,0.0,0.0,0.0,0.0,0.0,0.0,0.0,0.0,0.0,0.0,0.0,0.0,0.0,0.0,0.0,0.0,0.0,0.0,0.0,0.0,0.0,0.0,0.0,0.0,0.0,0.0,0.0,0.0,0.0,0.0,0.0,0.0,0.0,0.0,0.0,0.0,0.0,0.0,0.0,0.0,0.0,0.0,0.0,0.0,0.0,0.0,0.0,0.0,0.0,0.0,0.0,0.0,0.0,0.0,0.0,0.0,0.0,0.0,0.0,0.0,0.0,-5.8906,-5.9984,-6.1739,-6.0172,-5.7835,-5.4832,0.0,0.0,0.0,0.0,0.0,0.0,0.0,0.0,0.0,0.0,0.0,0.0,0.0,0.0,0.0,0.0,0.0,0.0,0.0,0.0,0.0,0.0,0.0,0.0,0.0,0.0,0.0,0.0,0.0,0.0,0.0,0.0,0.0,0.0,0.0,0.0,0.0,0.0,0.0,0.0,0.0,0.0,0.0,0.0,0.0,0.0,0.0,0.0,0.0,0.0,0.0,0.0,0.0,0.0,0.0,0.0,0.0,0.0,0.0,0.0,0.0,0.0,0.0,0.0,0.0,0.0,0.0,0.0,0.0,0.0,0.0,0.0,0.0,0.0,0.0,0.0,0.0,0.0,0.0,0.0,0.0,0.0,0.0,0.0,0.0,0.0,0.0,0.0,0.0,0.0,0.0,0.0,0.0,0.0,0.0,0.0,0.0,0.0,0.0,0.0,0.0,0.0,0.0,0.0,0.0,0.0,0.0,0.0,-6.2136,-6.0753,-6.121,-6.3664,-5.9907,-5.6974,0.0,0.0,0.0,0.0,0.0,0.0,0.0,0.0,0.0,0.0,0.0,0.0,0.0,0.0,0.0,0.0,0.0,0.0,0.0,0.0,0.0,0.0,0.0,0.0,0.0,0.0,0.0,0.0,0.0,0.0,0.0,0.0,0.0,0.0,0.0,0.0,0.0,0.0,0.0,0.0,0.0,0.0,0.0,0.0,0.0,0.0,0.0,0.0,0.0,0.0,0.0,0.0,0.0,0.0,0.0,0.0,0.0,0.0,0.0,0.0,0.0,0.0,0.0,0.0,0.0,0.0,0.0,0.0,0.0,0.0,0.0,0.0,0.0,0.0,0.0,0.0,0.0,0.0,0.0,0.0,0.0,0.0,0.0,0.0,0.0,0.0,0.0,0.0,0.0,0.0,0.0,0.0,0.0,0.0,0.0,0.0,0.0,0.0,0.0,0.0,0.0,0.0,0.0,0.0,0.0,0.0,0.0,0.0,0.0,-5.7099,-5.7992,-5.923,-6.0724,-5.823,-5.6314,0.0,0.0,0.0,0.0,0.0,0.0,0.0,0.0,0.0,0.0,0.0,0.0,0.0,0.0,0.0,0.0,0.0,0.0,0.0,0.0,0.0,0.0,0.0,0.0,0.0,0.0,0.0,0.0,0.0,0.0,0.0,0.0,0.0,0.0,0.0,0.0,0.0,0.0,0.0,0.0,0.0,0.0,0.0,0.0,0.0,0.0,0.0,0.0,0.0,0.0,0.0,0.0,0.0,0.0,0.0,0.0,0.0,0.0,0.0,0.0,0.0,0.0,0.0,0.0,0.0,0.0,0.0,0.0,0.0,0.0,0.0,0.0,0.0,0.0,0.0,0.0,0.0,0.0,0.0,0.0,0.0,0.0,0.0,0.0,0.0,0.0,0.0,0.0,0.0,0.0,0.0,0.0,0.0,0.0,0.0,0.0,0.0,0.0,0.0,0.0,0.0,0.0,0.0,0.0,0.0,0.0,0.0,0.0,0.0,-5.5408,0.0,-5.9112,-5.8637,-5.6951,-5.5148,0.0,0.0,0.0,0.0,0.0,0.0,0.0,0.0,0.0,0.0,0.0,0.0,0.0,0.0,0.0,0.0,0.0,0.0,0.0,0.0,0.0,0.0,0.0,0.0,0.0,0.0,0.0,0.0,0.0,0.0,0.0,0.0,0.0,0.0,0.0,0.0,0.0,0.0,0.0,0.0,0.0,0.0,0.0,0.0,0.0,0.0,0.0,0.0,0.0,0.0,0.0,0.0,0.0,0.0,0.0,0.0,0.0,0.0,0.0,0.0,0.0,0.0,0.0,0.0,0.0,0.0,0.0,0.0,0.0,0.0,0.0,0.0,0.0,0.0,0.0,0.0,0.0,0.0,0.0,0.0,0.0,0.0,0.0,0.0,0.0,0.0,0.0,0.0,0.0,0.0,0.0,0.0,0.0,0.0,0.0,0.0,0.0,0.0,0.0,0.0,0.0,0.0,0.0,0.0,0.0,0.0,0.0,0.0,-5.4035,-5.8034,-6.0951,-6.0929,-5.8016,-5.6231,-5.3418,0.0,0.0,0.0,0.0,0.0,0.0,0.0,0.0,0.0,0.0,0.0,0.0,0.0,0.0,0.0,0.0,0.0,0.0,0.0,0.0,0.0,0.0,0.0,0.0,0.0,0.0,0.0,0.0,0.0,0.0,0.0,0.0,0.0,0.0,0.0,0.0,0.0,0.0,0.0,0.0,0.0,0.0,0.0,0.0,0.0,0.0,0.0,0.0,0.0,0.0,0.0,0.0,0.0,0.0,0.0,0.0,0.0,0.0,0.0,0.0,0.0,0.0,0.0,0.0,0.0,0.0,0.0,0.0,0.0,0.0,0.0,0.0,0.0,0.0,0.0,0.0,0.0,0.0,0.0,0.0,0.0,0.0,0.0,0.0,0.0,0.0,0.0,0.0,0.0,0.0,0.0,0.0,0.0,0.0,0.0,0.0,0.0,0.0,0.0,0.0,0.0,0.0,0.0,0.0,0.0,0.0,0.0,0.0,0.0,-5.4003,-5.694,-5.8866,-5.9387,-5.567,-5.4102,0.0,0.0,0.0,0.0,0.0,0.0,0.0,0.0,0.0,0.0,0.0,0.0,0.0,0.0,0.0,0.0,0.0,0.0,0.0,0.0,0.0,0.0,0.0,0.0,0.0,0.0,0.0,0.0,0.0,0.0,0.0,0.0,0.0,0.0,0.0,0.0,0.0,0.0,0.0,0.0,0.0,0.0,0.0,0.0,0.0,0.0,0.0,0.0,0.0,0.0,0.0,0.0,0.0,0.0,0.0,0.0,0.0,0.0,0.0,0.0,0.0,0.0,0.0,0.0,0.0,0.0,0.0,0.0,0.0,0.0,0.0,0.0,0.0,0.0,0.0,0.0,0.0,0.0,0.0,0.0,0.0,0.0,0.0,0.0,0.0,0.0,0.0,0.0,0.0,0.0,0.0,0.0,0.0,0.0,0.0,0.0,0.0,0.0,0.0,0.0,0.0,0.0,0.0,0.0,0.0,0.0,0.0,0.0,0.0,-5.4404,-5.7329,-5.9015,-5.9197,-5.595,-5.4387,-5.469,0.0,0.0,0.0,0.0,0.0,0.0,0.0,0.0,0.0,0.0,0.0,0.0,0.0,0.0,0.0,0.0,0.0,0.0,0.0,0.0,0.0,0.0,0.0,0.0,0.0,0.0,0.0,0.0,0.0,0.0,0.0,0.0,0.0,0.0,0.0,0.0,0.0,0.0,0.0,0.0,0.0,0.0,0.0,0.0,0.0,0.0,0.0,0.0,0.0,0.0,0.0,0.0,0.0,0.0,0.0,0.0,0.0,0.0,0.0,0.0,0.0,0.0,0.0,0.0,0.0,0.0,0.0,0.0,0.0,0.0,0.0,0.0,0.0,0.0,0.0,0.0,0.0,0.0,0.0,0.0,0.0,0.0,0.0,0.0,0.0,0.0,0.0,0.0,0.0,0.0,0.0,0.0,0.0,0.0,0.0,0.0,0.0,0.0,0.0,0.0,0.0,0.0,0.0,0.0,0.0,0.0,0.0,0.0,-5.8107,-6.1267,-6.1294,-5.7931,-5.7003,-5.4473,0.0,0.0,0.0,0.0,0.0,0.0,0.0,0.0,0.0,0.0,0.0,0.0,0.0,0.0,0.0,0.0,0.0,0.0,0.0,0.0,0.0,0.0,0.0,0.0,0.0,0.0,0.0,0.0,0.0,0.0,0.0,0.0,0.0,0.0,0.0,0.0,0.0,0.0,0.0,0.0,0.0,0.0,0.0,0.0,0.0,0.0,0.0,0.0,0.0,0.0,0.0,0.0,0.0,0.0,0.0,0.0,0.0,0.0,0.0,0.0,0.0,0.0,0.0,0.0,0.0,0.0,0.0,0.0,0.0,0.0,0.0,0.0,0.0,0.0,0.0,0.0,0.0,0.0,0.0,0.0,0.0,0.0,0.0,0.0,0.0,0.0,0.0,0.0,0.0,0.0,0.0,0.0,0.0,0.0,0.0,0.0,0.0,0.0,0.0,0.0,0.0,0.0,0.0,0.0,0.0,0.0,0.0,0.0,0.0,-5.949,-6.2315,-6.3142,-6.1805,-5.8236,-5.5643,0.0,0.0,0.0,0.0,0.0,0.0,0.0,0.0,0.0,0.0,0.0,0.0,0.0,0.0,0.0,0.0,0.0,0.0,0.0,0.0,0.0,0.0,0.0,0.0,0.0,0.0,0.0,0.0,0.0,0.0,0.0,0.0,0.0,0.0,0.0,0.0,0.0,0.0,0.0,0.0,0.0,0.0,0.0,0.0,0.0,0.0,0.0,0.0,0.0,0.0,0.0,0.0,0.0,0.0,0.0,0.0,0.0,0.0,0.0,0.0,0.0,0.0,0.0,0.0,0.0,0.0,0.0,0.0,0.0,0.0,0.0,0.0,0.0,0.0,0.0,0.0,0.0,0.0,0.0,0.0,0.0,0.0,0.0,0.0,0.0,0.0,0.0,0.0,0.0,0.0,0.0,0.0,0.0,0.0,0.0,0.0,0.0,0.0,0.0,0.0,0.0,0.0,0.0,0.0,0.0,0.0,0.0,0.0,-5.8821,-6.0901,-6.2994,-6.3869,-6.3418,-6.0184,-5.7153,0.0,0.0,0.0,0.0,0.0,0.0,0.0,0.0,0.0,0.0,0.0,0.0,0.0,0.0,0.0,0.0,0.0,0.0,0.0,0.0,0.0,0.0,0.0,0.0,0.0,0.0,0.0,0.0,0.0,0.0,0.0,0.0,0.0,0.0,0.0,0.0,0.0,0.0,0.0,0.0,0.0,0.0,0.0,0.0,0.0,0.0,0.0,0.0,0.0,0.0,0.0,0.0,0.0,0.0,0.0,0.0,0.0,0.0,0.0,0.0,0.0,0.0,0.0,0.0,0.0,0.0,0.0,0.0,0.0,0.0,0.0,0.0,0.0,0.0,0.0,0.0,0.0,0.0,0.0,0.0,0.0,0.0,0.0,0.0,0.0,0.0,0.0,0.0,0.0,0.0,0.0,0.0,0.0,0.0,0.0,0.0,0.0,0.0,0.0,0.0,0.0,0.0,0.0,0.0,0.0,0.0,0.0,0.0,-5.9538,-6.1974,-6.3313,-6.3686,-6.3109,-6.1857,-5.8516,0.0,0.0,0.0,0.0,0.0,0.0,0.0,0.0,0.0,0.0,0.0,0.0,0.0,0.0,0.0,0.0,0.0,0.0,0.0,0.0,0.0,0.0,0.0,0.0,0.0,0.0,0.0,0.0,0.0,0.0,0.0,0.0,0.0,0.0,0.0,0.0,0.0,0.0,0.0,0.0,0.0,0.0,0.0,0.0,0.0,0.0,0.0,0.0,0.0,0.0,0.0,0.0,0.0,0.0,0.0,0.0,0.0,0.0,0.0,0.0,0.0,0.0,0.0,0.0,0.0,0.0,0.0,0.0,0.0,0.0,0.0,0.0,0.0,0.0,0.0,0.0,0.0,0.0,0.0,0.0,0.0,0.0,0.0,0.0,0.0,0.0,0.0,0.0,0.0,0.0,0.0,0.0,0.0,0.0,0.0,0.0,0.0,0.0,0.0,0.0,0.0,0.0,0.0,0.0,0.0,0.0,0.0,0.0,-5.8422,-6.0722,-6.2301,-6.2411,-6.1077,-5.9367,-5.6862,0.0,0.0,0.0,0.0,0.0,0.0,0.0,0.0,0.0,0.0,0.0,0.0,0.0,0.0,0.0,0.0,0.0,0.0,0.0,0.0,0.0,0.0,0.0,0.0,0.0,0.0,0.0,0.0,0.0,0.0,0.0,0.0,0.0,0.0,0.0,0.0,0.0,0.0,0.0,0.0,0.0,0.0,0.0,0.0,0.0,0.0,0.0,0.0,-5.2554,0.0,0.0,0.0,0.0,0.0,0.0,0.0,0.0,0.0,0.0,0.0,0.0,0.0,0.0,0.0,0.0,0.0,0.0,0.0,0.0,0.0,0.0,0.0,0.0,0.0,0.0,0.0,0.0,0.0,0.0,0.0,0.0,0.0,0.0,0.0,0.0,0.0,0.0,0.0,0.0,0.0,0.0,0.0,0.0,0.0,0.0,0.0,0.0,0.0,0.0,0.0,0.0,0.0,0.0,0.0,0.0,0.0,0.0,0.0,-5.7709,-5.9295,-6.0861,-6.127,-6.0358,-5.8592,-5.6389,0.0,0.0,0.0,0.0,0.0,0.0,0.0,0.0,0.0,0.0,0.0,0.0,0.0,0.0,0.0,0.0,0.0,0.0,0.0,0.0,0.0,0.0,0.0,0.0,0.0,0.0,0.0,0.0,0.0,0.0,0.0,0.0,0.0,0.0,0.0,0.0,0.0,0.0,0.0,0.0,0.0,0.0,0.0,0.0,0.0,0.0,0.0,0.0,0.0,0.0,0.0,0.0,0.0,0.0,0.0,0.0,0.0,0.0,0.0,0.0,0.0,0.0,0.0,0.0,0.0,0.0,0.0,0.0,0.0,0.0,0.0,0.0,0.0,0.0,0.0,0.0,0.0,0.0,0.0,0.0,0.0,0.0,0.0,0.0,0.0,0.0,0.0,0.0,0.0,0.0,0.0,0.0,0.0,0.0,0.0,0.0,0.0,0.0,0.0,0.0,0.0,0.0,0.0,0.0,0.0,0.0,0.0,-5.463,-5.6631,-5.7908,-5.9313,-5.9994,-5.9847,-5.847,-5.6382,-5.3566,0.0,0.0,0.0,0.0,0.0,0.0,0.0,0.0,0.0,0.0,0.0,0.0,0.0,0.0,0.0,0.0,0.0,0.0,0.0,0.0,0.0,0.0,0.0,0.0,0.0,0.0,0.0,0.0,0.0,0.0,0.0,0.0,0.0,0.0,0.0,0.0,0.0,0.0,-4.8849,-5.1309,0.0,0.0,0.0,0.0,0.0,0.0,0.0,0.0,-5.2342,0.0,0.0,0.0,0.0,0.0,0.0,0.0,0.0,0.0,0.0,0.0,0.0,0.0,0.0,0.0,0.0,0.0,0.0,0.0,0.0,0.0,0.0,0.0,0.0,0.0,0.0,0.0,0.0,0.0,0.0,0.0,0.0,0.0,0.0,0.0,0.0,0.0,0.0,0.0,0.0,0.0,0.0,0.0,0.0,0.0,0.0,0.0,0.0,0.0,0.0,0.0,0.0,0.0,0.0,0.0,0.0,-5.404,-5.2874,-5.38,-5.7015,-5.8017,-5.8156,-5.7536,-5.7974,-5.6353,-5.245,0.0,0.0,0.0,0.0,0.0,0.0,0.0,0.0,0.0,0.0,0.0,0.0,0.0,0.0,0.0,0.0,0.0,0.0,0.0,0.0,0.0,0.0,0.0,0.0,0.0,0.0,0.0,0.0,0.0,0.0,0.0,0.0,0.0,0.0,0.0,0.0,0.0,0.0,0.0,-5.311,-5.4499,0.0,0.0,0.0,0.0,0.0,0.0,0.0,0.0,-4.9786,0.0,0.0,0.0,0.0,0.0,0.0,0.0,0.0,0.0,0.0,0.0,0.0,0.0,0.0,0.0,0.0,0.0,0.0,0.0,0.0,0.0,0.0,0.0,0.0,0.0,0.0,0.0,0.0,0.0,0.0,0.0,0.0,0.0,0.0,0.0,0.0,0.0,0.0,0.0,0.0,0.0,0.0,0.0,0.0,0.0,0.0,0.0,0.0,0.0,0.0,0.0,0.0,0.0,0.0,0.0,-5.1607,-5.2601,-5.387,-5.5669,-5.6447,-5.6681,-5.6259,-5.5866,-5.418,0.0,0.0,0.0,0.0,0.0,0.0,0.0,0.0,0.0,0.0,0.0,0.0,0.0,0.0,0.0,0.0,0.0,0.0,0.0,0.0,0.0,0.0,0.0,0.0,0.0,0.0,0.0,0.0,0.0,0.0,0.0,0.0,0.0,0.0,0.0,0.0,0.0,0.0,0.0,0.0,-5.2815,-5.3632,-5.3545,0.0,0.0,0.0,0.0,0.0,0.0,-4.9829,-4.8511,0.0,0.0,0.0,0.0,0.0,0.0,0.0,0.0,0.0,0.0,0.0,0.0,0.0,0.0,0.0,0.0,0.0,0.0,0.0,0.0,0.0,0.0,0.0,0.0,0.0,0.0,0.0,0.0,0.0,0.0,0.0,0.0,0.0,0.0,0.0,0.0,0.0,0.0,0.0,0.0,0.0,0.0,0.0,0.0,0.0,0.0,0.0,0.0,0.0,0.0,0.0,0.0,0.0,0.0,0.0,-4.8868,-5.1899,-5.3719,-5.4264,-5.4836,-5.5239,-5.5466,-5.3936,-5.2138,0.0,0.0,0.0,0.0,0.0,0.0,0.0,0.0,0.0,0.0,0.0,0.0,0.0,0.0,0.0,0.0,0.0,0.0,0.0,0.0,0.0,0.0,0.0,0.0,0.0,0.0,0.0,0.0,0.0,0.0,0.0,0.0,0.0,0.0,0.0,0.0,0.0,0.0,0.0,0.0,0.0,-5.3107,-5.2946,-5.2715,0.0,0.0,0.0,0.0,-5.0803,-4.9811,0.0,0.0,0.0,0.0,0.0,0.0,0.0,0.0,0.0,0.0,0.0,0.0,0.0,0.0,0.0,0.0,0.0,0.0,0.0,0.0,0.0,0.0,0.0,0.0,0.0,0.0,0.0,0.0,0.0,0.0,0.0,0.0,0.0,0.0,0.0,0.0,0.0,0.0,0.0,0.0,0.0,0.0,0.0,0.0,0.0,0.0,0.0,0.0,0.0,0.0,0.0,0.0,0.0,0.0,0.0,0.0,-4.8065,-4.9094,-5.0759,-5.2976,-5.3166,-5.3701,-5.4691,-5.3678,-5.2138,0.0,0.0,0.0,0.0,0.0,0.0,0.0,0.0,0.0,0.0,0.0,0.0,0.0,0.0,0.0,0.0,0.0,0.0,0.0,0.0,0.0,0.0,0.0,0.0,0.0,0.0,0.0,0.0,0.0,0.0,0.0,0.0,0.0,0.0,0.0,0.0,0.0,0.0,0.0,0.0,0.0,-5.4922,-5.1869,-5.2454,-5.2758,0.0,0.0,-5.2349,-5.2115,-5.3181,0.0,0.0,0.0,0.0,0.0,0.0,0.0,0.0,0.0,0.0,0.0,0.0,0.0,0.0,0.0,0.0,0.0,0.0,0.0,0.0,0.0,0.0,0.0,0.0,0.0,0.0,0.0,0.0,0.0,0.0,0.0,0.0,0.0,0.0,0.0,0.0,0.0,0.0,0.0,0.0,0.0,0.0,0.0,0.0,0.0,0.0,0.0,0.0,0.0,0.0,0.0,0.0,0.0,0.0,0.0,-4.5434,-4.6967,-4.8429,-4.9932,-5.1418,-5.1446,-5.1966,-5.3011,-5.0989,-4.9727,0.0,0.0,0.0,0.0,0.0,0.0,0.0,0.0,0.0,0.0,0.0,0.0,0.0,0.0,0.0,0.0,0.0,0.0,0.0,0.0,0.0,0.0,0.0,0.0,0.0,0.0,0.0,0.0,0.0,0.0,0.0,0.0,0.0,0.0,0.0,0.0,0.0,0.0,0.0,0.0,0.0,0.0,-5.093,-5.129,0.0,0.0,0.0,-5.0104,-4.9475,0.0,0.0,0.0,0.0,0.0,0.0,0.0,0.0,0.0,0.0,0.0,0.0,0.0,0.0,0.0,0.0,0.0,0.0,0.0,0.0,0.0,0.0,0.0,0.0,0.0,0.0,0.0,0.0,0.0,0.0,0.0,0.0,0.0,0.0,0.0,0.0,0.0,0.0,0.0,0.0,0.0,0.0,0.0,0.0,0.0,0.0,0.0,0.0,0.0,0.0,0.0,0.0,0.0,0.0,0.0,0.0,0.0,-4.5921,-4.7835,-4.9247,-4.9955,-4.9769,-5.0144,-5.1165,-4.8332,0.0,0.0,0.0,0.0,0.0,0.0,0.0,0.0,0.0,0.0,0.0,0.0,0.0,0.0,0.0,0.0,0.0,0.0,0.0,0.0,0.0,0.0,0.0,0.0,0.0,0.0,0.0,-3.8348,0.0,0.0,0.0,0.0,0.0,0.0,0.0,0.0,0.0,0.0,0.0,0.0,0.0,0.0,-4.9729,-4.9646,-5.0229,-5.0439,0.0,0.0,-4.8563,-4.7627,-4.8542,-4.8242,0.0,0.0,0.0,0.0,0.0,0.0,0.0,0.0,0.0,0.0,0.0,0.0,0.0,0.0,0.0,0.0,0.0,0.0,0.0,0.0,0.0,0.0,0.0,0.0,0.0,0.0,0.0,0.0,0.0,0.0,0.0,0.0,0.0,0.0,0.0,0.0,0.0,0.0,0.0,0.0,0.0,0.0,0.0,0.0,0.0,0.0,0.0,0.0,0.0,0.0,0.0,0.0,0.0,0.0,-4.3836,-4.5184,-4.6622,-4.7847,-4.8832,-4.8238,-4.8402,-4.9497,-4.6671,-4.5734,0.0,0.0,0.0,0.0,0.0,0.0,0.0,0.0,0.0,0.0,0.0,0.0,0.0,0.0,0.0,0.0,0.0,0.0,0.0,0.0,0.0,0.0,0.0,0.0,0.0,0.0,0.0,0.0,0.0,0.0,0.0,0.0,0.0,0.0,0.0,0.0,0.0,0.0,0.0,0.0,0.0,-4.8157,-4.7904,-4.96,-5.0999,0.0,0.0,-4.9522,-4.8693,-5.0889,-5.052,-4.3927,0.0,0.0,0.0,0.0,0.0,0.0,0.0,0.0,0.0,0.0,0.0,0.0,0.0,0.0,0.0,0.0,0.0,0.0,0.0,0.0,0.0,0.0,0.0,0.0,0.0,0.0,0.0,0.0,0.0,0.0,0.0,0.0,0.0,0.0,0.0,0.0,0.0,0.0,0.0,0.0,0.0,0.0,0.0,0.0,0.0,0.0,0.0,0.0,0.0,0.0,0.0,0.0,0.0,-4.2095,-4.3434,-4.4743,-4.5828,-4.6599,-4.6713,-4.7115,-4.783,-4.5409,-4.4483,0.0,0.0,0.0,0.0,0.0,0.0,0.0,0.0,0.0,0.0,0.0,0.0,0.0,0.0,0.0,0.0,0.0,0.0,0.0,0.0,0.0,0.0,0.0,0.0,0.0,0.0,0.0,0.0,-3.4148,-3.418,-3.516,0.0,0.0,0.0,0.0,0.0,0.0,0.0,0.0,0.0,0.0,-4.5793,-4.6417,-4.7374,0.0,0.0,-4.8096,-4.7446,-4.6978,-4.757,-4.6947,-4.3448,-4.208,0.0,0.0,0.0,0.0,0.0,0.0,0.0,0.0,0.0,0.0,0.0,0.0,0.0,0.0,0.0,0.0,0.0,0.0,0.0,0.0,0.0,0.0,0.0,0.0,0.0,0.0,0.0,0.0,0.0,0.0,0.0,0.0,0.0,0.0,0.0,0.0,0.0,0.0,0.0,0.0,0.0,0.0,0.0,0.0,0.0,0.0,0.0,0.0,0.0,0.0,0.0,0.0,-4.0867,-4.2186,-4.3129,-4.3979,-4.4602,-4.5016,-4.5475,-4.5865,-4.3809,-4.2942,0.0,0.0,0.0,0.0,0.0,0.0,0.0,0.0,0.0,0.0,0.0,0.0,0.0,0.0,0.0,0.0,0.0,0.0,0.0,0.0,0.0,0.0,0.0,0.0,0.0,0.0,0.0,0.0,-3.3687,-3.367,-3.5189,0.0,0.0,0.0,0.0,0.0,0.0,0.0,0.0,0.0,0.0,-4.3847,-4.5441,-4.5813,-4.6148,-4.685,-4.6042,-4.5378,-4.5396,-4.4703,-4.364,-4.2038,0.0,0.0,0.0,0.0,0.0,0.0,0.0,0.0,0.0,0.0,0.0,0.0,0.0,0.0,0.0,0.0,0.0,0.0,0.0,0.0,0.0,0.0,0.0,0.0,0.0,0.0,0.0,-5.0358,0.0,0.0,-4.8677,0.0,0.0,0.0,0.0,0.0,0.0,0.0,0.0,0.0,0.0,0.0,0.0,0.0,0.0,0.0,0.0,0.0,0.0,0.0,0.0,0.0,0.0,-4.0418,-4.1686,-4.2,-4.2466,-4.3034,-4.3063,-4.3316,-4.3685,-4.1697,-4.1073,-4.2163,0.0,0.0,0.0,0.0,0.0,0.0,0.0,0.0,0.0,0.0,0.0,0.0,0.0,0.0,0.0,0.0,0.0,0.0,0.0,0.0,0.0,0.0,0.0,0.0,0.0,0.0,-3.5503,-3.4188,-3.3806,0.0,0.0,0.0,0.0,0.0,0.0,0.0,0.0,0.0,0.0,-4.0718,-4.2514,-4.4902,-4.5296,-4.5641,-4.6897,-4.5099,-4.375,-4.4312,-4.323,-4.1553,0.0,0.0,0.0,0.0,0.0,0.0,0.0,0.0,0.0,0.0,0.0,0.0,0.0,0.0,0.0,0.0,0.0,0.0,0.0,0.0,0.0,0.0,0.0,0.0,0.0,0.0,0.0,-5.0009,-4.9336,0.0,0.0,0.0,0.0,0.0,0.0,0.0,0.0,0.0,0.0,0.0,-4.2915,-4.2482,0.0,0.0,0.0,0.0,0.0,0.0,0.0,0.0,0.0,0.0,0.0,0.0,-3.9556,-4.112,-4.136,-4.148,-4.1624,-4.2478,-4.2431,-4.1245,-4.0596,-3.9925,-3.9271,0.0,0.0,0.0,0.0,0.0,0.0,0.0,0.0,0.0,0.0,0.0,0.0,0.0,0.0,0.0,0.0,0.0,0.0,0.0,0.0,0.0,0.0,0.0,0.0,0.0,-3.4453,0.0,0.0,0.0,0.0,0.0,0.0,0.0,0.0,0.0,0.0,0.0,-3.5762,-3.7942,-3.8999,-4.0268,-4.2324,-4.2569,-4.2867,0.0,0.0,0.0,0.0,0.0,0.0,0.0,0.0,0.0,0.0,0.0,0.0,0.0,0.0,-4.2035,-3.8765,-3.7827,-3.769,-3.819,0.0,0.0,0.0,0.0,0.0,0.0,0.0,0.0,0.0,0.0,0.0,0.0,0.0,0.0,-4.8224,0.0,-4.7485,0.0,0.0,0.0,0.0,0.0,0.0,0.0,0.0,-4.1152,-4.0962,-4.1026,-4.0962,-4.087,0.0,-4.0992,-4.0758,0.0,0.0,0.0,0.0,0.0,0.0,0.0,0.0,-3.8019,-3.941,-3.9571,-3.9718,-4.0102,-4.0953,-4.083,-3.9494,-3.8989,-3.816,-3.6961,-3.6166,-3.6157,0.0,0.0,0.0,0.0,0.0,0.0,0.0,0.0,0.0,0.0,0.0,0.0,0.0,0.0,0.0,0.0,0.0,0.0,0.0,0.0,0.0,0.0,0.0,-3.3715,0.0,0.0,0.0,0.0,0.0,0.0,0.0,0.0,0.0,-3.4312,-3.4767,-3.5694,-3.7608,-3.8442,-3.9455,-4.1213,0.0,0.0,0.0,0.0,0.0,0.0,0.0,-3.9723,-4.0065,-3.867,-3.7715,-3.8704,-3.9804,-4.028,-3.9422,0.0,0.0,-3.7899,-3.7078,-3.6972,-3.7704,-3.799,-3.8308,-3.8917,-3.8772,-3.8399,0.0,0.0,0.0,0.0,0.0,0.0,0.0,0.0,-4.4828,-4.5227,0.0,-4.4978,0.0,0.0,0.0,0.0,-4.1896,-4.1058,0.0,0.0,-3.828,-3.7518,-3.6702,-3.7691,-3.7837,-3.7455,-3.9128,-3.9368,-3.8307,-3.7519,0.0,0.0,0.0,0.0,0.0,0.0,-3.5954,-3.6701,-3.6876,-3.7403,-3.8469,-3.8522,-3.8497,-3.8304,-3.6947,-3.593,-3.5337,-3.5018,-3.4871,-3.4953,-3.5885,0.0,0.0,0.0,0.0,0.0,0.0,0.0,0.0,0.0,0.0,0.0,0.0,0.0,0.0,0.0,0.0,0.0,0.0,0.0,0.0,-3.4448,0.0,0.0,0.0,0.0,0.0,0.0,0.0,0.0,0.0,0.0,-3.3962,-3.5515,-3.7086,-3.8235,0.0,0.0,0.0,0.0,-4.1324,-4.1811,-4.1413,-4.1068,-4.1068,-4.0409,-3.953,-3.8545,0.0,0.0,-3.8259,-3.9127,-3.9312,-3.7685,-3.7369,-3.8171,-4.1234,-3.9725,-3.8856,-4.0399,-3.8704,-3.7518,-3.8873,-3.8936,-3.8412,-4.5917,0.0,0.0,0.0,0.0,-4.3948,-4.3855,-4.3807,-4.3472,-4.3676,-4.4116,-4.3529,0.0,0.0,0.0,0.0,0.0,0.0,-3.899,-3.9297,-3.8844,-3.8693,-3.8766,-3.8667,-3.8592,-3.8466,-3.8135,-3.7416,-3.6356,-3.5704,-3.5948,-3.6918,0.0,0.0,0.0,0.0,-3.5892,-3.7289,-3.7384,-3.751,-3.7795,-3.8251,-3.8087,-3.73,-3.5873,-3.5038,-3.4865,-3.4196,-3.4261,-3.5118,-3.4663,0.0,0.0,0.0,0.0,0.0,0.0,0.0,0.0,0.0,0.0,0.0,0.0,0.0,0.0,0.0,0.0,0.0,0.0,0.0,-3.3123,-3.2973,-3.2911,0.0,0.0,0.0,0.0,0.0,0.0,0.0,0.0,0.0,-3.4921,-3.5162,-3.5973,0.0,0.0,-3.8293,-3.9597,-3.9648,-3.9725,-4.0287,-4.0185,0.0,-4.0083,-3.9626,-3.9221,-3.9297,-3.9335,-3.8969,-3.7671,-3.8299,-3.8492,-3.6911,-3.72,-3.8048,-3.8831,-3.8714,-3.8516,-3.8993,-3.9133,-3.9349,-3.982,-3.9474,-3.8969,-4.3886,-4.3506,-4.3554,-4.3245,-4.2786,-4.2589,-4.25,-4.242,-4.2188,-4.2249,-4.2528,-4.1937,-4.1964,-4.2528,-4.1937,0.0,0.0,0.0,-3.8366,-3.9019,-3.8969,-3.8817,-3.8739,-3.8839,-3.8537,-3.7913,-3.7418,-3.6628,-3.5519,-3.5199,-3.5544,-3.6396,0.0,0.0,-3.56,-3.4949,-3.521,-3.6452,-3.6694,-3.6884,-3.7083,-3.7013,-3.6668,-3.5991,-3.4743,-3.407,-3.4073,-3.3465,-3.3619,-3.4603,-3.3968,-3.3854,0.0,0.0,0.0,0.0,0.0,0.0,0.0,0.0,0.0,0.0,0.0,-3.3512,-3.4046,0.0,0.0,0.0,-3.3065,-3.2527,-3.1919,-3.2011,0.0,0.0,0.0,0.0,0.0,0.0,0.0,-3.2558,-3.3746,-3.4756,-3.5408,-3.5454,-3.6031,-3.7789,-3.7713,-3.7914,-3.9044,0.0,-3.912,-3.9622,-3.9697,-3.9697,-3.9697,-3.9421,-3.9244,-3.9312,-3.9519,-3.9004,-3.7476,-3.777,-3.7816,-3.6749,-3.6858,-3.7442,-3.794,-3.8052,-3.8224,-3.8506,-3.8814,-3.8991,-3.9032,-3.8481,-3.8121,-4.2189,-4.1724,-4.2841,-4.2618,-4.1416,-4.1112,-4.0923,-4.0818,-4.089,-4.0993,-4.102,-4.0262,-4.0308,-4.0887,-4.0132,0.0,-3.8768,-3.814,-3.7939,-3.809,-3.8592,-3.8291,-3.7392,-3.8302,-3.7947,-3.6464,-3.6898,-3.6609,-3.5693,-3.5594,-3.5304,-3.4848,-3.3716,-3.3458,-3.3953,-3.3997,-3.4248,-3.4776,-3.5328,-3.5855,-3.638,-3.5303,-3.468,-3.4726,-3.3596,-3.3039,-3.3044,-3.2762,-3.2895,-3.3488,-3.341,-3.3312,-3.3276,0.0,0.0,0.0,0.0,0.0,0.0,0.0,0.0,0.0,0.0,0.0,0.0,0.0,0.0,0.0,-3.1405,0.0,-3.1368,-3.1432,0.0,0.0,0.0,-3.1512,-3.1512,-3.2558,-3.3219,-3.3219,0.0,0.0,-3.5558,-3.6081,-3.6857,-3.7814,-3.799,-3.8417,-3.9546,-3.927,-3.912,-3.9622,-3.9697,-3.9697,-3.9697,-3.9672,-3.9492,-3.905,-3.9259,-3.9038,-3.7691,-3.7604,-3.7504,-3.6564,-3.6332,-3.6657,-3.7814,-3.795,-3.808,-3.8659,-3.8003,-3.7334,-3.7281,-3.6904,-3.6742,-4.1701,-4.0816,-4.1103,-4.0823,-4.016,-4.0033,-4.0007,-3.993,-3.96,-3.9675,-4.0007,-3.9423,-3.8992,-3.8708,-3.8155,-3.7758,-3.7612,-3.701,-3.7437,-3.8617,-3.8341,-3.8316,-3.8517,-3.8291,-3.7792,-3.6997,-3.6309,-3.6063,-3.6177,-3.5405,-3.5138,-3.5331,-3.4334,-3.4061,-3.4576,-3.4545,-3.4756,-3.5307,-3.5881,-3.6279,-3.6355,-3.5278,-3.468,-3.47,-3.3219,-3.2424,-3.2424,-3.161,-3.1393,-3.1967,-3.157,-3.149,-3.1924,-3.2108,0.0,0.0,0.0,0.0,0.0,0.0,0.0,0.0,0.0,-3.1033,-3.1479,0.0,-3.0368,0.0,-3.0419,-3.0241,-3.0203,-3.0595,0.0,0.0,-3.2072,-3.2692,-3.2692,-3.3671,-3.4324,-3.4349,-3.5006,-3.5658,-3.6107,-3.6707,-3.7086,-3.7362,-3.7739,-3.8417,-3.9496,-3.9597,-3.9546,-3.9647,-3.9672,-3.9697,-3.9697,-3.9697,-3.9645,-3.9542,-3.959,-3.9355,-3.855,-3.8147,-3.7744,-3.7036,-3.6549,-3.6796,-3.7814,-3.7679,-3.7708,-3.8526,-3.8579,-3.8104,-3.7304,-3.6958,-3.6796,-4.1053,-4.0501,-4.0249,-3.9973,-3.9697,-3.9697,-3.9697,-3.9672,-3.9371,-3.912,-3.8894,-3.8366,-3.809,-3.7965,-3.7437,-3.7337,-3.7513,-3.7236,-3.7788,-3.8869,-3.8542,-3.8417,-3.8467,-3.7917,-3.7097,-3.6135,-3.5746,-3.5503,-3.5307,-3.4726,-3.458,-3.4872,-3.4293,-3.415,-3.4462,-3.4684,-3.5009,-3.5531,-3.6113,-3.6232,-3.5981,-3.5177,-3.4555,-3.4279,-3.2968,-3.2215,-3.2215,-3.1145,-3.0994,-3.172,-3.1045,-3.0868,-3.141,-3.1482,-3.1284,0.0,0.0,0.0,0.0,0.0,0.0,0.0,0.0,0.0,0.0,0.0,-3.0413,-3.0904,-3.068,-3.0507,-3.0507,-3.1009,-3.1336,-3.1386,-3.239,-3.3212,-3.342,-3.4198,-3.4901,-3.5403,-3.573,-3.6006,-3.638,-3.6634,-3.691,-3.7136,-3.7462,-3.7965,-3.8743,-3.8944,-3.9019,-3.927,-3.932,-3.9421,-3.9647,-3.9697,-3.9697,-3.9697,-3.9697,-3.9415,-3.8598,-3.8408,-3.8137,-3.734,-3.7086,-3.7334,-3.8157,-3.808,-3.8084,-3.8598,-3.8627,-3.8153,-3.7287,-3.6928,-3.6588,-4.0475,-4.0375,-3.9898,-3.9697,-3.9697,-3.9697,-3.9697,-3.9697,-3.9622,-3.8994,-3.7965,-3.7412,-3.7462,-3.7864,-3.7312,-3.7337,-3.7789,-3.7789,-3.814,-3.8743,-3.8743,-3.8417,-3.7965,-3.7444,-3.6382,-3.4969,-3.5403,-3.5083,-3.4089,-3.404,-3.3991,-3.3991,-3.3941,-3.3892,-3.3941,-3.4414,-3.5011,-3.562,-3.6098,-3.6085,-3.5608,-3.5006,-3.4449,-3.3897,-3.2742,-3.2064,-3.1989,-3.1035,-3.0934,-3.1813,-3.1009,-3.0668,-3.1094,-3.1221,-3.0802,0.0,-3.0126,0.0,0.0,0.0,0.0,0.0,0.0,0.0,0.0,-3.0034,-3.0748,-3.1173,-3.1263,-3.1304,-3.1304,-3.1847,-3.2014,-3.1587,-3.2491,-3.3395,-3.3947,-3.45,-3.5203,-3.6157,-3.6355,-3.6405,-3.6304,-3.6355,-3.6606,-3.7008,-3.7036,-3.7262,-3.7688,-3.7965,-3.8266,-3.8718,-3.8894,-3.9094,-3.9471,-3.9622,-3.9697,-3.9697,-3.9597,-3.9267,-3.8358,-3.8349,-3.8264,-3.746,-3.7517,-3.8012,-3.8586,-3.8662,-3.8644,-3.8714,-3.8284,-3.7685,-3.718,-3.6617,-3.6087,-4.0249,-3.9848,-3.9747,-3.9697,-3.9697,-3.9697,-3.9697,-3.9672,-3.922,-3.8642,-3.7965,-3.7412,-3.7236,-3.7287,-3.6807,-3.6606,-3.6707,-3.6732,-3.7211,-3.814,-3.7713,-3.7688,-3.7965,-3.7465,-3.6576,-3.5501,-3.5574,-3.526,-3.4628,-3.4237,-3.3991,-3.3991,-3.3618,-3.3419,-3.3469,0.0,0.0,0.0,-3.5716,-3.5906,-3.6182,-3.5228,-3.4474,-3.3897,-3.2365,0.0,-3.0909,-3.0306,-3.003,-3.0231,-3.0055,0.0,0.0,0.0,0.0,0.0,0.0,0.0,0.0,0.0,0.0,0.0,-2.954,-2.929,-2.9749,-3.0011,-3.0174,-3.0247,-3.0604,-3.0836,-3.0836,-3.168,-3.2164,-3.2114,-3.3068,-3.3947,-3.4525,-3.5006,-3.5458,-3.5633,-3.6081,-3.6182,-3.5805,-3.6081,-3.643,-3.6556,-3.6556,-3.6606,-3.6732,-3.7437,-3.8015,-3.8191,-3.8517,-3.8868,-3.9019,-3.9371,-3.9647,-3.9647,-3.9295,-3.9019,-3.8692,-3.7963,-3.7562,-3.7189,-3.7297,-3.7557,-3.8099,-3.8157,-3.823,-3.8231,-3.7439,-3.6787,-3.7092,-3.6417,-3.5824,-3.9948,-3.9697,-3.9697,-3.9697,0.0,-3.9697,-3.9697,-3.9647,-3.9094,-3.8542,-3.7965,-3.7136,-3.6983,-3.7161,-3.6656,-3.6405,-3.643,-3.6681,-3.7061,-3.7588,-3.7312,-3.7312,-3.7588,-3.7036,-3.6395,-3.562,-3.586,-3.5716,-3.5187,-3.4628,-3.4384,-3.4384,-3.3668,-3.3292,-3.3269,-3.3519,-3.4286,-3.5572,-3.562,-3.5588,-3.5508,-3.5027,-3.4198,-3.3093,-3.1989,0.0,0.0,0.0,0.0,0.0,0.0,0.0,0.0,-3.0063,0.0,-2.9316,-2.9467,-2.957,-2.957,-2.8943,-2.8833,-2.9456,-2.9209,-2.9408,-3.0343,-3.0233,-3.031,-3.0788,-3.107,-3.1284,-3.1522,-3.2024,-3.2386,-3.2624,-3.3144,-3.3721,-3.4248,-3.4756,-3.5082,-3.5132,-3.5629,-3.583,-3.5533,-3.5755,-3.6056,-3.6355,-3.6405,-3.6405,-3.6455,-3.681,-3.7262,-3.7563,-3.8065,-3.8442,-3.8492,-3.8919,-3.917,-3.8919,-3.8868,-3.8642,-3.8165,-3.7817,-3.7494,-3.7295,-3.7393,-3.7713,-3.7889,-3.801,-3.7908,-3.7617,-3.6765,-3.6105,-3.6333,-3.5746,-3.5173,-3.9546,-3.9546,-3.9546,-3.9597,-3.9697,-3.9597,-3.9421,-3.922,0.0,0.0,0.0,-3.6807,-3.6656,-3.6985,-3.6606,-3.6405,-3.643,-3.6835,-3.7086,-3.7186,-3.7086,-3.7134,-3.7161,-3.6656,-3.6121,-3.5668,-3.6121,-3.6073,-3.5476,-3.5114,-3.4823,-3.458,-3.3817,-3.3419,-3.3442,-3.3419,-3.4162,-3.5524,-3.5524,-3.5223,-3.4856,-3.4731,-3.3972,-3.239,-3.1838,-3.1486,-3.1386,-3.0984,-3.0757,-3.0811,-3.1171,-3.0943,-3.0049,-3.0438,-3.0377,-2.9857,-2.9711,-2.9782,-2.9867,-2.9139,-2.8791,-2.897,-2.9193,-2.967,-3.0608,-3.039,-3.0579,-3.1359,-3.1516,-3.1737,-3.2245,-3.24,-3.2618,-3.3025,-3.3136,-3.3294,-3.3822,-3.4299,-3.453,-3.4605,-3.5006,-3.5357,-3.5332,-3.5458,-3.5708,-3.6279,-3.6405,-3.6405,-3.6405,-3.6455,-3.6656,-3.7033,-3.7513,-3.7864,-3.7939,-3.8341,-3.8492,-3.8191,-3.8341,-3.8216,-3.7538,-3.7487,-3.7513,-3.7063,-3.7487,-3.774,-3.7864,-3.794,-3.7765,-3.719,-3.6383,-3.5618,-3.5322,-3.4977,-3.4572,-3.8994,-3.8994,-3.8994,-3.927,-3.9672,-3.9195,-3.8442,-3.7588,-3.7965,-3.7538,-3.6631,-3.648,-3.6455,-3.6505,-3.6455,-3.6405,-3.6405,-3.6505,-3.6782,-3.7161,-3.6757,-3.6782,-3.7136,-3.6656,-3.6146,-3.5668,-3.6121,-3.5883,-3.509,-3.5332,-3.5042,-3.4188,-3.3991,-3.3892,-3.3892,-3.3892,-3.4433,-3.5572,-3.5138,-3.5063,-3.5361,-3.4931,-3.4173,-3.3018,-3.239,-3.1863,-3.1411,-3.1311,-3.1107,-3.0728,-3.0761,-3.0385,-2.9603,-2.9946,-2.9796,-2.8942,-2.8696,-2.8924,-2.9498,-2.823,-2.795,-2.9008,-2.9692,-3.0125,-3.0259,-3.0236,-3.0283,-3.0442,-3.0758,-3.1205,-3.1761,-3.2157,-3.2574,-3.2982,-3.3136,-3.3338,-3.3796,-3.3972,-3.4022,-3.4022,-3.4455,-3.4806,-3.4881,-3.5207,-3.5705,-3.6254,-3.6405,-3.6405,-3.6405,-3.6405,-3.643,-3.6556,-3.6935,-3.7262,-3.7362,-3.7764,-3.8015,-3.8015,-3.7663,-3.7487,-3.7186,-3.6933,-3.6757,-3.6581,-3.6935,-3.7236,-3.7312,-3.7688,-3.7466,-3.6774,-3.6309,-3.5819,-3.4671,-3.4249,-3.4206,-3.8919,-3.8919,-3.8919,-3.9195,-3.9647,-3.9145,-3.8241,-3.7236,-3.7437,-3.7111,-3.6455,-3.6405,-3.6405,-3.6405,-3.6405,-3.6405,-3.6405,-3.6405,-3.6531,-3.6757,-3.6531,-3.6531,-3.6757,-3.6531,-3.6263,-3.6073,-3.6263,-3.6168,-3.5692,-3.5668,-3.538,-3.4872,-3.458,-3.4433,-3.4433,-3.4433,-3.4823,-3.5572,-3.538,-3.535,-3.5462,-3.4956,-3.4198,-3.3119,-3.2516,-3.2114,-3.1838,-3.1838,-3.1506,-3.0858,-3.1083,-3.0678,-2.9552,-2.9862,-2.9935,-2.955,-2.906,-2.8944,-2.9262,-2.828,-2.8043,-2.9024,-2.9393,-2.9577,-2.9577,-2.9623,-2.9577,-2.9623,-2.9806,-3.0306,-3.116,-3.1717,-3.2201,-3.2705,-3.2939,-3.3169,-3.342,-3.3746,-3.3771,-3.3571,-3.3922,-3.4399,-3.4675,-3.4906,-3.5454,-3.6204,-3.6405,-3.6405,-3.6405,-3.6405,-3.6405,-3.643,-3.6631,-3.6757,-3.6807,-3.7186,-3.7387,-3.7235,-3.7161,-3.7036,-3.6883,-3.6531,-3.6455,-3.6405,-3.6631,-3.6757,-3.6734,-3.6958,-3.6839,-3.662,-3.6158,-3.5527,-3.4676,-3.404,-3.3754,-3.8617,-3.8668,-3.8668,-3.8919,-3.927,-3.8718,-3.7864,-3.686,-3.681,-3.6584,-3.6207,-3.6329,-3.6405,-3.6405,-3.6405,-3.6405,-3.6405,-3.6405,-3.6405,-3.6405,-3.6405,-3.6405,-3.6405,-3.6405,-3.6405,-3.6405,-3.6405,-3.6405,-3.6358,-3.5978,-3.5716,-3.5572,-3.5066,-3.4872,-3.4969,-3.4969,-3.5284,-3.5764,-3.5764,-3.5682,-3.5508,-3.5082,-3.4449,-3.352,-3.3018,-3.2717,-3.2616,-3.2591,-3.2116,-3.1158,-3.15,-3.1083,-2.98,-3.0009,-3.0125,-2.9943,-2.9255,-2.8792,-2.8606,-2.856,-2.8653,-2.9024,-2.9117,-2.9024,-2.8885,-2.8839,-2.8932,-2.9071,-2.9163,-2.9623,-3.0713,-3.1181,-3.1693,-3.2313,-3.281,-3.3093,-3.3119,-3.347,-3.3571,-3.3237,-3.347,-3.3947,-3.4525,-3.468,-3.5177,-3.6153,-3.6405,-3.6405,-3.6405,-3.6405,-3.6405,-3.6405,-3.6405,-3.643,-3.643,-3.6757,-3.6857,-3.6455,-3.6757,-3.6782,-3.6531,-3.643,-3.6405,-3.6405,-3.6405,-3.636,-3.6288,-3.6335,-3.636,-3.6196,-3.6005,-3.5645,-3.4896,-3.4089,-3.3469,-3.7663,-3.804,-3.8115,-3.8115,-3.814,-3.7613,-3.6759,-3.5759,-3.5658,-3.5633,-3.5633,-3.6132,-3.6405,-3.6405,-3.6405,-3.6405,-3.6405,-3.6405,-3.6405,-3.6405,-3.6405,-3.6405,-3.6405,-3.6405,-3.6405,-3.6405,-3.6405,-3.6405,-3.6405,-3.631,-3.6073,-3.562,-3.509,-3.5066,-3.5476,-3.5524,-3.5812,-3.631,-3.631,-3.6034,-3.5533,-3.5433,-3.5132,-3.46,-3.4455,-3.4204,-3.3696,-3.3746,-3.3058,-3.1781,-3.1669,-3.1226,-3.0283,-3.0193,-2.9897,-2.9255,-2.8513,-2.7788,-2.7336,-2.891,-2.9669,-2.9163,-2.9117,-2.8885,-2.8279,-2.8164,-2.842,-2.8932,-2.9117,-2.9669,-3.0713,-3.08,-3.1247,-3.2313,-3.2835,-3.3136,-3.3136,-3.3162,-3.3119,-3.3136,-3.3212,-3.3545,-3.45,-3.4801,-3.5228,-3.6254,-3.6405,-3.6405,-3.6405,-3.6405,-3.6405,-3.6405,-3.6405,-3.6405,-3.643,-3.643,-3.6505,-3.643,-3.6455,-3.648,-3.643,-3.6405,-3.6405,-3.6263,-3.631,-3.6168,-3.593,-3.5978,-3.6168,-3.5955,-3.5908,-3.5978,-3.5066,-3.4286,-3.3793,-3.7789,-3.804,-3.8391,-3.8316,-3.7965,-3.7412,-3.6558,-3.5533,-3.5483,-3.5483,-3.5583,-3.6132,-3.6405,-3.6405,-3.6405,-3.6405,-3.6405,-3.6405,-3.6405,-3.6405,-3.6405,-3.6405,-3.6405,-3.6405,-3.6405,-3.6405,-3.6405,-3.6405,-3.6405,-3.6405,-3.6263,-3.6073,-3.5835,-3.5692,-3.562,-3.562,-3.5716,-3.5955,-3.593,-3.5974,-3.5984,-3.5658,-3.5408,-3.5157,-3.4856,-3.4474,-3.3972,-3.3897,-3.3206,-3.1854,-3.1717,-3.125,-3.0261,-3.0216,-2.9897,-2.9117,-2.7998,-2.7431,-2.7552,-2.8398,-2.9141,-2.9669,-2.976,-2.9531,-2.9187,-2.9463,-2.9715,-2.9509,-2.9509,-3.0011,-3.116,-3.1492,-3.1869,-3.2356,-3.2835,-3.3136,-3.3136,-3.3136,-3.3136,-3.3136,-3.3136,-3.3495,-3.455,-3.5303,-3.583,-3.6355,-3.6405,-3.6405,-3.6405,-3.6405,-3.6405,-3.6405,-3.6405,-3.6405,-3.6405,-3.6405,-3.6405,-3.6405,-3.6405,-3.6405,-3.6405,-3.6405,-3.631,-3.6026,-3.6026,-3.5787,-3.5211,-3.5548,-3.5812,-3.5716,-3.5668,-3.5764,-3.5332,-3.458,-3.3991,-3.799,-3.8115,-3.8793,-3.8743,-3.8191,-3.7487,-3.6659,-3.5805,-3.5558,-3.5483,-3.5558,-3.6132,-3.6405,-3.6405,-3.6405,-3.6405,-3.6405,-3.6405,-3.6405,-3.6405,-3.6405,-3.6405,-3.6405,-3.6405,-3.6405,-3.6405,-3.6405,-3.6405,-3.6405,-3.6405,-3.6405,-3.6405,-3.6263,-3.5978,-3.562,-3.5476,-3.538,-3.538,-3.5524,-3.5812,-3.6071,-3.5887,-3.5734,-3.573,-3.5378,-3.4806,-3.397,-3.4184,-3.3578,-3.2026,-3.1934,-3.1508,-3.0696,-3.0399,-2.9806,-2.8839,-2.7809,-2.7336,-2.7715,-2.8092,-2.8839,-2.992,-3.008,-3.0011,-2.9943,-3.0283,-3.0329,-2.9897,-3.0011,-3.0554,-3.1294,-3.1825,-3.2157,-3.24,-3.281,-3.3136,-3.3136,-3.3136,-3.3136,-3.3136,-3.3136,-3.342,-3.4399,-3.5353,-3.6056,-3.6081,-3.6304,-3.6405,-3.6405,-3.6405,-3.6405,-3.6405,-3.6405,-3.6405,-3.6405,-3.6405,-3.6405,-3.6405,-3.6405,-3.6405,-3.6405,-3.6405,-3.6358,-3.6121,-3.5883,-3.5716,-3.5428,-3.5572,-3.5812,-3.5812,-3.586,-3.5764,-3.5572,-3.4872,-3.4433,-3.799,-3.8191,-3.9195,-3.9295,-3.8793,-3.7638,-3.6908,-3.6279,-3.578,-3.5483,-3.5558,-3.6132,-3.6405,-3.6405,-3.6405,-3.6405,-3.6405,-3.6405,-3.6405,-3.6405,-3.6405,-3.6405,-3.6405,-3.6405,-3.6405,-3.6405,-3.6405,-3.6405,-3.6405,-3.6405,-3.6405,-3.6358,-3.5883,-3.562,-3.5476,-3.5066,-3.4823,-3.4872,-3.5284,-3.5572,-3.5644,-3.6071,-3.6185,-3.6185,-3.6329,-3.5565,-3.4301,-3.4923,-3.447,-3.2533,-3.2391,-3.2189,-3.1642,-3.0697,-2.9531,-2.8233,-2.7951,-2.76,-2.7247,-2.8211,-2.9187,-2.9715,-2.9897,-2.9852,-2.9988,-3.0079,-3.0079,-2.9852,-3.0554,-3.1026,-3.1026,-3.1403,-3.1757,-3.2376,-3.2835,-3.3093,-3.3136,-3.3136,-3.3136,-3.3136,-3.3162,-3.3445,-3.3972,-3.4901,-3.5508,-3.578,-3.6081,-3.6405,-3.6405,-3.6405,-3.6405,-3.6405,-3.6405,-3.6405,-3.6405,-3.6405,-3.6405,-3.6405,-3.6405,-3.6405,-3.6405,-3.6405,-3.6358,-3.631,-3.6168,-3.6003,-3.5812,-3.586,-3.6146,-3.6241,-3.6216,-3.6146,-3.586,-3.5668,-3.5235,-3.8768,-3.912,-3.9521,-3.9371,-3.8818,-3.7663,-3.6933,-3.638,-3.578,-3.5483,-3.5583,-3.6107,-3.6405,-3.6405,-3.6405,-3.6405,-3.6405,-3.6405,-3.6405,-3.6405,-3.6405,-3.6405,-3.6405,-3.6405,-3.6405,-3.6405,-3.6405,-3.6405,-3.6405,-3.6405,-3.6216,-3.5908,-3.5716,-3.5284,-3.4677,-3.4384,-3.4286,-3.4286,-3.4482,-3.4726,-3.5042,-3.4966,-3.4913,-3.4985,-3.5899,-3.5633,-3.4,-3.4635,-3.4185,-3.2499,-3.216,-3.1759,-3.1174,-3.0148,-2.8839,-2.7526,-2.7289,-2.7238,-2.7243,-2.7921,-2.8732,-2.9533,-2.9897,-3.0329,-3.0869,-3.1003,-3.1026,-3.1137,-3.1781,-3.2045,-3.1629,-3.1737,-3.2176,-3.2723,-3.3007,-3.3136,-3.3136,-3.3136,-3.3136,-3.3187,-3.337,-3.3822,-3.4299,-3.5031,-3.5608,-3.6006,-3.6304,-3.6405,-3.6405,-3.6405,-3.6405,-3.6405,-3.6405,-3.6405,-3.6405,-3.6405,-3.6405,-3.6405,-3.6405,-3.6405,-3.6405,-3.6405,-3.6358,-3.6073,-3.6026,-3.593,-3.562,-3.5764,-3.6073,-3.6358,-3.6405,-3.631,-3.6193,-3.5908,-3.5572,-3.9424,-3.9647,-3.9697,-3.9524,-3.9094,-3.7962,-3.7281,-3.6915,-3.6125,-3.5805,-3.5881,-3.6254,-3.6405,-3.6405,-3.6405,-3.6405,-3.6405,-3.6405,-3.6405,-3.6405,-3.6405,-3.6405,-3.6405,-3.6405,-3.6405,-3.6405,-3.6405,-3.6405,-3.6405,-3.6405,-3.6121,-3.562,-3.5476,-3.4872,-3.4139,-3.3843,-3.3767,-3.3793,-3.3892,-3.4188,-3.4483,-3.4438,-3.4149,-3.4027,-3.5008,-3.4988,-3.3529,-3.411,-3.3941,-3.2793,-3.2357,-3.1773,-3.0916,-2.9965,-2.8802,-2.7484,-2.7076,-2.6998,-2.7133,-2.7432,-2.8222,-2.9488,-3.0031,-3.0644,-3.1339,-3.1584,-3.1584,-3.154,-3.1893,-3.2113,-3.1913,-3.2113,-3.2574,-3.2982,-3.3136,-3.3136,-3.3136,-3.3136,-3.3136,-3.3162,-3.3345,-3.3771,-3.4173,-3.4826,-3.5328,-3.5805,-3.6081,-3.6405,-3.6405,-3.6405,-3.6405,-3.6405,-3.6405,-3.6405,-3.6405,-3.6405,-3.6405,-3.6405,-3.6405,-3.6405,-3.6405,-3.6405,-3.631,-3.5978,-3.574,-3.5596,-3.5596,-3.5692,-3.593,-3.631,-3.6405,-3.6358,-3.6216,-3.6121,-3.5787,-3.9903,-3.9853,-3.9749,-3.9905,-3.9767,-3.8659,-3.8174,-3.8063,-3.6912,-3.6445,-3.6586,-3.6427,-3.6452,-3.6452,-3.6452,-3.6405,-3.6405,-3.6405,-3.6405,-3.6405,-3.6405,-3.6405,-3.6405,-3.6405,-3.6405,-3.6405,-3.6405,-3.6405,-3.6405,-3.6358,-3.6121,-3.5572,-3.5066,-3.458,-3.3991,-3.3568,-3.3342,-3.3419,-3.3744,-3.3991,-3.404,-3.4338,-3.4102,-3.3383,-3.3741,-3.357,-3.2581,-3.3427,-3.365,-3.3138,-3.2995,-3.2422,-3.1026,-3.0449,-2.9577,-2.8222,-2.7551,-2.7184,-2.6981,-2.709,-2.8057,-2.933,-3.0168,-3.0576,-3.0982,-3.1339,-3.1318,-3.0713,-3.0937,-3.125,-3.1761,-3.2157,-3.2636,-3.2982,-3.3136,-3.3136,-3.3136,-3.3136,-3.3136,-3.3136,-3.3212,-3.3119,-3.337,-3.4173,-3.4926,-3.5253,-3.583,-3.6355,-3.6329,-3.6329,-3.6405,-3.6304,-3.6329,-3.638,-3.638,-3.638,-3.6405,-3.6405,-3.6405,-3.6405,-3.6405,-3.6405,-3.6405,-3.6168,-3.6168,-3.6026,-3.6026,-3.6073,-3.6121,-3.6405,-3.6405,-3.6405,-3.631,-3.6216,-3.6073,-4.1018,-4.1269,-4.1295,-4.108,-4.0649,-3.9926,-3.9396,-3.8912,-3.7686,-3.7407,-3.7612,-3.6803,-3.6687,-3.6943,-3.664,-3.6405,-3.6405,-3.6405,-3.6405,-3.6405,-3.6405,-3.6405,-3.6405,-3.6405,-3.6405,-3.6405,-3.6405,-3.6405,-3.6405,-3.6405,-3.5978,-3.5163,-3.4872,-3.4335,-3.3618,-3.3369,-3.3292,-3.3342,-3.3419,-3.3519,-3.3472,-3.3319,-3.3045,-3.2718,-3.2229,-3.1949,-3.1989,-3.2611,-3.2713,-3.2204,-3.2156,-3.166,-3.089,-3.0995,-3.0347,-2.88,-2.8789,-2.8388,-2.7605,-2.7956,-2.8475,-2.9124,-2.9824,-3.0418,-3.0847,-3.1071,-3.1026,-3.0802,-3.1407,-3.1937,-3.1893,-3.2419,-3.2896,-3.3068,-3.3136,-3.3136,-3.3136,-3.3136,-3.3136,-3.3136,-3.3136,-3.3395,-3.4022,-3.4625,-3.4951,-3.5554,-3.6103,-3.6279,-3.5956,-3.6132,-3.6003,-3.5454,-3.5805,-3.6182,-3.6056,-3.6107,-3.6257,-3.638,-3.6405,-3.6405,-3.6405,-3.6405,-3.6405,-3.6405,-3.6405,-3.6405,-3.6405,-3.6405,-3.6405,-3.6405,-3.6405,-3.6405,-3.6405,-3.631,-3.6168,-4.1936,-4.1963,-4.199,-4.1705,-4.1126,-4.0582,-3.9967,-3.9336,-3.8345,-3.8115,-3.8251,-3.7612,-3.7453,-3.7658,-3.7129,-3.6803,-3.6781,-3.6546,-3.6405,-3.6405,-3.6405,-3.6405,-3.6405,-3.6405,-3.6405,-3.6405,-3.6405,-3.6405,-3.6405,-3.6358,-3.5978,-3.5211,-3.4872,-3.4384,-3.3618,-3.3369,-3.3292,-3.3292,-3.3292,-3.3292,-3.3224,-3.2948,-3.2695,-3.2397,-3.1708,-3.1366,-3.146,-3.1594,-3.1696,-3.1677,-3.1717,-3.1288,-3.0543,-3.0775,-3.0332,-2.9082,-2.8835,-2.8676,-2.7963,-2.8383,-2.8858,-2.8965,-2.9711,-3.0415,-3.0838,-3.0995,-3.116,-3.1294,-3.1893,-3.2269,-3.2157,-3.2636,-3.3068,-3.3136,-3.3136,-3.3136,-3.3136,-3.3136,-3.3136,-3.3136,-3.3136,-3.347,-3.3897,-3.46,-3.4826,-3.5429,-3.5805,-3.6006,-3.5658,-3.5855,-3.5479,-3.5278,-3.5604,-3.5755,-3.5583,-3.5805,-3.6107,-3.6257,-3.6405,-3.6405,-3.6405,-3.6405,-3.6405,-3.6405,-3.6405,-3.6405,-3.6405,-3.6405,-3.6405,-3.6405,-3.6405,-3.6405,-3.6405,-3.6405,-3.631,-4.2819,-4.2137,-4.2137,-4.195,-4.1442,-4.0823,-4.034,-3.9677,-3.8881,-3.8684,-3.8756,-3.861,-3.8504,-3.8387,-3.7854,-3.7511,-3.7361,-3.6687,-3.6405,-3.6405,-3.6405,-3.6405,-3.6405,-3.6405,-3.6405,-3.6405,-3.6405,-3.6405,-3.6405,-3.6405,-3.6121,-3.5572,-3.5066,-3.4531,-3.3991,-3.3568,-3.3392,-3.3342,-3.3292,-3.3292,-3.3292,-3.3247,-3.304,-3.2581,-3.2053,-3.1616,-3.1296,-3.079,-3.0759,-3.1472,-3.1584,-3.1168,-3.045,-3.0186,-2.9859,-2.8634,-2.8319,-2.8299,-2.8169,-2.8468,-2.8925,-2.9188,-3.0045,-3.061,-3.0854,-3.1297,-3.1584,-3.1629,-3.2113,-3.24,-3.2444,-3.281,-3.3093,-3.3136,-3.3136,-3.3136,-3.3136,-3.3136,-3.3136,-3.3136,-3.3136,-3.3187,-3.3345,-3.4173,-3.4474,-3.4625,-3.5177,-3.5629,-3.5583,-3.5633,-3.5558,-3.5533,-3.5508,-3.5633,-3.5608,-3.5881,-3.6157,-3.6304,-3.6405,-3.6405,-3.6405,-3.6405,-3.6405,-3.6405,-3.6405,-3.6405,-3.6405,-3.6405,-3.6405,-3.6405,-3.6405,-3.6405,-3.6405,-3.6405,-3.6405,-4.3974,-4.3757,-4.3757,-4.3204,-4.2339,-4.2046,-4.1602,-4.094,-3.9826,-3.9864,-4.0343,-3.969,-3.9231,-3.923,-3.8471,-3.7961,-3.7392,-3.6734,-3.6405,-3.6405,-3.6405,-3.6405,-3.6405,-3.6405,-3.6405,-3.6405,-3.6405,-3.6405,-3.6405,-3.6405,-3.6121,-3.562,-3.5428,-3.4872,-3.4089,-3.3843,-3.3618,-3.3342,-3.3292,-3.3292,-3.3292,-3.3292,-3.3224,-3.3063,-3.2558,-3.2213,-3.1961,-3.0859,-3.0442,-3.1026,-3.1116,-3.1012,-3.0691,-3.0913,-3.0292,-2.8868,-2.8662,-2.8703,-2.8496,-2.8719,-2.9196,-2.982,-3.0612,-3.1209,-3.0817,-3.136,-3.1669,-3.1805,-3.2113,-3.2444,-3.2463,-3.281,-3.3068,-3.3136,-3.3111,-3.3136,-3.3136,-3.3136,-3.3136,-3.3136,-3.3136,-3.3287,-3.3621,-3.4173,-3.4726,-3.5002,-3.5429,-3.5906,-3.5633,-3.578,-3.5805,-3.5479,-3.5429,-3.5629,-3.5805,-3.6031,-3.6254,-3.6355,-3.6405,-3.6405,-3.6405,-3.6405,-3.6405,-3.6405,-3.6405,-3.6405,-3.6405,-3.6405,-3.6405,-3.6405,-3.6405,-3.6405,-3.6405,-3.6405,-3.6405,-4.4425,-4.4425,-4.4425,-4.3694,-4.2683,-4.2851,-4.2317,-4.1275,-4.0745,-4.069,-4.0916,-4.0049,-3.9563,-3.9469,-3.8503,-3.7883,-3.7433,-3.6734,-3.6405,-3.6405,-3.6405,-3.6405,-3.6405,-3.6405,-3.6405,-3.6405,-3.6405,-3.6405,-3.6405,-3.6405,-3.6241,-3.5883,-3.5476,-3.492,-3.4384,-3.3843,-3.3568,-3.3342,-3.3292,-3.3292,-3.3292,-3.3292,-3.3292,-3.3178,-3.2764,-3.242,-3.2076,-3.1318,-3.0767,-3.0438,-3.0111,-3.0056,-3.0296,-3.0557,-3.0134,-2.8889,-2.9019,-2.9068,-2.9141,-2.918,-2.9273,-2.9782,-3.0606,-3.0912,-3.0919,-3.1326,-3.1709,-3.2307,-3.255,-3.2636,-3.2723,-3.2939,-3.2943,-3.2767,-3.2918,-3.3111,-3.3136,-3.3136,-3.3136,-3.3136,-3.3136,-3.3212,-3.3545,-3.4048,-3.4474,-3.4801,-3.5127,-3.5429,-3.5533,-3.5855,-3.5981,-3.5655,-3.5454,-3.5629,-3.5683,-3.5906,-3.6182,-3.6355,-3.6405,-3.6405,-3.6405,-3.6405,-3.6405,-3.6405,-3.6405,-3.6405,-3.6405,-3.6405,-3.6405,-3.6405,-3.6405,-3.6405,-3.6405,-3.6405,-3.6405,-4.4425,-4.4425,-4.4425,-4.3722,-4.2851,-4.316,-4.2458,-4.125,-4.1206,-4.1178,-4.0796,-4.0062,-3.971,-3.953,-3.8371,-3.7603,-3.7479,-3.6734,-3.6452,-3.6405,-3.6405,-3.6405,-3.6405,-3.6405,-3.6405,-3.6405,-3.6405,-3.6405,-3.6405,-3.6405,-3.6405,-3.6168,-3.5452,-3.4969,-3.4628,-3.3965,-3.3492,-3.3342,-3.3292,-3.3292,-3.3292,-3.3292,-3.3292,-3.3224,-3.2925,-3.2351,-3.2032,-3.1664,-3.1181,-2.9734,-2.9206,-2.9387,-2.9662,-2.9572,-2.9396,-2.9278,-2.9035,-2.9194,-2.9851,-2.9509,-2.9479,-2.9946,-3.0276,-3.0465,-3.1045,-3.143,-3.192,-3.2871,-3.3068,-3.3025,-3.3025,-3.3068,-3.2968,-3.2767,-3.2968,-3.3086,-3.3187,-3.3162,-3.3136,-3.3136,-3.3136,-3.3136,-3.3262,-3.352,-3.3947,-3.4374,-3.4826,-3.5307,-3.5558,-3.5855,-3.5931,-3.583,-3.573,-3.5633,-3.5658,-3.5683,-3.6031,-3.6304,-3.638,-3.6405,-3.6405,-3.6405,-3.6405,-3.6405,-3.6405,-3.6405,-3.6405,-3.6405,-3.6405,-3.6405,-3.6405,-3.6405,-3.6405,-3.6405,-3.6405,-4.4425,-4.4425,-4.4425,-4.3975,-4.3301,-4.2981,-4.2542,-4.2064,-4.1221,-4.1066,-4.1131,-4.0614,-3.9957,-3.9486,-3.8484,-3.7987,-3.7387,-3.6734,-3.6405,-3.6405,-3.6405,-3.6405,-3.6405,-3.6405,-3.6405,-3.6405,-3.6405,-3.6405,-3.6405,-3.6405,-3.6405,-3.631,-3.6026,-3.5596,-3.4823,-3.4482,-3.4064,-3.3469,-3.3292,-3.3292,-3.3292,-3.3292,-3.3292,-3.3269,-3.3155,-3.265,-3.2009,-3.1825,-3.141,-3.0859,-3.0537,-3.0308,-3.0169,-3.0053,-2.9713,-2.915,-2.8858,-2.9105,-2.9738,-2.9966,-3.0283,-3.1255,-3.1161,-3.153,-3.1896,-3.1638,-3.2049,-3.2857,-3.3136,-3.3111,-3.3061,-3.3111,-3.3169,-3.3269,-3.3244,-3.3363,-3.3545,-3.3388,-3.3212,-3.3136,-3.3162,-3.3136,-3.3162,-3.352,-3.3822,-3.3997,-3.455,-3.5232,-3.5608,-3.5906,-3.5981,-3.6006,-3.6031,-3.5981,-3.5981,-3.5981,-3.6107,-3.6329,-3.638,-3.6405,-3.6405,-3.6405,-3.6405,-3.6405,-3.6405,-3.6405,-3.6405,-3.6405,-3.6405,-3.6405,-3.6405,-3.6405,-3.6405,-3.6405,-3.6405,-4.4425,-4.4425,-4.4425,-4.3891,-4.3132,-4.2992,-4.2514,-4.1711,-4.0984,-4.063,-4.0393,-3.9591,-3.8906,-3.8575,-3.7831,-3.7245,-3.6973,-3.664,-3.6405,-3.6405,-3.6405,-3.6405,-3.6405,-3.6405,-3.6405,-3.6405,-3.6405,-3.6405,-3.6405,-3.6405,-3.6405,-3.6358,-3.6168,-3.5548,-3.4872,-3.458,-3.3991,-3.3419,-3.3292,-3.3292,-3.3292,-3.3292,-3.3292,-3.3292,-3.3269,-3.2971,-3.2558,-3.2538,-3.2213,-3.18,-3.1479,-3.1249,-3.095,-3.0721,-3.0354,-3.01,-2.9637,-2.9913,-3.0511,-3.0328,-3.0375,-3.1597,-3.1279,-3.1288,-3.1544,-3.1558,-3.1945,-3.2574,-3.2914,-3.3036,-3.2767,-3.3294,-3.352,-3.352,-3.3746,-3.3972,-3.4123,-3.3796,-3.3345,-3.3244,-3.3363,-3.3312,-3.337,-3.352,-3.3922,-3.4173,-3.4474,-3.5132,-3.5956,-3.6182,-3.6279,-3.6304,-3.6355,-3.6355,-3.6355,-3.6329,-3.6304,-3.638,-3.6405,-3.6405,-3.6405,-3.6405,-3.6405,-3.6405,-3.6405,-3.6405,-3.6405,-3.6405,-3.6405,-3.6405,-3.6405,-3.6405,-3.6405,-3.6405,-3.6405,-4.4425,-4.4425,-4.4425,-4.3807,-4.2992,-4.3188,-4.2486,-4.1191,-4.0504,-4.009,-3.9407,-3.8115,-3.7782,-3.7433,-3.6828,-3.6477,-3.6405,-3.6452,-3.6405,-3.6405,-3.6405,-3.6405,-3.6405,-3.6405,-3.6405,-3.6405,-3.6405,-3.6405,-3.6405,-3.6405,-3.6405,-3.631,-3.5978,-3.5548,-3.4969,-3.4384,-3.3991,-3.3568,-3.3369,-3.3292,-3.3292,-3.3292,-3.3292,-3.3292,-3.3292,-3.3269,-3.3132,-3.3132,-3.3017,-3.2627,-3.219,-3.203,-3.1846,-3.1364,-3.1295,-3.1661,-3.1044,-3.1117,-3.1424,-3.1052,-3.0776,-3.1272,-3.0788,-3.0802,-3.1284,-3.1584,-3.2021,-3.2611,-3.314,-3.3319,-3.2767,-3.3445,-3.3796,-3.3796,-3.4349,-3.4675,-3.4705,-3.4399,-3.3997,-3.342,-3.352,-3.3545,-3.3345,-3.3388,-3.3872,-3.4374,-3.4675,-3.5077,-3.5855,-3.6405,-3.6405,-3.6405,-3.6405,-3.6405,-3.6405,-3.6405,-3.6405,-3.6405,-3.6405,-3.6405,-3.6405,-3.6405,-3.6405,-3.6405,-3.6405,-3.6405,-3.6405,-3.6405,-3.6405,-3.6405,-3.6405,-3.6405,-3.6405,-3.6405,-3.6405,-4.4425,-4.4425,-4.4425,-4.4284,-4.3975,-4.316,-4.257,-4.2032,-4.0432,-3.97,-3.9397,-3.8141,-3.7453,-3.7268,-3.6734,-3.6405,-3.6355,-3.638,-3.638,-3.638,-3.638,-3.6405,-3.6405,-3.6405,-3.6405,-3.6405,-3.6405,-3.6405,-3.6405,-3.6405,-3.6405,-3.6358,-3.6263,-3.593,-3.5428,-3.492,-3.4384,-3.3843,-3.3519,-3.3392,-3.3292,-3.3292,-3.3292,-3.3292,-3.3292,-3.3292,-3.3292,-3.3292,-3.3247,-3.3155,-3.3063,-3.2994,-3.2695,-3.1754,-3.1639,-3.205,-3.1931,-3.1931,-3.2234,-3.2185,-3.2319,-3.2535,-3.1989,-3.1901,-3.2277,-3.218,-3.2349,-3.3293,-3.3966,-3.4324,-3.4279,-3.4379,-3.4705,-3.4856,-3.4901,-3.5002,-3.5232,-3.5182,-3.4756,-3.4073,-3.3947,-3.3847,-3.3696,-3.3646,-3.4098,-3.46,-3.4931,-3.5253,-3.5805,-3.6254,-3.6405,-3.6405,-3.6405,-3.6405,-3.6405,-3.6405,-3.6405,-3.6405,-3.6405,-3.6405,-3.6405,-3.6405,-3.6405,-3.6405,-3.6405,-3.6405,-3.6405,-3.6405,-3.6405,-3.6405,-3.6405,-3.6405,-3.6405,-3.6405,-3.6405,-4.4425,-4.4425,-4.4425,-4.4228,-4.3863,-4.3329,-4.2654,-4.1903,-4.0285,-3.9357,-3.8666,-3.7638,-3.6922,-3.6875,-3.6593,-3.6279,-3.6103,-3.6304,-3.6182,-3.6056,-3.6254,-3.6405,-3.6405,-3.6405,-3.6405,-3.6405,-3.6405,-3.6405,-3.6405,-3.6405,-3.6405,-3.6405,-3.6405,-3.6121,-3.5716,-3.5332,-3.4726,-3.4188,-3.3744,-3.3519,-3.3342,-3.3292,-3.3292,-3.3292,-3.3292,-3.3292,-3.3292,-3.3292,-3.3292,-3.3224,-3.3017,-3.3063,-3.2902,-3.2535,-3.2099,-3.2673,-3.2699,-3.2653,-3.2856,-3.2902,-3.3017,-3.3109,-3.2558,-3.2379,-3.2574,-3.2512,-3.272,-3.3671,-3.4363,-3.468,-3.463,-3.4977,-3.5232,-3.5433,-3.5504,-3.568,-3.5855,-3.5931,-3.5454,-3.4826,-3.4826,-3.465,-3.4223,-3.4274,-3.4474,-3.4826,-3.5207,-3.5554,-3.5855,-3.6107,-3.6405,-3.6405,-3.6405,-3.6405,-3.6405,-3.6405,-3.6405,-3.6405,-3.6405,-3.6405,-3.6405,-3.6405,-3.6405,-3.6405,-3.6405,-3.6405,-3.6405,-3.6405,-3.6405,-3.6405,-3.6405,-3.6405,-3.6405,-3.6405,-3.6405,-4.4425,-4.4425,-4.4425,-4.4144,-4.3722,-4.3526,-4.2935,-4.1798,-4.0377,-3.95,-3.8754,-3.7598,-3.6943,-3.6824,-3.6697,-3.6349,-3.581,-3.6286,-3.6092,-3.578,-3.6132,-3.6405,-3.6405,-3.6405,-3.6405,-3.6405,-3.6405,-3.6405,-3.6405,-3.6405,-3.6405,-3.6405,-3.6405,-3.6216,-3.586,-3.562,-3.4969,-3.4433,-3.404,-3.3767,-3.3419,-3.3292,-3.3292,-3.3292,-3.3292,-3.3292,-3.3292,-3.3292,-3.3292,-3.3178,-3.2994,-3.2856,-3.3132,-3.2879,-3.2856,-3.3201,-3.3269,-3.3292,-3.3269,-3.3247,-3.3224,-3.3247,-3.2902,-3.2718,-3.275,-3.293,-3.322,-3.3969,-3.4598,-3.504,-3.5232,-3.5454,-3.5633,-3.5805,-3.6107,-3.638,-3.6329,-3.6279,-3.6107,-3.5755,-3.5755,-3.5282,-3.4726,-3.4756,-3.4977,-3.5177,-3.5533,-3.5855,-3.6132,-3.6207,-3.6405,-3.6405,-3.6405,-3.6405,-3.6405,-3.6405,-3.6405,-3.6405,-3.6405,-3.6405,-3.6405,-3.6405,-3.6405,-3.6405,-3.6405,-3.6405,-3.6405,-3.6405,-3.6405,-3.6405,-3.6405,-3.6405,-3.6405,-3.6405,-3.6405,-4.4425,-4.4425,-4.4425,-4.4369,-4.42,-4.375,-4.3441,-4.3013,-4.1168,-4.0377,-4.0006,-3.8826,-3.8088,-3.7957,-3.7561,-3.7037,-3.6554,-3.6359,-3.6111,-3.5575,-3.6056,-3.6405,-3.6405,-3.6405,-3.6405,-3.6405,-3.6405,-3.6405,-3.6405,-3.6405,-3.6405,-3.6405,-3.6405,-3.6358,-3.6168,-3.5908,-3.5284,-3.4726,-3.4237,-3.3767,-3.3392,-3.3292,-3.3292,-3.3292,-3.3292,-3.3292,-3.3292,-3.3292,-3.3292,-3.3269,-3.3224,-3.3201,-3.3269,-3.3247,-3.3201,-3.3269,-3.3292,-3.3292,-3.3292,-3.3292,-3.3292,-3.3292,-3.3155,-3.3178,-3.3212,-3.3461,-3.3931,-3.4583,-3.5111,-3.5513,-3.5769,-3.611,-3.6257,-3.6207,-3.6257,-3.6358,-3.6358,-3.6405,-3.6279,-3.6279,-3.6056,-3.5579,-3.5027,-3.5253,-3.5433,-3.568,-3.5906,-3.6157,-3.638,-3.6405,-3.6405,-3.6405,-3.6405,-3.6405,-3.6405,-3.6405,-3.6405,-3.6405,-3.6405,-3.6405,-3.6405,-3.6405,-3.6405,-3.6405,-3.6405,-3.6405,-3.6405,-3.6405,-3.6405,-3.6405,-3.6405,-3.6405,-3.6405,-3.6405,-3.6405,-4.463,-4.4425,-4.4425,-4.4425,-4.4397,-4.4116,-4.3807,-4.322,-4.1791,-4.0868,-4.0277,-3.9078,-3.8336,-3.806,-3.7679,-3.6832,-3.6015,-3.6218,-3.5941,-3.542,-3.5927,-3.6405,-3.6405,-3.6405,-3.6405,-3.6405,-3.6405,-3.6405,-3.6405,-3.6405,-3.6405,-3.6405,-3.6405,-3.6405,-3.6405,-3.6193,-3.5764,-3.5163,-3.4482,-3.3767,-3.3419,-3.3292,-3.3292,-3.3292,-3.3292,-3.3292,-3.3292,-3.3292,-3.3292,-3.3292,-3.3292,-3.3292,-3.3292,-3.3269,-3.3292,-3.3292,-3.3292,-3.3292,-3.3292,-3.3292,-3.3292,-3.3292,-3.3292,-3.3269,-3.3369,-3.3717,-3.404,-3.4311,-3.4823,-3.5356,-3.5787,-3.5955,-3.5955,-3.6003,-3.6168,-3.6121,-3.6146,-3.6358,-3.638,-3.6405,-3.638,-3.5927,-3.5554,-3.573,-3.5906,-3.5981,-3.6107,-3.6279,-3.6405,-3.6405,-3.6405,-3.6405,-3.6405,-3.6405,-3.6405,-3.6405,-3.6405,-3.6405,-3.6405,-3.6405,-3.6405,-3.6405,-3.6405,-3.6405,-3.6405,-3.6405,-3.6405,-3.6455,-3.6505,-3.648,-3.6405,-3.648,-3.6531,-3.6405,-3.6405,-4.5,-4.4583,-4.4443,-4.4425,-4.4425,-4.4425,-4.4144,-4.3602,-4.2546,-4.1635,-4.0738,-3.9543,-3.859,-3.8141,-3.7817,-3.6941,-3.5578,-3.6105,-3.5756,-3.5511,-3.5697,-3.6204,-3.6355,-3.6405,-3.6405,-3.6405,-3.6405,-3.6405,-3.6405,-3.6405,-3.6405,-3.6405,-3.6405,-3.6405,-3.6405,-3.631,-3.6026,-3.5211,-3.4433,-3.3793,-3.3369,-3.3292,-3.3292,-3.3292,-3.3292,-3.3292,-3.3292,-3.3292,-3.3292,-3.3292,-3.3292,-3.3292,-3.3292,-3.3292,-3.3292,-3.3292,-3.3292,-3.3292,-3.3292,-3.3292,-3.3292,-3.3292,-3.3292,-3.3292,-3.3342,-3.3668,-3.3941,-3.404,-3.4335,-3.4823,-3.5259,-3.5404,-3.5428,-3.5572,-3.586,-3.5764,-3.5812,-3.6121,-3.6358,-3.6405,-3.6405,-3.6405,-3.6204,-3.6304,-3.638,-3.638,-3.6405,-3.6405,-3.6405,-3.6405,-3.6405,-3.6405,-3.6405,-3.6405,-3.6405,-3.6405,-3.6405,-3.6405,-3.6405,-3.6405,-3.6405,-3.6405,-3.6405,-3.6405,-3.6405,-3.6405,-3.6405,-3.6505,-3.6631,-3.6732,-3.6782,-3.6707,-3.6656,-3.6531,-3.6405,-4.5475,-4.5018,-4.4583,-4.4425,-4.4425,-4.4425,-4.4397,-4.4228,-4.3546,-4.2828,-4.1859,-4.06,-3.9633,-3.9229,-3.8297,-3.7455,-3.6661,-3.6186,-3.5852,-3.5641,-3.5649,-3.6003,-3.6279,-3.6405,-3.6405,-3.6405,-3.6405,-3.6405,-3.6405,-3.6405,-3.6405,-3.6405,-3.6405,-3.6405,-3.6405,-3.6358,-3.593,-3.5163,-3.4433,-3.3845,-3.3472,-3.3296,-3.3247,-3.3247,-3.3269,-3.3292,-3.3292,-3.3292,-3.3292,-3.3292,-3.3292,-3.3292,-3.3292,-3.3292,-3.3292,-3.3292,-3.3292,-3.3292,-3.3292,-3.3292,-3.3292,-3.3292,-3.3292,-3.3292,-3.3292,-3.3292,-3.3519,-3.3843,-3.3991,-3.4286,-3.4677,-3.4872,-3.4872,-3.5017,-3.5259,-3.5476,-3.562,-3.5978,-3.6216,-3.6358,-3.643,-3.6408,-3.6416,-3.6418,-3.6433,-3.6408,-3.6405,-3.6405,-3.6405,-3.6405,-3.6405,-3.6405,-3.6405,-3.6405,-3.6405,-3.6405,-3.6405,-3.6405,-3.6405,-3.6405,-3.6405,-3.6405,-3.6405,-3.6405,-3.6405,-3.6405,-3.6531,-3.6857,-3.7036,-3.7159,-3.7159,-3.7109,-3.6958,-3.6782,-3.6581,-4.5821,-4.5064,-4.4908,-4.4676,-4.4425,-4.4425,-4.4425,-4.4312,-4.375,-4.2654,-4.1418,-4.0631,-3.9704,-3.8861,-3.868,-3.7634,-3.6479,-3.6465,-3.6053,-3.5865,-3.5873,-3.6179,-3.6405,-3.6405,-3.6405,-3.6405,-3.6405,-3.6405,-3.6405,-3.6405,-3.6405,-3.6405,-3.6405,-3.6405,-3.6405,-3.6358,-3.593,-3.538,-3.4702,-3.4142,-3.342,-3.3258,-3.3132,-3.281,-3.3201,-3.3269,-3.3292,-3.3292,-3.3292,-3.3292,-3.3292,-3.3292,-3.3292,-3.3292,-3.3292,-3.3292,-3.3292,-3.3292,-3.3292,-3.3292,-3.3292,-3.3292,-3.3292,-3.3292,-3.3292,-3.3292,-3.3319,-3.3519,-3.3618,-3.3866,-3.4188,-3.4335,-3.4335,-3.4433,-3.4677,-3.5017,-3.5307,-3.5644,-3.6073,-3.6168,-3.6316,-3.6438,-3.6399,-3.6404,-3.642,-3.6411,-3.6408,-3.643,-3.648,-3.643,-3.6405,-3.6405,-3.6405,-3.6405,-3.6405,-3.6405,-3.6405,-3.6405,-3.6405,-3.6405,-3.6405,-3.6405,-3.6405,-3.6405,-3.643,-3.6455,-3.6707,-3.7236,-3.7362,-3.7086,-3.7262,-3.7513,-3.7312,-3.7036,-3.681,-4.609,-4.5338,-4.5155,-4.4815,-4.4425,-4.4425,-4.4425,-4.4312,-4.3778,-4.2458,-4.0716,-4.0491,-3.9507,-3.844,-3.8524,-3.8142,-3.696,-3.6668,-3.6472,-3.6296,-3.6202,-3.6301,-3.6355,-3.6405,-3.6405,-3.6405,-3.6405,-3.6405,-3.6405,-3.6405,-3.6405,-3.6405,-3.6405,-3.6405,-3.6405,-3.6358,-3.6073,-3.5428,-3.5163,-3.4385,-3.3492,-3.3472,-3.3269,-3.2902,-3.3155,-3.3269,-3.3292,-3.3292,-3.3292,-3.3292,-3.3292,-3.3292,-3.3292,-3.3292,-3.3292,-3.3292,-3.3292,-3.3292,-3.3292,-3.3292,-3.3292,-3.3292,-3.3292,-3.3292,-3.3292,-3.3292,-3.3342,-3.3342,-3.3342,-3.3419,-3.3793,-3.3817,-3.3817,-3.3892,-3.4286,-3.458,-3.4726,-3.5017,-3.5548,-3.593,-3.603,-3.601,-3.6818,-3.6873,-3.68,-3.6819,-3.6812,-3.6784,-3.6757,-3.6631,-3.6405,-3.6405,-3.6405,-3.6405,-3.6405,-3.6405,-3.6405,-3.6405,-3.6405,-3.6405,-3.6405,-3.6405,-3.6405,-3.6405,-3.6455,-3.6505,-3.6787,-3.7266,-3.7139,-3.686,-3.719,-3.7592,-3.764,-3.7316,-3.7064,-4.6314,-4.5747,-4.5338,-4.4862,-4.4472,-4.4425,-4.4397,-4.4228,-4.3582,-4.2345,-4.0744,-4.0182,-3.9255,-3.8355,-3.868,-3.8255,-3.7566,-3.6983,-3.6823,-3.6831,-3.6222,-3.6053,-3.6254,-3.6405,-3.6405,-3.6405,-3.6405,-3.6405,-3.6405,-3.6405,-3.6405,-3.6405,-3.6405,-3.6405,-3.6405,-3.643,-3.586,-3.5066,-3.5426,-3.4712,-3.3877,-3.383,-3.3683,-3.3407,-3.3453,-3.3591,-3.3591,-3.3453,-3.3453,-3.343,-3.343,-3.3384,-3.3292,-3.3361,-3.3361,-3.3292,-3.3292,-3.3292,-3.3292,-3.3292,-3.3292,-3.3292,-3.3292,-3.3292,-3.3292,-3.3292,-3.3292,-3.3292,-3.3292,-3.3292,-3.3319,-3.3369,-3.3369,-3.3519,-3.3892,-3.4233,-3.4454,-3.4672,-3.5235,-3.6014,-3.56,-3.5454,-3.6701,-3.7417,-3.7345,-3.7295,-3.7193,-3.7089,-3.696,-3.6757,-3.6455,-3.6405,-3.643,-3.6581,-3.6581,-3.6455,-3.6405,-3.643,-3.6405,-3.6405,-3.6405,-3.6405,-3.6405,-3.6405,-3.6455,-3.6531,-3.6818,-3.722,-3.7219,-3.7268,-3.7246,-3.7443,-3.7618,-3.7667,-3.7369,-4.6756,-4.6314,-4.618,-4.564,-4.4908,-4.449,-4.42,-4.3666,-4.2711,-4.1671,-4.0828,-4.0435,-3.9704,-3.8975,-3.8658,-3.8488,-3.7714,-3.6963,-3.6779,-3.6724,-3.6218,-3.6251,-3.638,-3.6405,-3.6405,-3.6405,-3.6405,-3.6405,-3.6405,-3.6405,-3.6405,-3.6405,-3.6405,-3.6405,-3.6531,-3.6659,-3.6525,-3.6015,-3.5935,-3.5554,-3.4447,-3.4416,-3.4303,-3.3821,-3.405,-3.4188,-3.4142,-3.3912,-3.3775,-3.3775,-3.3775,-3.366,-3.3522,-3.3545,-3.3591,-3.3407,-3.3315,-3.3292,-3.3292,-3.3292,-3.3292,-3.3292,-3.3338,-3.3338,-3.3292,-3.3292,-3.3292,-3.3315,-3.3361,-3.3361,-3.3292,-3.3342,-3.3342,-3.3342,-3.3638,-3.4073,-3.4366,-3.4657,-3.5125,-3.6007,-3.6156,-3.6174,-3.6965,-3.7467,-3.7489,-3.7392,-3.7271,-3.6967,-3.6787,-3.6634,-3.643,-3.643,-3.6455,-3.6656,-3.6709,-3.6759,-3.6782,-3.6807,-3.6631,-3.6405,-3.6405,-3.6405,-3.6405,-3.6405,-3.648,-3.6558,-3.7042,-3.7469,-3.7767,-3.784,-3.7761,-3.7987,-3.8341,-3.8241,-3.7816,-4.7048,-4.6653,-4.6609,-4.6135,-4.5338,-4.5046,-4.4447,-4.3585,-4.2463,-4.1502,-4.0828,-4.0688,-4.0013,-3.9242,-3.9186,-3.8781,-3.8004,-3.7482,-3.6962,-3.6803,-3.6474,-3.6427,-3.6405,-3.6405,-3.6405,-3.6405,-3.6405,-3.6405,-3.6405,-3.6405,-3.6405,-3.6405,-3.643,-3.6556,-3.6684,-3.6818,-3.6702,-3.6329,-3.6237,-3.577,-3.5095,-3.4855,-3.4785,-3.4509,-3.4532,-3.4762,-3.4693,-3.4509,-3.428,-3.428,-3.4234,-3.4142,-3.3981,-3.3843,-3.3981,-3.3821,-3.3821,-3.3752,-3.3637,-3.3843,-3.3821,-3.3591,-3.3545,-3.3545,-3.3614,-3.3798,-3.3866,-3.3843,-3.3637,-3.3683,-3.3729,-3.3706,-3.3591,-3.3614,-3.3922,-3.4333,-3.4477,-3.482,-3.5118,-3.5982,-3.6275,-3.6562,-3.7056,-3.7342,-3.7599,-3.7435,-3.7293,-3.6997,-3.6766,-3.6712,-3.6709,-3.6832,-3.6933,-3.7161,-3.7287,-3.7262,-3.7236,-3.7235,-3.6983,-3.6707,-3.6405,-3.6405,-3.6405,-3.648,-3.6732,-3.7036,-3.7442,-3.7817,-3.8264,-3.8434,-3.8349,-3.8632,-3.9068,-3.8714,-3.8132,-4.7048,-4.6653,-4.658,-4.6284,-4.5882,-4.5747,-4.5129,-4.4093,-4.3065,-4.1912,-4.0828,-4.0912,-4.0435,-3.9592,-4.0181,-3.9806,-3.8711,-3.8399,-3.7736,-3.7268,-3.664,-3.6499,-3.6405,-3.6405,-3.6405,-3.6405,-3.6405,-3.6405,-3.6405,-3.6405,-3.6405,-3.6405,-3.6405,-3.6732,-3.6939,-3.6898,-3.6676,-3.6587,-3.6633,-3.6109,-3.5468,-3.5366,-3.529,-3.5106,-3.5083,-3.5106,-3.5037,-3.49,-3.4831,-3.4808,-3.4808,-3.4785,-3.4624,-3.4303,-3.4463,-3.4578,-3.467,-3.4303,-3.4165,-3.4418,-3.4372,-3.4073,-3.4119,-3.4073,-3.4119,-3.4326,-3.4418,-3.4372,-3.4234,-3.4418,-3.4532,-3.4372,-3.4211,-3.4372,-3.4578,-3.4745,-3.4814,-3.504,-3.5242,-3.5567,-3.5585,-3.5952,-3.6863,-3.7324,-3.7645,-3.7375,-3.7311,-3.7567,-3.7319,-3.724,-3.7313,-3.7588,-3.7688,-3.7864,-3.7889,-3.7814,-3.7789,-3.7813,-3.7437,-3.7136,-3.6832,-3.6656,-3.6857,-3.701,-3.7136,-3.7415,-3.7742,-3.8339,-3.8988,-3.9005,-3.862,-3.8904,-3.9243,-3.8723,-3.8289,-4.7222,-4.7032,-4.6586,-4.6385,-4.6329,-4.5972,-4.5219,-4.4138,-4.3405,-4.2688,-4.2036,-4.2036,-4.1615,-4.1559,-4.0863,-4.0066,-3.9204,-3.8273,-3.7407,-3.6875,-3.6593,-3.6452,-3.6405,-3.6405,-3.6405,-3.6405,-3.6405,-3.6405,-3.6405,-3.6405,-3.6405,-3.6405,-3.6405,-3.6933,-3.7266,-3.7221,-3.7065,-3.7043,-3.7259,-3.6596,-3.6063,-3.591,-3.5841,-3.5749,-3.5703,-3.5703,-3.568,-3.5428,-3.5359,-3.5313,-3.5313,-3.5221,-3.4762,-3.4923,-3.5152,-3.4716,-3.4509,-3.4257,-3.4463,-3.4372,-3.4372,-3.467,-3.4854,-3.4808,-3.4762,-3.4762,-3.4923,-3.4877,-3.4762,-3.4854,-3.4923,-3.4831,-3.4762,-3.4923,-3.5083,-3.5152,-3.5221,-3.5389,-3.5594,-3.5809,-3.5802,-3.6461,-3.7249,-3.7532,-3.7748,-3.7397,-3.7378,-3.7738,-3.7941,-3.7866,-3.7965,-3.8241,-3.8316,-3.8417,-3.8391,-3.8291,-3.8341,-3.8291,-3.799,-3.7713,-3.7513,-3.7412,-3.7487,-3.7613,-3.7814,-3.7867,-3.7935,-3.8582,-3.929,-3.8879,-3.857,-3.9007,-3.9185,-3.8767,-3.8684,-4.7309,-4.7249,-4.689,-4.6778,-4.6814,-4.6535,-4.5917,-4.5065,-4.4059,-4.3446,-4.3223,-4.2744,-4.243,-4.1992,-4.123,-4.0464,-3.9447,-3.8546,-3.7612,-3.7083,-3.6572,-3.6452,-3.6405,-3.643,-3.6405,-3.6405,-3.6405,-3.6405,-3.6405,-3.6405,-3.6405,-3.6405,-3.6405,-3.7084,-3.7565,-3.7717,-3.7738,-3.7688,-3.7623,-3.7096,-3.6712,-3.6332,-3.6277,-3.6277,-3.6277,-3.6332,-3.6254,-3.5887,-3.5841,-3.5818,-3.5818,-3.5703,-3.5428,-3.5657,-3.5566,-3.5221,-3.5198,-3.5037,-3.5106,-3.5106,-3.5037,-3.5152,-3.552,-3.5588,-3.5543,-3.5497,-3.552,-3.5474,-3.5267,-3.5152,-3.5198,-3.5244,-3.5313,-3.5405,-3.5474,-3.5543,-3.5657,-3.5795,-3.6064,-3.6325,-3.6804,-3.737,-3.781,-3.7941,-3.8155,-3.8304,-3.8382,-3.8463,-3.8566,-3.8517,-3.8642,-3.8919,-3.8894,-3.8919,-3.8843,-3.8793,-3.8793,-3.8743,-3.8517,-3.8291,-3.8165,-3.804,-3.7965,-3.8216,-3.8567,-3.8615,-3.8584,-3.8888,-3.9318,-3.8985,-3.8879,-3.9237,-3.9339,-3.9025,-3.905,-4.7309,-4.7309,-4.7309,-4.7176,-4.7219,-4.7163,-4.6931,-4.6477,-4.502,-4.4371,-4.4167,-4.3307,-4.2648,-4.2394,-4.1948,-4.1002,-4.0049,-3.9078,-3.8306,-3.7577,-3.7075,-3.6796,-3.6581,-3.648,-3.6531,-3.648,-3.6405,-3.6405,-3.6405,-3.6405,-3.6405,-3.643,-3.6531,-3.7036,-3.7815,-3.8116,-3.8189,-3.8338,-3.7902,-3.7304,-3.6766,-3.644,-3.6386,-3.6332,-3.6332,-3.6386,-3.6332,-3.6254,-3.6254,-3.6309,-3.6286,-3.6185,-3.6162,-3.614,-3.591,-3.5749,-3.5703,-3.568,-3.5611,-3.5634,-3.568,-3.5795,-3.6002,-3.6071,-3.6002,-3.5956,-3.5933,-3.5941,-3.5726,-3.5841,-3.594,-3.581,-3.578,-3.5926,-3.6048,-3.6041,-3.5979,-3.6179,-3.6387,-3.6742,-3.7281,-3.7868,-3.8243,-3.8344,-3.8578,-3.9088,-3.9242,-3.9194,-3.9017,-3.8942,-3.9144,-3.9345,-3.9346,-3.9295,-3.9371,-3.932,-3.9245,-3.917,-3.8969,-3.8868,-3.8718,-3.8542,-3.8366,-3.8718,-3.9094,-3.9245,-3.9343,-3.9496,-3.9521,-3.9469,-3.9467,-3.962,-3.949,-3.9206,-3.9258,-4.7309,-4.7309,-4.7309,-4.704,-4.6608,-4.71,-4.7048,-4.658,-4.6211,-4.5783,-4.5351,-4.4772,-4.4044,-4.3345,-4.2975,-4.192,-4.0464,-3.9761,-3.9181,-3.8443,-3.7835,-3.7435,-3.7129,-3.7056,-3.6807,-3.6505,-3.6405,-3.6405,-3.643,-3.643,-3.6455,-3.6505,-3.6782,-3.7412,-3.8065,-3.8366,-3.8639,-3.8844,-3.8579,-3.7838,-3.7143,-3.7251,-3.7358,-3.685,-3.658,-3.6712,-3.658,-3.6363,-3.6309,-3.6254,-3.6254,-3.6254,-3.6254,-3.6309,-3.6263,-3.6094,-3.591,-3.591,-3.5956,-3.5956,-3.5887,-3.6071,-3.6185,-3.6231,-3.6254,-3.6254,-3.6254,-3.6208,-3.6317,-3.648,-3.6565,-3.6333,-3.6233,-3.6457,-3.6549,-3.644,-3.6309,-3.6526,-3.6742,-3.7173,-3.7708,-3.8161,-3.853,-3.8819,-3.908,-3.9287,-3.9519,-3.9443,-3.9109,-3.8983,-3.9267,-3.9469,-3.9545,-3.9545,-3.9697,-3.9672,-3.9521,-3.9521,-3.9396,-3.9295,-3.922,-3.912,-3.9019,-3.927,-3.9572,-3.9597,-3.9597,-3.9622,-3.9672,-3.9697,-3.9697,-3.9697,-3.9697,-3.949,-3.9542,-4.7309,-4.7309,-4.7309,-4.71,-4.686,-4.716,-4.7135,-4.6961,-4.6887,-4.6756,-4.6329,-4.5689,-4.485,-4.3954,-4.3527,-4.2458,-4.0819,-4.0244,-3.9861,-3.9341,-3.8694,-3.8299,-3.7993,-3.7781,-3.7235,-3.6883,-3.6531,-3.643,-3.6505,-3.6707,-3.6832,-3.6883,-3.7287,-3.7814,-3.8341,-3.8768,-3.9017,-3.9181,-3.9154,-3.8684,-3.7838,-3.7892,-3.7838,-3.7281,-3.7227,-3.7227,-3.7227,-3.7066,-3.7066,-3.7066,-3.712,-3.685,-3.6796,-3.6712,-3.6549,-3.6317,-3.6071,-3.5979,-3.6148,-3.6179,-3.6064,-3.6271,-3.6332,-3.6332,-3.6254,-3.6254,-3.6254,-3.6231,-3.6231,-3.6394,-3.6665,-3.6565,-3.6888,-3.715,-3.6766,-3.644,-3.6688,-3.712,-3.712,-3.712,-3.7708,-3.8291,-3.8659,-3.9077,-3.9285,-3.944,-3.9672,-3.962,-3.931,-3.8945,-3.9258,-3.9413,-3.9465,-3.9594,-3.9697,-3.9697,-3.9672,-3.9672,-3.9697,-3.9597,-3.9471,-3.9572,-3.9672,-3.9672,-3.9672,-3.9672,-3.9697,-3.9697,-3.9697,-3.9697,-3.9697,-3.9697,-3.9697,-3.9697,-3.9697,-4.7309,-4.7309,-4.7309,-4.7309,-4.7309,-4.7309,-4.7266,-4.7179,-4.7266,-4.7222,-4.6975,-4.6195,-4.4949,-4.4064,-4.325,-4.2149,-4.1321,-4.0935,-4.0591,-4.0196,-3.9535,-3.9264,-3.8968,-3.8656,-3.8007,-3.7434,-3.696,-3.6857,-3.6832,-3.7061,-3.7312,-3.7412,-3.7814,-3.8366,-3.8743,-3.9019,-3.9244,-3.9494,-3.9542,-3.9387,-3.8893,-3.8473,-3.8185,-3.808,-3.8027,-3.808,-3.8027,-3.7974,-3.7974,-3.7921,-3.7814,-3.7548,-3.7281,-3.7089,-3.6958,-3.6719,-3.6557,-3.6534,-3.6634,-3.6719,-3.6642,-3.6603,-3.6495,-3.644,-3.6417,-3.6309,-3.6332,-3.6309,-3.6309,-3.6417,-3.6712,-3.6928,-3.7281,-3.7495,-3.6958,-3.6657,-3.7173,-3.7655,-3.7495,-3.7358,-3.7892,-3.8473,-3.8893,-3.931,-3.949,-3.9645,-3.9697,-3.9645,-3.9542,-3.9206,-3.9154,-3.9154,-3.9154,-3.931,-3.9645,-3.9697,-3.9697,-3.9697,-3.9697,-3.9697,-3.9697,-3.9697,-3.9697,-3.9697,-3.9697,-3.9697,-3.9697,-3.9697,-3.9697,-3.9697,-3.9697,-3.9697,-3.9697,-3.9697,-3.9697,-4.7309,-4.7309,-4.7309,-4.7309,-4.7309,-4.7309,-4.7092,-4.6829,-4.7179,-4.7092,-4.68,-4.6565,-4.5889,-4.5098,-4.3889,-4.285,-4.2108,-4.1739,-4.1467,-4.1123,-4.1051,-4.0617,-4.005,-3.9558,-3.8885,-3.8185,-3.7638,-3.7663,-3.7437,-3.7663,-3.7864,-3.7889,-3.8466,-3.8768,-3.8894,-3.9195,-3.9521,-3.9697,-3.9697,-3.9594,-3.9594,-3.9154,-3.8788,-3.8554,-3.8421,-3.8291,-3.8133,-3.8027,-3.7974,-3.7974,-3.808,-3.7998,-3.7785,-3.7518,-3.7388,-3.7334,-3.7143,-3.7197,-3.7281,-3.7388,-3.7388,-3.7388,-3.7227,-3.6982,-3.6874,-3.6549,-3.6495,-3.6363,-3.6417,-3.6634,-3.6874,-3.6982,-3.7227,-3.7388,-3.712,-3.7388,-3.7761,-3.7974,-3.8027,-3.8157,-3.8421,-3.8893,-3.9258,-3.9542,-3.9594,-3.9697,-3.9697,-3.9645,-3.931,-3.9154,-3.9127,-3.905,-3.9022,-3.9206,-3.9569,-3.9697,-3.9697,-3.9697,-3.9697,-3.9697,-3.9697,-3.9697,-3.9697,-3.9697,-3.9697,-3.9697,-3.9697,-3.9697,-3.9697,-3.9697,-3.9697,-3.9697,-3.9697,-3.9697,-3.9697]},{"header":{"parameterUnit":"m.s-1","parameterCategory":1,"la1":31.0,"la2":29.5877,"lo1":-88.7671,"lo2":-86.6584,"dy":0.0162,"dx":0.0185,"nx":115,"ny":88,"refTime":"2024-04-15T00:00:00:Z","depth":0,"parameterNumber":3,"parameterNumberName":"V-component_of_WINDS"},"data":[0.0,0.0,0.0,0.0,0.0,0.0,0.0,0.0,0.0,0.0,0.0,0.0,0.0,0.0,0.0,0.0,0.0,0.0,0.0,0.0,0.0,0.0,0.0,0.0,0.0,0.0,0.0,0.0,0.0,0.0,0.0,0.0,0.0,0.0,0.0,0.0,0.0,0.0,0.0,0.0,0.0,0.0,0.0,0.0,0.0,0.0,0.0,0.0,0.0,0.0,0.0,0.0,0.0,0.0,0.0,0.0,0.0,0.0,0.0,0.0,0.0,0.0,0.0,0.0,0.0,0.0,0.0,0.0,0.0,0.0,0.0,0.0,0.0,0.0,0.0,0.0,0.0,0.0,0.0,0.0,0.0,0.0,0.0,0.0,0.0,0.0,0.0,0.0,0.0,0.0,0.0,0.0,0.0,0.0,0.0,0.0,0.0,0.0,0.0,0.0,0.0,0.0,0.0,0.0,0.0,0.0,0.0,0.0,0.0,0.0,0.0,0.0,0.0,0.0,0.0,0.0,0.0,0.0,0.0,0.0,0.0,0.0,0.0,0.0,0.0,0.0,0.0,0.0,0.0,0.0,0.0,0.0,0.0,0.0,0.0,0.0,0.0,0.0,0.0,0.0,0.0,0.0,0.0,0.0,0.0,0.0,0.0,0.0,0.0,0.0,0.0,0.0,0.0,0.0,0.0,0.0,0.0,0.0,0.0,0.0,0.0,0.0,0.0,0.0,0.0,0.0,0.0,0.0,0.0,0.0,0.0,0.0,0.0,0.0,0.0,0.0,0.0,0.0,0.0,0.0,0.0,0.0,0.0,0.0,0.0,0.0,0.0,0.0,0.0,0.0,0.0,0.0,0.0,0.0,0.0,0.0,0.0,0.0,0.0,0.0,0.0,0.0,0.0,0.0,0.0,0.0,0.0,0.0,0.0,0.0,0.0,0.0,0.0,0.0,0.0,0.0,0.0,0.0,0.0,0.0,0.0,0.0,0.0,0.0,0.0,0.0,0.0,0.0,0.0,0.0,0.0,0.0,0.0,0.0,0.0,0.0,0.0,0.0,0.0,0.0,0.0,0.0,0.0,0.0,0.0,0.0,0.0,0.0,0.0,0.0,0.0,0.0,0.0,0.0,0.0,0.0,0.0,0.0,0.0,0.0,0.0,0.0,0.0,0.0,0.0,0.0,0.0,0.0,0.0,0.0,0.0,0.0,0.0,0.0,0.0,0.0,0.0,0.0,0.0,0.0,0.0,0.0,0.0,0.0,0.0,0.0,0.0,0.0,0.0,0.0,0.0,0.0,0.0,0.0,0.0,0.0,0.0,0.0,0.0,0.0,0.0,0.0,0.0,0.0,0.0,0.0,0.0,0.0,0.0,0.0,0.0,0.0,0.0,0.0,0.0,0.0,0.0,0.0,0.0,0.0,0.0,0.0,0.0,0.0,0.0,0.0,0.0,0.0,0.0,0.0,0.0,0.0,0.0,0.0,0.0,0.0,0.0,0.0,0.0,0.0,0.0,0.0,0.0,0.0,0.0,0.0,0.0,0.0,0.0,0.0,0.0,0.0,0.0,0.0,0.0,0.0,0.0,0.0,0.0,0.0,0.0,0.0,0.0,0.0,0.0,0.0,0.0,0.0,0.0,0.0,0.0,0.0,0.0,0.0,0.0,0.0,0.0,0.0,0.0,0.0,0.0,0.0,0.0,0.0,0.0,0.0,0.0,0.0,0.0,0.0,0.0,0.0,0.0,0.0,0.0,0.0,0.0,0.0,0.0,0.0,0.0,0.0,0.0,0.0,0.0,0.0,0.0,0.0,0.0,0.0,0.0,0.0,0.0,0.0,0.0,0.0,0.0,0.0,0.0,0.0,0.0,0.0,0.0,0.0,0.0,0.0,0.0,0.0,0.0,0.0,0.0,0.0,0.0,0.0,0.0,0.0,0.0,0.0,0.0,0.0,0.0,0.0,0.0,0.0,0.0,0.0,0.0,0.0,0.0,0.0,0.0,0.0,0.0,0.0,0.0,0.0,0.0,0.0,0.0,0.0,0.0,0.0,0.0,0.0,0.0,0.0,0.0,0.0,0.0,0.0,0.0,0.0,0.0,0.0,0.0,0.0,0.0,0.0,0.0,0.0,0.0,0.0,0.0,0.0,0.0,0.0,0.0,0.0,0.0,0.0,0.0,0.0,0.0,0.0,0.0,0.0,0.0,0.0,0.0,0.0,0.0,0.0,0.0,0.0,0.0,0.0,0.0,0.0,0.0,0.0,0.0,0.0,0.0,0.0,0.0,0.0,0.0,0.0,0.0,0.0,0.0,0.0,0.0,0.0,0.0,0.0,0.0,0.0,0.0,0.0,0.0,0.0,0.0,0.0,0.0,0.0,0.0,0.0,0.0,0.0,0.0,0.0,0.0,0.0,0.0,0.0,0.0,0.0,0.0,0.0,0.0,0.0,0.0,0.0,0.0,0.0,0.0,0.0,0.0,0.0,0.0,0.0,0.0,0.0,0.0,0.0,0.0,0.0,0.0,0.0,0.0,0.0,0.0,0.0,0.0,0.0,0.0,0.0,0.0,0.0,0.0,0.0,0.0,0.0,0.0,0.0,0.0,0.0,0.0,0.0,0.0,0.0,0.0,0.0,0.0,0.0,0.0,0.0,0.0,0.0,0.0,0.0,0.0,0.0,0.0,0.0,0.0,0.0,0.0,0.0,0.0,0.0,0.0,0.0,0.0,0.0,0.0,0.0,0.0,0.0,0.0,0.0,0.0,0.0,0.0,0.0,0.0,0.0,0.0,0.0,0.0,0.0,0.0,0.0,0.0,0.0,0.0,0.0,0.0,0.0,0.0,0.0,0.0,0.0,0.0,0.0,0.0,0.0,0.0,0.0,0.0,0.0,0.0,0.0,0.0,0.0,0.0,0.0,0.0,0.0,0.0,0.0,0.0,0.0,0.0,0.0,0.0,0.0,0.0,0.0,0.0,0.0,0.0,0.0,0.0,0.0,0.0,0.0,0.0,0.0,0.0,0.0,0.0,0.0,0.0,0.0,0.0,0.0,0.0,0.0,0.0,0.0,0.0,0.0,0.0,0.0,0.0,0.0,0.0,0.0,0.0,0.0,0.0,0.0,0.0,0.0,0.0,0.0,0.0,0.0,0.0,0.0,0.0,0.0,0.0,0.0,0.0,0.0,0.0,0.0,0.0,0.0,0.0,0.0,0.0,0.0,0.0,0.0,0.0,0.0,0.0,0.0,0.0,0.0,0.0,0.0,0.0,0.0,0.0,0.0,0.0,0.0,0.0,0.0,0.0,0.0,0.0,0.0,0.0,0.0,0.0,0.0,0.0,0.0,0.0,0.0,0.0,0.0,0.0,0.0,0.0,0.0,0.0,0.0,0.0,0.0,0.0,0.0,0.0,0.0,0.0,0.0,0.0,0.0,0.0,0.0,0.0,0.0,0.0,0.0,0.0,0.0,0.0,0.0,0.0,0.0,0.0,0.0,0.0,0.0,0.0,0.0,0.0,0.0,0.0,0.0,0.0,0.0,0.0,0.0,0.0,0.0,0.0,0.0,0.0,0.0,0.0,0.0,0.0,0.0,0.0,0.0,0.0,0.0,0.0,0.0,0.0,0.0,0.0,0.0,0.0,0.0,0.0,0.0,0.0,0.0,0.0,0.0,0.0,0.0,0.0,0.0,0.0,0.0,0.0,0.0,0.0,0.0,0.0,0.0,0.0,0.0,0.0,0.0,0.0,0.0,0.0,0.0,0.0,0.0,0.0,0.0,0.0,0.0,0.0,0.0,0.0,0.0,0.0,0.0,0.0,0.0,0.0,0.0,0.0,0.0,0.0,0.0,0.0,0.0,0.0,0.0,0.0,0.0,0.0,0.0,0.0,0.0,0.0,0.0,0.0,0.0,0.0,0.0,0.0,0.0,0.0,0.0,0.0,0.0,0.0,0.0,0.0,0.0,0.0,0.0,0.0,0.0,0.0,0.0,0.0,0.0,0.0,0.0,0.0,0.0,0.0,0.0,0.0,0.0,0.0,0.0,0.0,0.0,0.0,0.0,0.0,0.0,0.0,0.0,0.0,0.0,0.0,0.0,0.0,0.0,0.0,0.0,0.0,0.0,0.0,0.0,0.0,0.0,0.0,0.0,0.0,0.0,0.0,0.0,0.0,0.0,0.0,0.0,0.0,0.0,0.0,0.0,0.0,0.0,0.0,0.0,0.0,0.0,0.0,0.0,0.0,0.0,0.0,0.0,0.0,0.0,0.0,0.0,0.0,0.0,1.3161,0.0,0.0,0.0,0.0,0.0,0.0,0.0,0.0,0.0,0.0,0.0,0.0,0.0,0.0,0.0,0.0,0.0,0.0,0.0,0.0,0.0,0.0,0.0,0.0,0.0,0.0,0.0,0.0,0.0,0.0,0.0,0.0,0.0,0.0,0.0,0.0,0.0,0.0,0.0,0.0,0.0,0.0,0.0,0.0,0.0,0.0,0.0,0.0,0.0,0.0,0.0,0.0,0.0,0.0,0.0,0.0,0.0,0.0,0.0,0.0,0.0,0.0,0.0,0.0,0.0,0.0,0.0,0.0,0.0,0.0,0.0,0.0,0.0,0.0,0.0,0.0,0.0,0.0,0.0,0.0,0.0,0.0,0.0,0.0,0.0,0.0,0.0,0.0,0.0,0.0,0.0,0.0,0.0,0.0,0.0,0.0,0.0,0.0,0.0,0.0,0.0,0.0,0.0,0.0,0.0,0.0,0.0,0.0,0.0,0.0,1.2165,1.2312,1.2794,1.3104,1.3321,0.0,0.0,0.0,0.0,0.0,0.0,0.0,0.0,0.0,0.0,0.0,0.0,0.0,0.0,0.0,0.0,0.0,0.0,0.0,0.0,0.0,0.0,0.0,0.0,0.0,0.0,0.0,0.0,0.0,0.0,0.0,0.0,0.0,0.0,0.0,0.0,0.0,0.0,0.0,0.0,0.0,0.0,0.0,0.0,0.0,0.0,0.0,0.0,0.0,0.0,0.0,0.0,0.0,0.0,0.0,0.0,0.0,0.0,0.0,0.0,0.0,0.0,0.0,0.0,0.0,0.0,0.0,0.0,0.0,0.0,0.0,0.0,0.0,0.0,0.0,0.0,0.0,0.0,0.0,0.0,0.0,0.0,0.0,0.0,0.0,0.0,0.0,0.0,0.0,0.0,0.0,0.0,0.0,0.0,0.0,0.0,0.0,0.0,0.0,0.0,0.0,0.0,0.0,0.0,0.0,0.0,0.0,0.0,0.0,0.0,0.0,0.0,1.3208,1.3427,1.3952,0.0,0.0,0.0,0.0,0.0,0.0,0.0,0.0,0.0,0.0,0.0,0.0,0.0,0.0,0.0,0.0,0.0,0.0,0.0,0.0,0.0,0.0,0.0,0.0,0.0,0.0,0.0,0.0,0.0,0.0,0.0,0.0,0.0,0.0,0.0,0.0,0.0,0.0,0.0,0.0,0.0,0.0,0.0,0.0,0.0,0.0,0.0,0.0,0.0,0.0,0.0,0.0,0.0,0.0,0.0,0.0,0.0,0.0,0.0,0.0,0.0,0.0,0.0,0.0,0.0,0.0,0.0,0.0,0.0,0.0,0.0,0.0,0.0,0.0,0.0,0.0,0.0,0.0,0.0,0.0,0.0,0.0,0.0,0.0,0.0,0.0,0.0,0.0,0.0,0.0,0.0,0.0,0.0,0.0,0.0,0.0,0.0,0.0,0.0,0.0,0.0,0.0,0.0,0.0,0.0,0.0,0.0,0.0,0.0,0.0,1.312,1.4579,1.405,0.0,1.5784,0.0,0.0,0.0,0.0,0.0,0.0,0.0,0.0,0.0,0.0,0.0,0.0,0.0,0.0,0.0,0.0,0.0,0.0,0.0,0.0,0.0,0.0,0.0,0.0,0.0,0.0,0.0,0.0,0.0,0.0,0.0,0.0,0.0,0.0,0.0,0.0,0.0,0.0,0.0,0.0,0.0,0.0,0.0,0.0,0.0,0.0,0.0,0.0,0.0,0.0,0.0,0.0,0.0,0.0,0.0,0.0,0.0,0.0,0.0,0.0,0.0,0.0,0.0,0.0,0.0,0.0,0.0,0.0,0.0,0.0,0.0,0.0,0.0,0.0,0.0,0.0,0.0,0.0,0.0,0.0,0.0,0.0,0.0,0.0,0.0,0.0,0.0,0.0,0.0,0.0,0.0,0.0,0.0,0.0,0.0,0.0,0.0,0.0,0.0,0.0,0.0,0.0,0.0,0.0,0.0,0.0,0.0,0.0,0.0,0.0,1.3905,1.5005,1.4634,1.4754,0.0,0.0,0.0,0.0,0.0,0.0,0.0,0.0,0.0,0.0,0.0,0.0,0.0,0.0,0.0,0.0,0.0,0.0,0.0,0.0,0.0,0.0,0.0,0.0,0.0,0.0,0.0,0.0,0.0,0.0,0.0,0.0,0.0,0.0,0.0,0.0,0.0,0.0,0.0,0.0,0.0,0.0,0.0,0.0,0.0,0.0,0.0,0.0,0.0,0.0,0.0,0.0,0.0,0.0,0.0,0.0,0.0,0.0,0.0,0.0,0.0,0.0,0.0,0.0,0.0,0.0,0.0,0.0,0.0,0.0,0.0,0.0,0.0,0.0,0.0,0.0,0.0,0.0,0.0,0.0,0.0,0.0,0.0,0.0,0.0,0.0,0.0,0.0,0.0,0.0,0.0,0.0,0.0,0.0,0.0,0.0,0.0,0.0,0.0,0.0,0.0,0.0,0.0,0.0,0.0,0.0,0.0,0.0,0.0,0.0,1.4823,1.4193,1.4751,1.4585,1.4755,1.54,0.0,0.0,0.0,0.0,0.0,0.0,0.0,0.0,0.0,0.0,0.0,0.0,0.0,0.0,0.0,0.0,0.0,0.0,0.0,0.0,0.0,0.0,0.0,0.0,0.0,0.0,0.0,0.0,0.0,0.0,0.0,0.0,0.0,0.0,0.0,0.0,0.0,0.0,0.0,0.0,0.0,0.0,0.0,0.0,0.0,0.0,0.0,0.0,0.0,0.0,0.0,0.0,0.0,0.0,0.0,0.0,0.0,0.0,0.0,0.0,0.0,0.0,0.0,0.0,0.0,0.0,0.0,0.0,0.0,0.0,0.0,0.0,0.0,0.0,0.0,0.0,0.0,0.0,0.0,0.0,0.0,0.0,0.0,0.0,0.0,0.0,0.0,0.0,0.0,0.0,0.0,0.0,0.0,0.0,0.0,0.0,0.0,0.0,0.0,0.0,0.0,0.0,0.0,0.0,0.0,0.0,0.0,0.0,1.8405,1.5641,1.3921,1.3678,1.3487,1.4337,0.0,0.0,0.0,0.0,0.0,0.0,0.0,0.0,0.0,0.0,0.0,0.0,0.0,0.0,0.0,0.0,0.0,0.0,0.0,0.0,0.0,0.0,0.0,0.0,0.0,0.0,0.0,0.0,0.0,0.0,0.0,0.0,0.0,0.0,0.0,0.0,0.0,0.0,0.0,0.0,0.0,0.0,0.0,0.0,0.0,0.0,0.0,0.0,0.0,0.0,0.0,0.0,0.0,0.0,0.0,0.0,0.0,0.0,0.0,0.0,0.0,0.0,0.0,0.0,0.0,0.0,0.0,0.0,0.0,0.0,0.0,0.0,0.0,0.0,0.0,0.0,0.0,0.0,0.0,0.0,0.0,0.0,0.0,0.0,0.0,0.0,0.0,0.0,0.0,0.0,0.0,0.0,0.0,0.0,0.0,0.0,0.0,0.0,0.0,0.0,0.0,0.0,0.0,0.0,0.0,0.0,0.0,0.0,0.0,1.7253,1.493,1.347,1.3046,1.3109,1.4237,0.0,0.0,0.0,0.0,0.0,0.0,0.0,0.0,0.0,0.0,0.0,0.0,0.0,0.0,0.0,0.0,0.0,0.0,0.0,0.0,0.0,0.0,0.0,0.0,0.0,0.0,0.0,0.0,0.0,0.0,0.0,0.0,0.0,0.0,0.0,0.0,0.0,0.0,0.0,0.0,0.0,0.0,0.0,0.0,0.0,0.0,0.0,0.0,0.0,0.0,0.0,0.0,0.0,0.0,0.0,0.0,0.0,0.0,0.0,0.0,0.0,0.0,0.0,0.0,0.0,0.0,0.0,0.0,0.0,0.0,0.0,0.0,0.0,0.0,0.0,0.0,0.0,0.0,0.0,0.0,0.0,0.0,0.0,0.0,0.0,0.0,0.0,0.0,0.0,0.0,0.0,0.0,0.0,0.0,0.0,0.0,0.0,0.0,0.0,0.0,0.0,0.0,0.0,0.0,0.0,0.0,0.0,0.0,0.0,1.6084,0.0,1.3105,1.2531,1.2561,1.375,0.0,0.0,0.0,0.0,0.0,0.0,0.0,0.0,0.0,0.0,0.0,0.0,0.0,0.0,0.0,0.0,0.0,0.0,0.0,0.0,0.0,0.0,0.0,0.0,0.0,0.0,0.0,0.0,0.0,0.0,0.0,0.0,0.0,0.0,0.0,0.0,0.0,0.0,0.0,0.0,0.0,0.0,0.0,0.0,0.0,0.0,0.0,0.0,0.0,0.0,0.0,0.0,0.0,0.0,0.0,0.0,0.0,0.0,0.0,0.0,0.0,0.0,0.0,0.0,0.0,0.0,0.0,0.0,0.0,0.0,0.0,0.0,0.0,0.0,0.0,0.0,0.0,0.0,0.0,0.0,0.0,0.0,0.0,0.0,0.0,0.0,0.0,0.0,0.0,0.0,0.0,0.0,0.0,0.0,0.0,0.0,0.0,0.0,0.0,0.0,0.0,0.0,0.0,0.0,0.0,0.0,0.0,0.0,1.7622,1.5076,1.4002,1.302,1.2067,1.1824,1.2763,0.0,0.0,0.0,0.0,0.0,0.0,0.0,0.0,0.0,0.0,0.0,0.0,0.0,0.0,0.0,0.0,0.0,0.0,0.0,0.0,0.0,0.0,0.0,0.0,0.0,0.0,0.0,0.0,0.0,0.0,0.0,0.0,0.0,0.0,0.0,0.0,0.0,0.0,0.0,0.0,0.0,0.0,0.0,0.0,0.0,0.0,0.0,0.0,0.0,0.0,0.0,0.0,0.0,0.0,0.0,0.0,0.0,0.0,0.0,0.0,0.0,0.0,0.0,0.0,0.0,0.0,0.0,0.0,0.0,0.0,0.0,0.0,0.0,0.0,0.0,0.0,0.0,0.0,0.0,0.0,0.0,0.0,0.0,0.0,0.0,0.0,0.0,0.0,0.0,0.0,0.0,0.0,0.0,0.0,0.0,0.0,0.0,0.0,0.0,0.0,0.0,0.0,0.0,0.0,0.0,0.0,0.0,0.0,0.0,1.4281,1.3146,1.258,1.2759,1.1833,1.2926,0.0,0.0,0.0,0.0,0.0,0.0,0.0,0.0,0.0,0.0,0.0,0.0,0.0,0.0,0.0,0.0,0.0,0.0,0.0,0.0,0.0,0.0,0.0,0.0,0.0,0.0,0.0,0.0,0.0,0.0,0.0,0.0,0.0,0.0,0.0,0.0,0.0,0.0,0.0,0.0,0.0,0.0,0.0,0.0,0.0,0.0,0.0,0.0,0.0,0.0,0.0,0.0,0.0,0.0,0.0,0.0,0.0,0.0,0.0,0.0,0.0,0.0,0.0,0.0,0.0,0.0,0.0,0.0,0.0,0.0,0.0,0.0,0.0,0.0,0.0,0.0,0.0,0.0,0.0,0.0,0.0,0.0,0.0,0.0,0.0,0.0,0.0,0.0,0.0,0.0,0.0,0.0,0.0,0.0,0.0,0.0,0.0,0.0,0.0,0.0,0.0,0.0,0.0,0.0,0.0,0.0,0.0,0.0,0.0,1.4896,1.3367,1.2814,1.3259,1.202,1.3245,1.7113,0.0,0.0,0.0,0.0,0.0,0.0,0.0,0.0,0.0,0.0,0.0,0.0,0.0,0.0,0.0,0.0,0.0,0.0,0.0,0.0,0.0,0.0,0.0,0.0,0.0,0.0,0.0,0.0,0.0,0.0,0.0,0.0,0.0,0.0,0.0,0.0,0.0,0.0,0.0,0.0,0.0,0.0,0.0,0.0,0.0,0.0,0.0,0.0,0.0,0.0,0.0,0.0,0.0,0.0,0.0,0.0,0.0,0.0,0.0,0.0,0.0,0.0,0.0,0.0,0.0,0.0,0.0,0.0,0.0,0.0,0.0,0.0,0.0,0.0,0.0,0.0,0.0,0.0,0.0,0.0,0.0,0.0,0.0,0.0,0.0,0.0,0.0,0.0,0.0,0.0,0.0,0.0,0.0,0.0,0.0,0.0,0.0,0.0,0.0,0.0,0.0,0.0,0.0,0.0,0.0,0.0,0.0,0.0,1.6593,1.4709,1.3729,1.3708,1.2507,1.3708,0.0,0.0,0.0,0.0,0.0,0.0,0.0,0.0,0.0,0.0,0.0,0.0,0.0,0.0,0.0,0.0,0.0,0.0,0.0,0.0,0.0,0.0,0.0,0.0,0.0,0.0,0.0,0.0,0.0,0.0,0.0,0.0,0.0,0.0,0.0,0.0,0.0,0.0,0.0,0.0,0.0,0.0,0.0,0.0,0.0,0.0,0.0,0.0,0.0,0.0,0.0,0.0,0.0,0.0,0.0,0.0,0.0,0.0,0.0,0.0,0.0,0.0,0.0,0.0,0.0,0.0,0.0,0.0,0.0,0.0,0.0,0.0,0.0,0.0,0.0,0.0,0.0,0.0,0.0,0.0,0.0,0.0,0.0,0.0,0.0,0.0,0.0,0.0,0.0,0.0,0.0,0.0,0.0,0.0,0.0,0.0,0.0,0.0,0.0,0.0,0.0,0.0,0.0,0.0,0.0,0.0,0.0,0.0,0.0,1.8117,1.7501,1.6698,1.5625,1.378,1.465,0.0,0.0,0.0,0.0,0.0,0.0,0.0,0.0,0.0,0.0,0.0,0.0,0.0,0.0,0.0,0.0,0.0,0.0,0.0,0.0,0.0,0.0,0.0,0.0,0.0,0.0,0.0,0.0,0.0,0.0,0.0,0.0,0.0,0.0,0.0,0.0,0.0,0.0,0.0,0.0,0.0,0.0,0.0,0.0,0.0,0.0,0.0,0.0,0.0,0.0,0.0,0.0,0.0,0.0,0.0,0.0,0.0,0.0,0.0,0.0,0.0,0.0,0.0,0.0,0.0,0.0,0.0,0.0,0.0,0.0,0.0,0.0,0.0,0.0,0.0,0.0,0.0,0.0,0.0,0.0,0.0,0.0,0.0,0.0,0.0,0.0,0.0,0.0,0.0,0.0,0.0,0.0,0.0,0.0,0.0,0.0,0.0,0.0,0.0,0.0,0.0,0.0,0.0,0.0,0.0,0.0,0.0,0.0,1.9325,1.9495,1.8809,1.8465,1.8335,1.6267,1.6659,0.0,0.0,0.0,0.0,0.0,0.0,0.0,0.0,0.0,0.0,0.0,0.0,0.0,0.0,0.0,0.0,0.0,0.0,0.0,0.0,0.0,0.0,0.0,0.0,0.0,0.0,0.0,0.0,0.0,0.0,0.0,0.0,0.0,0.0,0.0,0.0,0.0,0.0,0.0,0.0,0.0,0.0,0.0,0.0,0.0,0.0,0.0,0.0,0.0,0.0,0.0,0.0,0.0,0.0,0.0,0.0,0.0,0.0,0.0,0.0,0.0,0.0,0.0,0.0,0.0,0.0,0.0,0.0,0.0,0.0,0.0,0.0,0.0,0.0,0.0,0.0,0.0,0.0,0.0,0.0,0.0,0.0,0.0,0.0,0.0,0.0,0.0,0.0,0.0,0.0,0.0,0.0,0.0,0.0,0.0,0.0,0.0,0.0,0.0,0.0,0.0,0.0,0.0,0.0,0.0,0.0,0.0,0.0,2.0138,2.0736,1.9508,1.9623,2.1039,1.9059,1.8872,0.0,0.0,0.0,0.0,0.0,0.0,0.0,0.0,0.0,0.0,0.0,0.0,0.0,0.0,0.0,0.0,0.0,0.0,0.0,0.0,0.0,0.0,0.0,0.0,0.0,0.0,0.0,0.0,0.0,0.0,0.0,0.0,0.0,0.0,0.0,0.0,0.0,0.0,0.0,0.0,0.0,0.0,0.0,0.0,0.0,0.0,0.0,0.0,0.0,0.0,0.0,0.0,0.0,0.0,0.0,0.0,0.0,0.0,0.0,0.0,0.0,0.0,0.0,0.0,0.0,0.0,0.0,0.0,0.0,0.0,0.0,0.0,0.0,0.0,0.0,0.0,0.0,0.0,0.0,0.0,0.0,0.0,0.0,0.0,0.0,0.0,0.0,0.0,0.0,0.0,0.0,0.0,0.0,0.0,0.0,0.0,0.0,0.0,0.0,0.0,0.0,0.0,0.0,0.0,0.0,0.0,0.0,0.0,2.2207,2.1727,2.1833,2.1871,2.1779,1.9289,1.9026,0.0,0.0,0.0,0.0,0.0,0.0,0.0,0.0,0.0,0.0,0.0,0.0,0.0,0.0,0.0,0.0,0.0,0.0,0.0,0.0,0.0,0.0,0.0,0.0,0.0,0.0,0.0,0.0,0.0,0.0,0.0,0.0,0.0,0.0,0.0,0.0,0.0,0.0,0.0,0.0,0.0,0.0,0.0,0.0,0.0,0.0,0.0,0.0,2.333,0.0,0.0,0.0,0.0,0.0,0.0,0.0,0.0,0.0,0.0,0.0,0.0,0.0,0.0,0.0,0.0,0.0,0.0,0.0,0.0,0.0,0.0,0.0,0.0,0.0,0.0,0.0,0.0,0.0,0.0,0.0,0.0,0.0,0.0,0.0,0.0,0.0,0.0,0.0,0.0,0.0,0.0,0.0,0.0,0.0,0.0,0.0,0.0,0.0,0.0,0.0,0.0,0.0,0.0,0.0,0.0,0.0,0.0,0.0,2.42,2.2984,2.3591,2.3289,2.2043,2.0605,2.0385,0.0,0.0,0.0,0.0,0.0,0.0,0.0,0.0,0.0,0.0,0.0,0.0,0.0,0.0,0.0,0.0,0.0,0.0,0.0,0.0,0.0,0.0,0.0,0.0,0.0,0.0,0.0,0.0,0.0,0.0,0.0,0.0,0.0,0.0,0.0,0.0,0.0,0.0,0.0,0.0,0.0,0.0,0.0,0.0,0.0,0.0,0.0,0.0,0.0,0.0,0.0,0.0,0.0,0.0,0.0,0.0,0.0,0.0,0.0,0.0,0.0,0.0,0.0,0.0,0.0,0.0,0.0,0.0,0.0,0.0,0.0,0.0,0.0,0.0,0.0,0.0,0.0,0.0,0.0,0.0,0.0,0.0,0.0,0.0,0.0,0.0,0.0,0.0,0.0,0.0,0.0,0.0,0.0,0.0,0.0,0.0,0.0,0.0,0.0,0.0,0.0,0.0,0.0,0.0,0.0,0.0,0.0,2.6645,2.5883,2.4432,2.472,2.4087,2.2301,2.2298,2.2067,2.1642,0.0,0.0,0.0,0.0,0.0,0.0,0.0,0.0,0.0,0.0,0.0,0.0,0.0,0.0,0.0,0.0,0.0,0.0,0.0,0.0,0.0,0.0,0.0,0.0,0.0,0.0,0.0,0.0,0.0,0.0,0.0,0.0,0.0,0.0,0.0,0.0,0.0,0.0,2.9206,2.8295,0.0,0.0,0.0,0.0,0.0,0.0,0.0,0.0,2.4547,0.0,0.0,0.0,0.0,0.0,0.0,0.0,0.0,0.0,0.0,0.0,0.0,0.0,0.0,0.0,0.0,0.0,0.0,0.0,0.0,0.0,0.0,0.0,0.0,0.0,0.0,0.0,0.0,0.0,0.0,0.0,0.0,0.0,0.0,0.0,0.0,0.0,0.0,0.0,0.0,0.0,0.0,0.0,0.0,0.0,0.0,0.0,0.0,0.0,0.0,0.0,0.0,0.0,0.0,0.0,0.0,2.7907,2.7013,2.6385,2.5983,2.4776,2.394,2.3392,2.335,2.2983,2.2196,0.0,0.0,0.0,0.0,0.0,0.0,0.0,0.0,0.0,0.0,0.0,0.0,0.0,0.0,0.0,0.0,0.0,0.0,0.0,0.0,0.0,0.0,0.0,0.0,0.0,0.0,0.0,0.0,0.0,0.0,0.0,0.0,0.0,0.0,0.0,0.0,0.0,0.0,0.0,3.1441,3.1307,0.0,0.0,0.0,0.0,0.0,0.0,0.0,0.0,2.6263,0.0,0.0,0.0,0.0,0.0,0.0,0.0,0.0,0.0,0.0,0.0,0.0,0.0,0.0,0.0,0.0,0.0,0.0,0.0,0.0,0.0,0.0,0.0,0.0,0.0,0.0,0.0,0.0,0.0,0.0,0.0,0.0,0.0,0.0,0.0,0.0,0.0,0.0,0.0,0.0,0.0,0.0,0.0,0.0,0.0,0.0,0.0,0.0,0.0,0.0,0.0,0.0,0.0,0.0,0.0,2.8239,2.8783,2.8568,2.7453,2.6924,2.6055,2.4901,2.4727,2.4478,0.0,0.0,0.0,0.0,0.0,0.0,0.0,0.0,0.0,0.0,0.0,0.0,0.0,0.0,0.0,0.0,0.0,0.0,0.0,0.0,0.0,0.0,0.0,0.0,0.0,0.0,0.0,0.0,0.0,0.0,0.0,0.0,0.0,0.0,0.0,0.0,0.0,0.0,0.0,0.0,3.2683,3.2545,3.1856,0.0,0.0,0.0,0.0,0.0,0.0,2.7337,2.7377,0.0,0.0,0.0,0.0,0.0,0.0,0.0,0.0,0.0,0.0,0.0,0.0,0.0,0.0,0.0,0.0,0.0,0.0,0.0,0.0,0.0,0.0,0.0,0.0,0.0,0.0,0.0,0.0,0.0,0.0,0.0,0.0,0.0,0.0,0.0,0.0,0.0,0.0,0.0,0.0,0.0,0.0,0.0,0.0,0.0,0.0,0.0,0.0,0.0,0.0,0.0,0.0,0.0,0.0,0.0,2.8714,3.0418,3.0625,2.9157,2.908,2.8222,2.653,2.6016,2.5782,0.0,0.0,0.0,0.0,0.0,0.0,0.0,0.0,0.0,0.0,0.0,0.0,0.0,0.0,0.0,0.0,0.0,0.0,0.0,0.0,0.0,0.0,0.0,0.0,0.0,0.0,0.0,0.0,0.0,0.0,0.0,0.0,0.0,0.0,0.0,0.0,0.0,0.0,0.0,0.0,0.0,3.3833,3.3649,3.3503,0.0,0.0,0.0,0.0,2.9036,2.9268,0.0,0.0,0.0,0.0,0.0,0.0,0.0,0.0,0.0,0.0,0.0,0.0,0.0,0.0,0.0,0.0,0.0,0.0,0.0,0.0,0.0,0.0,0.0,0.0,0.0,0.0,0.0,0.0,0.0,0.0,0.0,0.0,0.0,0.0,0.0,0.0,0.0,0.0,0.0,0.0,0.0,0.0,0.0,0.0,0.0,0.0,0.0,0.0,0.0,0.0,0.0,0.0,0.0,0.0,0.0,0.0,2.9816,3.0455,3.1029,3.1283,2.9698,2.8553,2.8092,2.6544,2.5782,0.0,0.0,0.0,0.0,0.0,0.0,0.0,0.0,0.0,0.0,0.0,0.0,0.0,0.0,0.0,0.0,0.0,0.0,0.0,0.0,0.0,0.0,0.0,0.0,0.0,0.0,0.0,0.0,0.0,0.0,0.0,0.0,0.0,0.0,0.0,0.0,0.0,0.0,0.0,0.0,0.0,3.6698,3.4658,3.5049,3.5085,0.0,0.0,3.335,3.2329,3.3717,0.0,0.0,0.0,0.0,0.0,0.0,0.0,0.0,0.0,0.0,0.0,0.0,0.0,0.0,0.0,0.0,0.0,0.0,0.0,0.0,0.0,0.0,0.0,0.0,0.0,0.0,0.0,0.0,0.0,0.0,0.0,0.0,0.0,0.0,0.0,0.0,0.0,0.0,0.0,0.0,0.0,0.0,0.0,0.0,0.0,0.0,0.0,0.0,0.0,0.0,0.0,0.0,0.0,0.0,0.0,3.0718,3.1308,3.2283,3.3128,3.3711,3.2147,3.1224,3.107,2.8628,2.7281,0.0,0.0,0.0,0.0,0.0,0.0,0.0,0.0,0.0,0.0,0.0,0.0,0.0,0.0,0.0,0.0,0.0,0.0,0.0,0.0,0.0,0.0,0.0,0.0,0.0,0.0,0.0,0.0,0.0,0.0,0.0,0.0,0.0,0.0,0.0,0.0,0.0,0.0,0.0,0.0,0.0,0.0,3.6496,3.7265,0.0,0.0,0.0,3.5904,3.4562,0.0,0.0,0.0,0.0,0.0,0.0,0.0,0.0,0.0,0.0,0.0,0.0,0.0,0.0,0.0,0.0,0.0,0.0,0.0,0.0,0.0,0.0,0.0,0.0,0.0,0.0,0.0,0.0,0.0,0.0,0.0,0.0,0.0,0.0,0.0,0.0,0.0,0.0,0.0,0.0,0.0,0.0,0.0,0.0,0.0,0.0,0.0,0.0,0.0,0.0,0.0,0.0,0.0,0.0,0.0,0.0,0.0,3.2755,3.4041,3.4885,3.5305,3.4206,3.3584,3.3386,3.0422,0.0,0.0,0.0,0.0,0.0,0.0,0.0,0.0,0.0,0.0,0.0,0.0,0.0,0.0,0.0,0.0,0.0,0.0,0.0,0.0,0.0,0.0,0.0,0.0,0.0,0.0,0.0,2.7228,0.0,0.0,0.0,0.0,0.0,0.0,0.0,0.0,0.0,0.0,0.0,0.0,0.0,0.0,3.7987,3.8095,3.9067,3.9496,0.0,0.0,3.8027,3.6876,3.7416,3.7101,0.0,0.0,0.0,0.0,0.0,0.0,0.0,0.0,0.0,0.0,0.0,0.0,0.0,0.0,0.0,0.0,0.0,0.0,0.0,0.0,0.0,0.0,0.0,0.0,0.0,0.0,0.0,0.0,0.0,0.0,0.0,0.0,0.0,0.0,0.0,0.0,0.0,0.0,0.0,0.0,0.0,0.0,0.0,0.0,0.0,0.0,0.0,0.0,0.0,0.0,0.0,0.0,0.0,0.0,3.2958,3.3895,3.4973,3.5486,3.5397,3.4886,3.4525,3.4257,3.1258,3.0056,0.0,0.0,0.0,0.0,0.0,0.0,0.0,0.0,0.0,0.0,0.0,0.0,0.0,0.0,0.0,0.0,0.0,0.0,0.0,0.0,0.0,0.0,0.0,0.0,0.0,0.0,0.0,0.0,0.0,0.0,0.0,0.0,0.0,0.0,0.0,0.0,0.0,0.0,0.0,0.0,0.0,3.8477,3.8792,3.9986,4.1114,0.0,0.0,3.9834,3.9431,4.0752,4.0275,3.5571,0.0,0.0,0.0,0.0,0.0,0.0,0.0,0.0,0.0,0.0,0.0,0.0,0.0,0.0,0.0,0.0,0.0,0.0,0.0,0.0,0.0,0.0,0.0,0.0,0.0,0.0,0.0,0.0,0.0,0.0,0.0,0.0,0.0,0.0,0.0,0.0,0.0,0.0,0.0,0.0,0.0,0.0,0.0,0.0,0.0,0.0,0.0,0.0,0.0,0.0,0.0,0.0,0.0,3.386,3.4938,3.599,3.6699,3.6984,3.6333,3.5746,3.5312,3.2464,3.0931,0.0,0.0,0.0,0.0,0.0,0.0,0.0,0.0,0.0,0.0,0.0,0.0,0.0,0.0,0.0,0.0,0.0,0.0,0.0,0.0,0.0,0.0,0.0,0.0,0.0,0.0,0.0,0.0,2.7224,2.8238,2.9503,0.0,0.0,0.0,0.0,0.0,0.0,0.0,0.0,0.0,0.0,3.9371,4.0261,4.1363,0.0,0.0,4.1902,4.1518,4.0747,4.0899,4.0185,3.7603,3.6259,0.0,0.0,0.0,0.0,0.0,0.0,0.0,0.0,0.0,0.0,0.0,0.0,0.0,0.0,0.0,0.0,0.0,0.0,0.0,0.0,0.0,0.0,0.0,0.0,0.0,0.0,0.0,0.0,0.0,0.0,0.0,0.0,0.0,0.0,0.0,0.0,0.0,0.0,0.0,0.0,0.0,0.0,0.0,0.0,0.0,0.0,0.0,0.0,0.0,0.0,0.0,0.0,3.4673,3.5713,3.6836,3.7645,3.8178,3.7689,3.7072,3.6401,3.3768,3.2066,0.0,0.0,0.0,0.0,0.0,0.0,0.0,0.0,0.0,0.0,0.0,0.0,0.0,0.0,0.0,0.0,0.0,0.0,0.0,0.0,0.0,0.0,0.0,0.0,0.0,0.0,0.0,0.0,2.8644,2.9855,3.1615,0.0,0.0,0.0,0.0,0.0,0.0,0.0,0.0,0.0,0.0,4.0266,4.1822,4.2628,4.3128,4.3118,4.2841,4.2408,4.1872,4.1413,4.0606,3.9116,0.0,0.0,0.0,0.0,0.0,0.0,0.0,0.0,0.0,0.0,0.0,0.0,0.0,0.0,0.0,0.0,0.0,0.0,0.0,0.0,0.0,0.0,0.0,0.0,0.0,0.0,0.0,3.5343,0.0,0.0,3.769,0.0,0.0,0.0,0.0,0.0,0.0,0.0,0.0,0.0,0.0,0.0,0.0,0.0,0.0,0.0,0.0,0.0,0.0,0.0,0.0,0.0,0.0,3.5135,3.6237,3.724,3.8069,3.8663,3.8689,3.8407,3.7807,3.5143,3.3632,3.3463,0.0,0.0,0.0,0.0,0.0,0.0,0.0,0.0,0.0,0.0,0.0,0.0,0.0,0.0,0.0,0.0,0.0,0.0,0.0,0.0,0.0,0.0,0.0,0.0,0.0,0.0,2.9397,2.9917,3.064,0.0,0.0,0.0,0.0,0.0,0.0,0.0,0.0,0.0,0.0,3.8809,4.1055,4.3362,4.3742,4.4171,4.5288,4.3552,4.2249,4.2792,4.2948,4.2192,0.0,0.0,0.0,0.0,0.0,0.0,0.0,0.0,0.0,0.0,0.0,0.0,0.0,0.0,0.0,0.0,0.0,0.0,0.0,0.0,0.0,0.0,0.0,0.0,0.0,0.0,0.0,3.5836,3.6757,0.0,0.0,0.0,0.0,0.0,0.0,0.0,0.0,0.0,0.0,0.0,4.2821,4.2482,0.0,0.0,0.0,0.0,0.0,0.0,0.0,0.0,0.0,0.0,0.0,0.0,3.5228,3.6701,3.7078,3.7761,3.8815,3.8754,3.8457,3.796,3.6233,3.463,3.3172,0.0,0.0,0.0,0.0,0.0,0.0,0.0,0.0,0.0,0.0,0.0,0.0,0.0,0.0,0.0,0.0,0.0,0.0,0.0,0.0,0.0,0.0,0.0,0.0,0.0,2.9491,0.0,0.0,0.0,0.0,0.0,0.0,0.0,0.0,0.0,0.0,0.0,3.671,3.8949,4.0209,4.1699,4.3732,4.3985,4.4294,0.0,0.0,0.0,0.0,0.0,0.0,0.0,0.0,0.0,0.0,0.0,0.0,0.0,0.0,4.2869,4.0055,3.791,3.6716,3.7041,0.0,0.0,0.0,0.0,0.0,0.0,0.0,0.0,0.0,0.0,0.0,0.0,0.0,0.0,3.7762,0.0,3.9057,0.0,0.0,0.0,0.0,0.0,0.0,0.0,0.0,4.3556,4.3735,4.3995,4.3735,4.3446,0.0,4.3008,4.1385,0.0,0.0,0.0,0.0,0.0,0.0,0.0,0.0,3.5921,3.7236,3.7634,3.8439,3.9667,3.9635,3.9257,3.8558,3.6999,3.5198,3.3207,3.1094,3.0138,0.0,0.0,0.0,0.0,0.0,0.0,0.0,0.0,0.0,0.0,0.0,0.0,0.0,0.0,0.0,0.0,0.0,0.0,0.0,0.0,0.0,0.0,0.0,3.1029,0.0,0.0,0.0,0.0,0.0,0.0,0.0,0.0,0.0,3.6315,3.712,3.8445,4.0506,4.1224,4.231,4.4195,0.0,0.0,0.0,0.0,0.0,0.0,0.0,4.3445,4.3819,4.3708,4.3867,4.482,4.6604,4.7686,4.6877,0.0,0.0,4.3502,4.136,4.0084,4.0256,3.9771,3.941,3.9689,4.0591,4.073,0.0,0.0,0.0,0.0,0.0,0.0,0.0,0.0,4.0988,4.0723,0.0,4.2035,0.0,0.0,0.0,0.0,4.3385,4.4126,0.0,0.0,4.4721,4.521,4.5122,4.5218,4.4893,4.4244,4.4814,4.3819,4.135,3.8598,0.0,0.0,0.0,0.0,0.0,0.0,3.7231,3.7922,3.8944,4.011,4.1253,4.131,4.0745,3.9578,3.7353,3.5386,3.3754,3.2726,3.1675,3.0585,3.0581,0.0,0.0,0.0,0.0,0.0,0.0,0.0,0.0,0.0,0.0,0.0,0.0,0.0,0.0,0.0,0.0,0.0,0.0,0.0,0.0,3.2761,0.0,0.0,0.0,0.0,0.0,0.0,0.0,0.0,0.0,0.0,3.7226,3.8505,4.0032,4.1363,0.0,0.0,0.0,0.0,4.4412,4.5132,4.4703,4.433,4.433,4.4879,4.4877,4.3663,0.0,0.0,4.6826,4.7782,4.8438,4.7589,4.848,4.8747,4.6916,4.4704,4.3439,4.3991,4.3364,4.316,4.3842,4.4203,4.4091,4.2631,0.0,0.0,0.0,0.0,4.2719,4.2815,4.3143,4.2256,4.227,4.2882,4.2589,0.0,0.0,0.0,0.0,0.0,0.0,4.545,4.6113,4.6087,4.6214,4.6611,4.6184,4.5891,4.5639,4.4947,4.3712,4.21,4.0803,3.9749,3.8904,0.0,0.0,0.0,0.0,3.8154,3.9467,3.9914,4.0756,4.1976,4.1561,4.0754,3.9564,3.731,3.5889,3.5402,3.3973,3.3013,3.2676,3.1902,0.0,0.0,0.0,0.0,0.0,0.0,0.0,0.0,0.0,0.0,0.0,0.0,0.0,0.0,0.0,0.0,0.0,0.0,0.0,3.2836,3.3701,3.4305,0.0,0.0,0.0,0.0,0.0,0.0,0.0,0.0,0.0,4.0707,4.0808,4.1656,0.0,0.0,4.4246,4.5752,4.5811,4.59,4.655,4.6534,0.0,4.6416,4.6191,4.6024,4.6113,4.7611,4.8663,4.8543,4.9687,5.0277,4.9318,4.959,4.9584,4.8274,4.6756,4.5699,4.5756,4.5017,4.4672,4.5506,4.6218,4.6237,4.5645,4.4272,4.4224,4.4199,4.421,4.391,4.4106,4.4507,4.3592,4.337,4.3752,4.3617,4.3645,4.3752,4.3617,0.0,0.0,0.0,4.5723,4.6501,4.6339,4.6466,4.6786,4.6906,4.6749,4.6403,4.5899,4.493,4.3667,4.3273,4.2737,4.1961,0.0,0.0,3.9799,3.9072,3.9363,4.0662,4.1022,4.169,4.2659,4.1836,4.0993,4.0236,3.8417,3.7181,3.6699,3.5342,3.4435,3.4228,3.309,3.2479,0.0,0.0,0.0,0.0,0.0,0.0,0.0,0.0,0.0,0.0,0.0,3.3221,3.3457,0.0,0.0,0.0,3.372,3.3536,3.3416,3.4403,0.0,0.0,0.0,0.0,0.0,0.0,0.0,3.8715,4.0217,4.1512,4.2291,4.2252,4.294,4.5035,4.4945,4.5185,4.6531,0.0,4.6518,4.7219,4.7309,4.7309,4.7309,4.698,4.6873,4.7478,4.8369,4.9035,4.9284,5.0237,5.0642,5.0119,5.0039,4.9799,4.8779,4.7946,4.7308,4.7129,4.6876,4.6881,4.7455,4.8054,4.814,4.7896,4.7161,4.6042,4.5502,4.5496,4.4768,4.5152,4.6137,4.4918,4.4346,4.4375,4.5011,4.4865,4.4231,4.4865,0.0,4.61,4.5454,4.5214,4.5394,4.5992,4.6142,4.6072,4.7194,4.728,4.6462,4.7015,4.6647,4.5379,4.5456,4.5187,4.4503,4.1358,4.0051,4.0554,4.0516,4.0816,4.1444,4.2102,4.2731,4.326,4.2073,4.1422,4.1384,4.0038,3.8769,3.768,3.6626,3.582,3.5212,3.4147,3.3531,3.3567,0.0,0.0,0.0,0.0,0.0,0.0,0.0,0.0,0.0,0.0,0.0,0.0,0.0,0.0,0.0,3.3899,0.0,3.3934,3.4985,0.0,0.0,0.0,3.7554,3.7554,3.8715,3.9589,3.9589,0.0,0.0,4.247,4.3,4.3828,4.5065,4.5274,4.5783,4.713,4.68,4.6621,4.7219,4.7309,4.7309,4.7309,4.7279,4.7379,4.7794,4.848,4.8858,4.912,4.9677,4.9997,4.9867,4.9892,4.9653,4.8728,4.8573,4.8521,4.8061,4.8532,4.9097,4.9138,4.9421,4.9541,4.9042,4.8001,4.7703,4.7274,4.6814,4.6666,4.6739,4.6959,4.6162,4.6046,4.6533,4.6159,4.5654,4.5023,4.4674,4.4601,4.4725,4.4107,4.4616,4.6022,4.5693,4.5765,4.6209,4.604,4.5541,4.4881,4.4838,4.4534,4.3886,4.4511,4.4573,4.412,4.3067,4.2535,4.2319,4.1535,4.1512,4.2171,4.2761,4.314,4.323,4.2043,4.1422,4.1354,3.9589,3.8471,3.8216,3.701,3.6114,3.5503,3.4755,3.414,3.3788,3.3614,0.0,0.0,0.0,0.0,0.0,0.0,0.0,0.0,0.0,3.424,3.3831,0.0,3.4935,0.0,3.4839,3.5096,3.5129,3.5822,0.0,0.0,3.8053,3.896,3.896,4.0127,4.0905,4.0935,4.1811,4.259,4.303,4.3648,4.4197,4.4526,4.4975,4.5783,4.707,4.7189,4.713,4.7249,4.7279,4.7309,4.7309,4.7309,4.7352,4.7439,4.7602,4.7847,4.8248,4.8716,4.9078,4.9372,4.9733,4.9501,4.8728,4.8883,4.8811,4.8218,4.8175,4.8552,4.9169,4.9381,4.9501,4.8925,4.8267,4.7967,4.7638,4.7309,4.7309,4.7309,4.7279,4.692,4.6621,4.6352,4.5723,4.5394,4.5244,4.4616,4.4496,4.4706,4.4377,4.4934,4.6219,4.5933,4.5783,4.5843,4.5691,4.5203,4.4425,4.4639,4.4533,4.4189,4.4648,4.4761,4.4534,4.439,4.4205,4.3912,4.2735,4.2469,4.3102,4.3229,4.318,4.288,4.1923,4.1272,4.0943,3.929,3.8392,3.8392,3.7199,3.6611,3.6813,3.595,3.5432,3.5424,3.4888,3.4592,0.0,0.0,0.0,0.0,0.0,0.0,0.0,0.0,0.0,0.0,0.0,3.5926,3.5866,3.616,3.6357,3.6357,3.6956,3.7345,3.7404,3.8601,3.9493,3.9828,4.0756,4.1594,4.2192,4.2581,4.291,4.326,4.3658,4.3988,4.4257,4.4646,4.5244,4.6172,4.6411,4.6501,4.68,4.686,4.698,4.7249,4.7309,4.7309,4.7309,4.7309,4.7392,4.7558,4.7962,4.8377,4.8552,4.8992,4.9097,4.851,4.8521,4.8418,4.7558,4.7383,4.7965,4.9035,4.9452,4.9559,4.8237,4.8117,4.7549,4.7309,4.7309,4.7309,4.7309,4.7309,4.7219,4.6471,4.5244,4.4586,4.4646,4.5125,4.4466,4.4496,4.5035,4.5035,4.5454,4.6172,4.607,4.5783,4.5346,4.5626,4.5331,4.4557,4.511,4.531,4.5136,4.5173,4.521,4.521,4.5247,4.5284,4.5247,4.3949,4.3526,4.3988,4.3596,4.3099,4.253,4.1811,4.1055,4.0397,3.902,3.8212,3.8123,3.6985,3.6866,3.7913,3.6956,3.663,3.7139,3.6314,3.5748,0.0,3.5195,0.0,0.0,0.0,0.0,0.0,0.0,0.0,0.0,3.6597,3.697,3.7481,3.7507,3.7473,3.7473,3.8038,3.8153,3.7644,3.8721,3.9798,4.0457,4.1115,4.1953,4.309,4.323,4.329,4.317,4.323,4.3529,4.4007,4.4137,4.4407,4.4915,4.5244,4.5603,4.6142,4.6249,4.6591,4.704,4.7219,4.7309,4.7309,4.7189,4.7109,4.6947,4.7357,4.7676,4.7518,4.8019,4.8326,4.7969,4.7958,4.7722,4.6756,4.6857,4.7589,4.8674,4.9148,4.9442,4.7967,4.7489,4.7369,4.7309,4.7309,4.7309,4.7309,4.7279,4.6741,4.6052,4.5244,4.4586,4.4377,4.4436,4.3768,4.3529,4.3648,4.3678,4.4347,4.5454,4.4945,4.4915,4.5244,4.4847,4.4469,4.4134,4.4226,4.4427,4.4723,4.5024,4.521,4.521,4.5536,4.5682,4.5646,0.0,0.0,0.0,4.391,4.3654,4.312,4.1983,4.1085,4.0397,3.8571,0.0,3.6836,3.6118,3.5789,3.6028,3.5818,0.0,0.0,0.0,0.0,0.0,0.0,0.0,0.0,0.0,0.0,0.0,3.8584,3.8431,3.8077,3.8069,3.819,3.8282,3.8047,3.791,3.791,3.8176,3.8332,3.8272,3.9409,4.0457,4.1145,4.1811,4.2351,4.256,4.3,4.312,4.2671,4.3,4.3319,4.3469,4.3469,4.3529,4.3678,4.4616,4.5304,4.5514,4.5903,4.6322,4.6501,4.692,4.7249,4.7249,4.683,4.6501,4.6419,4.6362,4.6386,4.6336,4.7099,4.764,4.7258,4.7862,4.7954,4.7001,4.7385,4.7942,4.7905,4.7783,4.8083,4.7608,4.7309,4.7309,4.7309,0.0,4.7309,4.7309,4.7249,4.6591,4.5933,4.5244,4.4257,4.3977,4.4287,4.3589,4.329,4.3319,4.3618,4.4167,4.4796,4.4466,4.4466,4.4796,4.4137,4.3858,4.3988,4.3793,4.391,4.4335,4.4723,4.4911,4.4911,4.5499,4.5823,4.5792,4.5609,4.4986,4.4026,4.3988,4.346,4.241,4.1743,4.0756,3.9439,3.8123,0.0,0.0,0.0,0.0,0.0,0.0,0.0,0.0,3.7879,0.0,3.7523,3.7801,3.8018,3.8018,3.8936,3.9503,3.9626,4.0388,4.0292,3.91,3.9135,3.9323,3.9496,3.9324,3.9154,3.9013,3.9108,3.9113,3.8966,3.9499,4.0187,4.0816,4.1512,4.1901,4.1961,4.2462,4.2701,4.244,4.2611,4.297,4.323,4.329,4.329,4.3349,4.3868,4.4407,4.4766,4.5364,4.5813,4.5873,4.6381,4.6681,4.6381,4.6322,4.6052,4.5382,4.547,4.5585,4.5343,4.5869,4.6364,4.6271,4.6626,4.6709,4.5938,4.6324,4.6841,4.6713,4.7115,4.7642,4.713,4.713,4.713,4.7189,4.7309,4.7189,4.698,4.6741,0.0,0.0,0.0,4.3768,4.3589,4.4077,4.3529,4.329,4.3319,4.3898,4.4197,4.4317,4.4197,4.4157,4.4287,4.3589,4.3527,4.3949,4.3527,4.3566,4.4104,4.4343,4.4572,4.4761,4.5389,4.5682,4.5714,4.5682,4.5129,4.4065,4.4065,4.3304,4.1632,4.1482,4.0487,3.8601,3.7943,3.7524,3.7404,3.6926,3.7064,3.7879,3.8493,3.8727,3.8635,3.9223,3.932,3.8735,3.8896,3.8989,3.8924,4.0198,4.1022,4.1087,4.1789,4.1596,3.998,4.0146,4.0395,4.0684,4.0612,4.0439,4.0086,4.0011,3.9833,3.9445,3.9403,3.9679,4.0307,4.0876,4.1242,4.1332,4.1811,4.2231,4.2201,4.2351,4.265,4.314,4.329,4.329,4.329,4.3349,4.3589,4.4037,4.4706,4.5125,4.5214,4.5693,4.5873,4.5514,4.5693,4.5544,4.4736,4.4676,4.4706,4.4267,4.4676,4.5076,4.5125,4.5316,4.5106,4.4518,4.4929,4.5487,4.5619,4.6521,4.7259,4.6471,4.6471,4.6471,4.68,4.7279,4.6711,4.5813,4.4796,4.5244,4.4736,4.3559,4.3379,4.3349,4.3409,4.3349,4.329,4.329,4.3409,4.3738,4.4287,4.3708,4.3738,4.4257,4.3589,4.3557,4.3949,4.3527,4.3723,4.4412,4.422,4.445,4.5061,4.521,4.5284,4.5284,4.5284,4.4874,4.4026,4.4374,4.3785,4.2329,4.1722,4.0726,3.9349,3.8601,3.7973,3.7434,3.7315,3.7485,3.7946,3.8071,3.8371,3.8929,3.9649,3.9811,3.9472,4.0324,4.0737,4.0323,4.1268,4.1929,4.2108,4.1916,4.1558,4.1363,4.1332,4.1395,4.1423,4.1189,4.0851,4.047,4.0156,3.9869,3.9481,3.9403,3.9642,4.0277,4.0487,4.0546,4.0546,4.1153,4.1572,4.1662,4.2051,4.2551,4.311,4.329,4.329,4.329,4.329,4.3319,4.3469,4.4018,4.4407,4.4526,4.5005,4.5304,4.5304,4.4885,4.4676,4.4317,4.3917,4.3708,4.3499,4.4018,4.4377,4.4466,4.4915,4.4948,4.471,4.4838,4.503,4.5184,4.5553,4.6122,4.6279,4.6279,4.6279,4.6711,4.7249,4.6548,4.5574,4.4377,4.4616,4.4227,4.3349,4.329,4.329,4.329,4.329,4.329,4.329,4.329,4.3439,4.3708,4.3439,4.3439,4.3708,4.3439,4.3409,4.3566,4.3409,4.3488,4.3879,4.3949,4.4181,4.4534,4.4761,4.4874,4.4874,4.4874,4.4572,4.4026,4.4181,4.3654,4.2449,4.1752,4.0756,3.9469,3.8751,3.8272,3.7943,3.7943,3.8219,3.8794,3.9164,3.9532,3.9847,4.0541,4.0826,4.0672,4.1406,4.182,4.1598,4.2225,4.257,4.2429,4.2174,4.2045,4.2045,4.2013,4.2045,4.2013,4.1883,4.1522,4.0885,4.0505,4.0121,3.9762,3.9517,3.9529,3.9828,4.0217,4.0247,4.0008,4.0427,4.0995,4.1324,4.1692,4.2252,4.305,4.329,4.329,4.329,4.329,4.329,4.3319,4.3559,4.3708,4.3768,4.4317,4.4556,4.4276,4.4287,4.4137,4.3858,4.3439,4.3349,4.329,4.3559,4.3708,4.3778,4.3947,4.4098,4.4128,4.4255,4.4464,4.4785,4.5173,4.5824,4.592,4.6082,4.6082,4.6381,4.68,4.6142,4.5125,4.3928,4.3868,4.3599,4.315,4.32,4.329,4.329,4.329,4.329,4.329,4.329,4.329,4.329,4.329,4.329,4.329,4.329,4.329,4.329,4.329,4.329,4.3329,4.3645,4.391,4.4026,4.4381,4.4534,4.4458,4.4458,4.4258,4.3871,4.3871,4.3382,4.241,4.1901,4.1055,3.9948,3.9349,3.899,3.8871,3.8841,3.9134,3.9702,4.0228,4.06,4.0828,4.1304,4.1654,4.1785,4.227,4.2586,4.2711,4.2743,4.268,4.2429,4.2365,4.2429,4.2523,4.2555,4.2492,4.2397,4.2333,4.2013,4.1223,4.082,4.0474,4.0081,3.9625,3.9439,3.9469,3.9888,4.0008,3.9523,3.9888,4.0457,4.1145,4.1422,4.1923,4.2991,4.329,4.329,4.329,4.329,4.329,4.329,4.329,4.3319,4.3319,4.3708,4.3828,4.3349,4.3708,4.3738,4.3439,4.3319,4.329,4.329,4.329,4.3429,4.3438,4.3399,4.3429,4.3617,4.3775,4.4018,4.4564,4.5136,4.5646,4.4885,4.5334,4.5424,4.5424,4.5454,4.4825,4.3808,4.271,4.259,4.256,4.256,4.306,4.329,4.329,4.329,4.329,4.329,4.329,4.329,4.329,4.329,4.329,4.329,4.329,4.329,4.329,4.329,4.329,4.329,4.3369,4.3566,4.3988,4.4412,4.4381,4.4104,4.4065,4.3832,4.3369,4.3369,4.3039,4.244,4.2321,4.1961,4.1235,4.1153,4.0853,4.0157,4.0217,4.0281,4.0405,4.0443,4.0786,4.1395,4.1557,4.1818,4.227,4.2774,4.3202,4.3535,4.2459,4.198,4.2333,4.2365,4.2523,4.2929,4.2958,4.2836,4.2492,4.2365,4.198,4.1223,4.106,4.0721,4.0081,3.9655,3.9403,3.9403,3.9433,3.9469,3.9403,3.9493,3.9978,4.1115,4.1474,4.1983,4.311,4.329,4.329,4.329,4.329,4.329,4.329,4.329,4.329,4.3319,4.3319,4.3409,4.3319,4.3349,4.3379,4.3319,4.329,4.329,4.3409,4.3369,4.3488,4.3684,4.3645,4.3488,4.3714,4.3754,4.3645,4.4381,4.4986,4.5358,4.5035,4.5334,4.5753,4.5663,4.5244,4.4586,4.3569,4.244,4.2381,4.2381,4.25,4.306,4.329,4.329,4.329,4.329,4.329,4.329,4.329,4.329,4.329,4.329,4.329,4.329,4.329,4.329,4.329,4.329,4.329,4.329,4.3409,4.3566,4.3762,4.3879,4.3988,4.3988,4.391,4.3714,4.3684,4.3446,4.298,4.259,4.2291,4.1991,4.1632,4.1085,4.0487,4.0397,4.0462,4.0497,4.0505,4.0817,4.1555,4.1588,4.1818,4.2365,4.3113,4.3476,4.3353,4.2803,4.2301,4.198,4.1916,4.2077,4.2269,4.2077,4.1948,4.2045,4.2045,4.1688,4.0885,4.0581,4.0335,4.0046,3.9655,3.9403,3.9403,3.9403,3.9403,3.9403,3.9403,3.9918,4.1175,4.2073,4.2701,4.323,4.329,4.329,4.329,4.329,4.329,4.329,4.329,4.329,4.329,4.329,4.329,4.329,4.329,4.329,4.329,4.329,4.3369,4.3606,4.3606,4.3801,4.4266,4.3996,4.3832,4.391,4.3949,4.3871,4.422,4.4761,4.521,4.5274,4.5424,4.6232,4.6172,4.5514,4.4676,4.3688,4.2671,4.247,4.2381,4.247,4.306,4.329,4.329,4.329,4.329,4.329,4.329,4.329,4.329,4.329,4.329,4.329,4.329,4.329,4.329,4.329,4.329,4.329,4.329,4.329,4.329,4.3409,4.3645,4.3988,4.4104,4.4181,4.4181,4.4065,4.3832,4.3467,4.2959,4.268,4.2581,4.2162,4.1572,4.0845,4.092,4.0915,4.0808,4.0782,4.1062,4.1673,4.1649,4.1883,4.2555,4.3235,4.3535,4.3295,4.3052,4.2555,4.1754,4.1687,4.1688,4.1689,4.1491,4.1458,4.1722,4.1688,4.1292,4.0783,4.037,4.0156,4.0011,3.9625,3.9403,3.9403,3.9403,3.9403,3.9403,3.9403,3.9828,4.0995,4.2132,4.297,4.3,4.317,4.329,4.329,4.329,4.329,4.329,4.329,4.329,4.329,4.329,4.329,4.329,4.329,4.329,4.329,4.329,4.3329,4.3527,4.3723,4.391,4.4143,4.4026,4.3832,4.3832,4.3793,4.3871,4.4026,4.4534,4.4874,4.5274,4.5514,4.6711,4.683,4.613,4.4855,4.3888,4.314,4.2641,4.2381,4.247,4.306,4.329,4.329,4.329,4.329,4.329,4.329,4.329,4.329,4.329,4.329,4.329,4.329,4.329,4.329,4.329,4.329,4.329,4.329,4.329,4.3329,4.3723,4.3988,4.4104,4.4381,4.4572,4.4534,4.4258,4.4026,4.3918,4.3467,4.3219,4.3219,4.32,4.2668,4.1889,4.2084,4.2002,4.1454,4.1366,4.1573,4.1991,4.1769,4.2077,4.2959,4.3143,4.3323,4.3499,4.2927,4.2269,4.1852,4.1722,4.1754,4.1656,4.1591,4.1591,4.1754,4.1292,4.0987,4.0987,4.065,4.0374,3.998,3.9655,3.9439,3.9403,3.9403,3.9403,3.9403,3.9433,3.9858,4.0487,4.1594,4.241,4.2641,4.3,4.329,4.329,4.329,4.329,4.329,4.329,4.329,4.329,4.329,4.329,4.329,4.329,4.329,4.329,4.329,4.3329,4.3369,4.3488,4.3675,4.3832,4.3793,4.3557,4.3478,4.3448,4.3557,4.3793,4.3949,4.4297,4.6202,4.6621,4.71,4.692,4.616,4.4885,4.3917,4.326,4.2641,4.2381,4.25,4.303,4.329,4.329,4.329,4.329,4.329,4.329,4.329,4.329,4.329,4.329,4.329,4.329,4.329,4.329,4.329,4.329,4.329,4.329,4.3448,4.3754,4.391,4.4258,4.4685,4.4911,4.4986,4.4986,4.4836,4.4648,4.4351,4.3762,4.3404,4.3396,4.3356,4.256,4.0972,4.146,4.1377,4.0583,4.0703,4.1017,4.1463,4.1878,4.2555,4.3416,4.3565,4.3274,4.2762,4.279,4.2297,4.1214,4.1434,4.1458,4.1057,4.0956,4.0987,4.0854,4.0405,4.0196,4.0574,4.0439,4.0091,3.9696,3.9511,3.9403,3.9403,3.9403,3.9403,3.9463,3.9768,4.0307,4.0876,4.1841,4.253,4.291,4.317,4.329,4.329,4.329,4.329,4.329,4.329,4.329,4.329,4.329,4.329,4.329,4.329,4.329,4.329,4.329,4.3329,4.3566,4.3606,4.3684,4.3988,4.3871,4.3566,4.3329,4.329,4.3369,4.3518,4.3754,4.4026,4.6466,4.7249,4.7309,4.6791,4.5875,4.5042,4.4135,4.3318,4.2862,4.2671,4.2761,4.311,4.329,4.329,4.329,4.329,4.329,4.329,4.329,4.329,4.329,4.329,4.329,4.329,4.329,4.329,4.329,4.329,4.329,4.329,4.3527,4.3988,4.4104,4.4534,4.5098,4.5321,4.5426,4.5358,4.5284,4.5061,4.4737,4.4178,4.3611,4.326,4.3328,4.2538,4.0855,4.1287,4.1173,4.0496,4.0497,4.0759,4.112,4.1433,4.2202,4.335,4.333,4.3102,4.2693,4.3059,4.2639,4.115,4.124,4.1225,4.0749,4.0608,4.0608,4.0643,4.0366,4.0191,4.0301,4.0191,3.9869,3.9481,3.9403,3.9403,3.9403,3.9403,3.9403,3.9433,3.9738,4.0247,4.0726,4.1504,4.2102,4.2671,4.3,4.329,4.329,4.329,4.329,4.329,4.329,4.329,4.329,4.329,4.329,4.329,4.329,4.329,4.329,4.329,4.3369,4.3645,4.384,4.3957,4.3957,4.3879,4.3684,4.3369,4.329,4.3329,4.3448,4.3527,4.3801,4.6004,4.7076,4.7266,4.6415,4.5345,4.5065,4.4401,4.3307,4.3218,4.3051,4.2931,4.322,4.325,4.325,4.325,4.329,4.329,4.329,4.329,4.329,4.329,4.329,4.329,4.329,4.329,4.329,4.329,4.329,4.329,4.3329,4.3527,4.4026,4.4381,4.4761,4.521,4.5573,4.5787,4.5682,4.5395,4.521,4.5173,4.475,4.3945,4.2921,4.3187,4.2775,4.1515,4.1742,4.1462,4.0921,4.0836,4.0944,4.0987,4.0591,4.099,4.2639,4.2425,4.2568,4.3389,4.3459,4.2794,4.1694,4.1333,4.1227,4.1021,4.0749,4.0814,4.1223,4.1055,4.0817,4.047,4.0156,3.9768,3.9481,3.9403,3.9403,3.9403,3.9403,3.9403,3.9403,3.9493,3.9469,3.9768,4.0726,4.1624,4.2013,4.2701,4.323,4.32,4.32,4.329,4.317,4.32,4.326,4.326,4.326,4.329,4.329,4.329,4.329,4.329,4.329,4.329,4.3488,4.3488,4.3606,4.3606,4.3566,4.3527,4.329,4.329,4.329,4.3369,4.3448,4.3566,4.496,4.5734,4.5763,4.5325,4.4556,4.4052,4.3372,4.2651,4.2597,4.2374,4.214,4.29,4.305,4.278,4.309,4.329,4.329,4.329,4.329,4.329,4.329,4.329,4.329,4.329,4.329,4.329,4.329,4.329,4.329,4.329,4.3645,4.4305,4.4534,4.4949,4.5536,4.5719,4.5823,4.5787,4.5682,4.5609,4.5546,4.5028,4.4454,4.4015,4.3357,4.2591,4.1973,4.174,4.1311,4.0668,4.0607,4.0797,4.0992,4.0668,4.1105,4.2298,4.1499,4.0922,4.1314,4.1642,4.1432,4.0642,4.0955,4.1295,4.1122,4.0953,4.0987,4.1156,4.0746,4.0331,4.0366,3.9945,3.9553,3.9409,3.9403,3.9403,3.9403,3.9403,3.9403,3.9403,3.9403,3.9798,4.0546,4.1265,4.1654,4.2372,4.2931,4.314,4.2851,4.306,4.2811,4.2252,4.2671,4.312,4.297,4.303,4.321,4.326,4.329,4.329,4.329,4.329,4.329,4.329,4.329,4.329,4.329,4.329,4.329,4.329,4.329,4.329,4.329,4.3369,4.3488,4.4482,4.5098,4.5127,4.4431,4.3527,4.3234,4.2579,4.1725,4.1846,4.1686,4.1561,4.214,4.2333,4.2099,4.2618,4.29,4.297,4.317,4.329,4.329,4.329,4.329,4.329,4.329,4.329,4.329,4.329,4.329,4.329,4.3329,4.3645,4.4266,4.4534,4.4911,4.5536,4.5719,4.5823,4.5823,4.5823,4.5823,4.5728,4.5349,4.5001,4.4591,4.3643,4.2877,4.2322,4.1831,4.1214,4.0636,4.0505,4.0591,4.0716,4.0197,4.0435,4.1438,4.0991,4.0482,4.1166,4.1589,4.1023,4.042,4.0893,4.1103,4.0738,4.0668,4.0885,4.0783,4.0366,4.0117,4.0156,3.9768,3.9409,3.9403,3.9403,3.9403,3.9403,3.9403,3.9403,3.9403,3.9403,3.9888,4.0397,4.1235,4.1504,4.2222,4.2671,4.291,4.259,4.2731,4.2282,4.2043,4.2432,4.2611,4.25,4.2671,4.303,4.321,4.329,4.329,4.329,4.329,4.329,4.329,4.329,4.329,4.329,4.329,4.329,4.329,4.329,4.329,4.329,4.329,4.3369,4.434,4.4989,4.4989,4.3821,4.2356,4.2737,4.1956,4.064,4.0972,4.1212,4.1198,4.1495,4.1381,4.1436,4.2133,4.2491,4.2415,4.305,4.329,4.329,4.329,4.329,4.329,4.329,4.329,4.329,4.329,4.329,4.329,4.329,4.3527,4.4026,4.4381,4.4799,4.521,4.5573,4.575,4.5787,4.5823,4.5823,4.5823,4.576,4.5476,4.4843,4.4117,4.3516,4.2976,4.2088,4.1286,4.0646,4.0608,4.0436,3.9953,3.9073,3.9715,4.1084,4.0256,4.0793,4.2158,4.1909,4.1405,4.0452,4.0697,4.0714,3.9939,4.0238,4.0608,4.0574,4.0191,4.0011,3.9975,3.9625,3.9439,3.9403,3.9403,3.9403,3.9403,3.9403,3.9403,3.9403,3.9403,3.9463,3.9738,4.0726,4.1085,4.1265,4.1923,4.2462,4.25,4.256,4.247,4.244,4.241,4.256,4.253,4.2761,4.309,4.317,4.329,4.329,4.329,4.329,4.329,4.329,4.329,4.329,4.329,4.329,4.329,4.329,4.329,4.329,4.329,4.329,4.329,4.3307,4.3471,4.3471,4.2642,4.1515,4.159,4.115,4.0319,4.0439,4.0566,4.0697,4.1551,4.1341,4.0801,4.226,4.2719,4.2544,4.301,4.329,4.329,4.329,4.329,4.329,4.329,4.329,4.329,4.329,4.329,4.329,4.329,4.3527,4.3988,4.4143,4.4534,4.5136,4.5321,4.5536,4.5787,4.5823,4.5823,4.5823,4.5823,4.5728,4.5507,4.4812,4.4338,4.399,4.2473,4.1423,4.0987,4.0919,4.0507,3.9818,3.9745,3.9926,4.0008,3.9723,3.9597,4.0322,4.0355,3.9818,3.9304,4.0075,4.0307,3.9622,4.0139,4.0443,4.0436,4.0191,3.9975,3.991,3.9625,3.9409,3.9403,3.9373,3.9403,3.9403,3.9403,3.9403,3.9403,3.9403,3.9582,4.0068,4.0726,4.1384,4.1713,4.2222,4.2791,4.256,4.2641,4.2671,4.2282,4.2222,4.2462,4.2671,4.294,4.311,4.323,4.329,4.329,4.329,4.329,4.329,4.329,4.329,4.329,4.329,4.329,4.329,4.329,4.329,4.329,4.329,4.329,4.329,4.29,4.29,4.29,4.2195,4.1218,4.1381,4.0865,4.0033,4.0128,4.0073,4.0121,4.0932,4.0969,4.0516,4.2019,4.2631,4.2404,4.301,4.329,4.329,4.329,4.329,4.329,4.329,4.329,4.329,4.329,4.329,4.329,4.329,4.3478,4.3723,4.4104,4.4496,4.4911,4.5321,4.5573,4.5787,4.5823,4.5823,4.5823,4.5823,4.5823,4.5665,4.5096,4.4622,4.4148,4.3105,4.2057,4.1135,4.06,4.025,4.0022,3.9823,3.9899,3.9945,3.985,4.0008,4.0293,4.0071,3.947,3.8989,3.9439,3.9299,3.9045,3.947,3.9864,3.9985,3.9839,3.9768,3.9696,3.9517,3.926,3.905,3.923,3.9373,3.9403,3.9403,3.9403,3.9403,3.9403,3.9493,3.9978,4.0576,4.1085,4.1474,4.1863,4.2222,4.244,4.2731,4.288,4.2491,4.2252,4.2462,4.262,4.2791,4.312,4.323,4.329,4.329,4.329,4.329,4.329,4.329,4.329,4.329,4.329,4.329,4.329,4.329,4.329,4.329,4.329,4.329,4.329,4.29,4.29,4.29,4.2222,4.1381,4.1679,4.1001,3.9834,3.9879,3.9852,3.9741,4.015,4.0498,4.0402,4.1875,4.2409,4.2363,4.301,4.325,4.329,4.329,4.329,4.329,4.329,4.329,4.329,4.329,4.329,4.329,4.329,4.329,4.3488,4.4073,4.4458,4.4723,4.5278,4.5677,4.5787,4.5823,4.5823,4.5823,4.5823,4.5823,4.5728,4.5317,4.4527,4.3987,4.3482,4.2819,4.0925,4.0198,4.0356,4.0639,3.9783,3.9817,4.0483,4.0706,4.0928,4.137,4.0991,4.0482,3.9649,3.9102,3.8558,3.8595,3.8987,3.9243,3.9523,3.9409,3.9445,3.9445,3.9409,3.929,3.905,3.929,3.9343,3.9463,3.9433,3.9403,3.9403,3.9403,3.9403,3.9553,3.9948,4.0457,4.0965,4.1504,4.2171,4.247,4.2731,4.2821,4.2701,4.2581,4.256,4.259,4.262,4.294,4.317,4.326,4.329,4.329,4.329,4.329,4.329,4.329,4.329,4.329,4.329,4.329,4.329,4.329,4.329,4.329,4.329,4.329,4.29,4.29,4.29,4.2466,4.1815,4.1415,4.1082,4.0621,3.9807,3.9743,4.0068,4.0703,4.0749,4.0445,4.209,4.2748,4.2444,4.301,4.329,4.329,4.329,4.329,4.329,4.329,4.329,4.329,4.329,4.329,4.329,4.329,4.329,4.3369,4.3606,4.3957,4.4572,4.4836,4.5204,4.5646,4.5823,4.5823,4.5823,4.5823,4.5823,4.5792,4.5634,4.4938,4.3955,4.3703,4.3232,4.2473,4.2031,4.1715,4.1429,4.1175,4.1085,4.1151,4.1213,4.1374,4.1596,4.1625,4.1395,4.101,4.0245,3.9906,3.9564,3.907,3.9138,3.9331,3.9403,3.9373,3.9313,3.9373,3.9529,3.9649,3.9619,3.9672,3.9978,3.9702,3.9493,3.9403,3.9433,3.9403,3.9433,3.9948,4.0307,4.0516,4.1175,4.2081,4.253,4.2791,4.288,4.291,4.294,4.288,4.288,4.288,4.303,4.32,4.326,4.329,4.329,4.329,4.329,4.329,4.329,4.329,4.329,4.329,4.329,4.329,4.329,4.329,4.329,4.329,4.329,4.29,4.29,4.29,4.2385,4.1652,4.1517,4.1055,4.0368,4.0275,4.0189,4.0482,4.1267,4.1539,4.1367,4.2573,4.3035,4.2909,4.309,4.329,4.329,4.329,4.329,4.329,4.329,4.329,4.329,4.329,4.329,4.329,4.329,4.329,4.3329,4.3488,4.3996,4.4534,4.4761,4.521,4.5682,4.5823,4.5823,4.5823,4.5823,4.5823,4.5823,4.5792,4.5381,4.4812,4.4682,4.4338,4.3769,4.3327,4.3011,4.26,4.2284,4.2164,4.2393,4.2623,4.2621,4.2676,4.2518,4.2389,4.2122,4.1041,4.0591,4.0194,3.9585,3.9273,3.9516,3.9487,3.9284,3.905,3.9679,3.9948,3.9948,4.0217,4.0487,4.0666,4.0277,3.9738,3.9619,3.9672,3.9612,3.9768,3.9948,4.0427,4.0726,4.1085,4.1961,4.2851,4.312,4.314,4.317,4.323,4.323,4.323,4.32,4.317,4.326,4.329,4.329,4.329,4.329,4.329,4.329,4.329,4.329,4.329,4.329,4.329,4.329,4.329,4.329,4.329,4.329,4.329,4.29,4.29,4.29,4.2304,4.1517,4.1707,4.1028,3.9951,4.0592,4.0618,4.063,4.1686,4.2146,4.2404,4.293,4.328,4.329,4.325,4.329,4.329,4.329,4.329,4.329,4.329,4.329,4.329,4.329,4.329,4.329,4.329,4.329,4.3369,4.3645,4.3996,4.4458,4.4911,4.521,4.5573,4.5719,4.5823,4.5823,4.5823,4.5823,4.5823,4.5823,4.5792,4.5602,4.5602,4.5444,4.4907,4.4306,4.4085,4.3832,4.3169,4.3074,4.3677,4.3926,4.3827,4.3751,4.3633,4.3446,4.3042,4.1702,4.1156,4.1233,4.0608,4.0165,4.0092,4.0112,3.9709,3.905,3.9858,4.0277,4.0277,4.0935,4.1324,4.1452,4.0995,4.0516,3.9828,3.9948,3.9978,3.9738,3.9702,4.0367,4.0965,4.1324,4.1803,4.2731,4.329,4.329,4.329,4.329,4.329,4.329,4.329,4.329,4.329,4.329,4.329,4.329,4.329,4.329,4.329,4.329,4.329,4.329,4.329,4.329,4.329,4.329,4.329,4.329,4.329,4.329,4.29,4.29,4.29,4.2765,4.2466,4.1679,4.111,4.0767,4.0609,4.0399,4.0531,4.1715,4.2333,4.2496,4.301,4.329,4.323,4.326,4.326,4.326,4.326,4.329,4.329,4.329,4.329,4.329,4.329,4.329,4.329,4.329,4.329,4.3329,4.3409,4.3684,4.4143,4.4496,4.4911,4.5321,4.5609,4.575,4.5823,4.5823,4.5823,4.5823,4.5823,4.5823,4.5823,4.5823,4.576,4.5634,4.5507,4.5412,4.5001,4.3706,4.3548,4.4215,4.4253,4.4253,4.4468,4.4503,4.4791,4.478,4.3728,4.3211,4.3126,4.2319,4.1498,4.1298,4.1203,4.0905,4.0943,4.1063,4.1452,4.1632,4.1594,4.1713,4.2081,4.2021,4.1512,4.0606,4.0457,4.0337,4.0157,4.0098,4.0636,4.1235,4.1722,4.2013,4.2671,4.311,4.329,4.329,4.329,4.329,4.329,4.329,4.329,4.329,4.329,4.329,4.329,4.329,4.329,4.329,4.329,4.329,4.329,4.329,4.329,4.329,4.329,4.329,4.329,4.329,4.329,4.29,4.29,4.29,4.2711,4.2358,4.1842,4.1191,4.0731,4.1084,4.1113,4.1283,4.217,4.285,4.289,4.313,4.314,4.2931,4.317,4.312,4.297,4.311,4.329,4.329,4.329,4.329,4.329,4.329,4.329,4.329,4.329,4.329,4.329,4.329,4.3527,4.391,4.422,4.4648,4.5061,4.5395,4.5609,4.5787,4.5823,4.5823,4.5823,4.5823,4.5823,4.5823,4.5823,4.5823,4.5728,4.5444,4.5507,4.5286,4.478,4.418,4.497,4.4903,4.4839,4.5223,4.5286,4.5444,4.557,4.4812,4.4362,4.4122,4.3341,4.2545,4.2047,4.1686,4.1422,4.1362,4.1683,4.2081,4.2321,4.2312,4.2521,4.2731,4.2821,4.2252,4.1504,4.1504,4.1294,4.0786,4.0846,4.1085,4.1504,4.2051,4.2372,4.2731,4.303,4.329,4.329,4.329,4.329,4.329,4.329,4.329,4.329,4.329,4.329,4.329,4.329,4.329,4.329,4.329,4.329,4.329,4.329,4.329,4.329,4.329,4.329,4.329,4.329,4.329,4.29,4.29,4.29,4.2629,4.2222,4.2032,4.1462,4.0896,4.1539,4.1624,4.1468,4.231,4.278,4.2831,4.2683,4.2466,4.2207,4.2674,4.2634,4.2641,4.306,4.329,4.329,4.329,4.329,4.329,4.329,4.329,4.329,4.329,4.329,4.329,4.329,4.3448,4.3793,4.3988,4.4458,4.4874,4.5173,4.5426,4.5682,4.5823,4.5823,4.5823,4.5823,4.5823,4.5823,4.5823,4.5823,4.5665,4.5412,4.5223,4.5602,4.5254,4.5223,4.5697,4.5792,4.5823,4.5792,4.576,4.5728,4.576,4.5286,4.5033,4.4768,4.4199,4.3293,4.2609,4.2251,4.2038,4.2081,4.2252,4.256,4.2671,4.303,4.326,4.32,4.314,4.303,4.2611,4.2611,4.2141,4.1384,4.1512,4.1683,4.1923,4.244,4.2731,4.306,4.315,4.329,4.329,4.329,4.329,4.329,4.329,4.329,4.329,4.329,4.329,4.329,4.329,4.329,4.329,4.329,4.329,4.329,4.329,4.329,4.329,4.329,4.329,4.329,4.329,4.329,4.29,4.29,4.29,4.2846,4.2683,4.2249,4.1951,4.1719,4.1529,4.1267,4.1247,4.1454,4.1657,4.1513,4.1081,4.1134,4.1408,4.1735,4.2001,4.2303,4.297,4.329,4.329,4.329,4.329,4.329,4.329,4.329,4.329,4.329,4.329,4.329,4.329,4.3329,4.3488,4.3754,4.4258,4.4648,4.5024,4.5426,4.575,4.5823,4.5823,4.5823,4.5823,4.5823,4.5823,4.5823,4.5823,4.5792,4.5728,4.5697,4.5792,4.576,4.5697,4.5792,4.5823,4.5823,4.5823,4.5823,4.5823,4.5823,4.5634,4.5665,4.5399,4.5118,4.452,4.4363,4.3846,4.337,4.3007,4.3129,4.321,4.315,4.321,4.3329,4.3329,4.329,4.314,4.314,4.297,4.2402,4.1743,4.2013,4.2321,4.2521,4.2791,4.309,4.326,4.329,4.329,4.329,4.329,4.329,4.329,4.329,4.329,4.329,4.329,4.329,4.329,4.329,4.329,4.329,4.329,4.329,4.329,4.329,4.329,4.329,4.329,4.329,4.329,4.329,4.329,4.2631,4.29,4.29,4.29,4.2873,4.2602,4.2304,4.2011,4.1791,4.1497,4.1255,4.127,4.111,4.0726,4.0494,4.0371,4.0529,4.1027,4.1528,4.2025,4.2722,4.329,4.329,4.329,4.329,4.329,4.329,4.329,4.329,4.329,4.329,4.329,4.329,4.329,4.329,4.3518,4.3871,4.4305,4.4836,4.5426,4.5682,4.5823,4.5823,4.5823,4.5823,4.5823,4.5823,4.5823,4.5823,4.5823,4.5823,4.5823,4.5823,4.5792,4.5823,4.5823,4.5823,4.5823,4.5823,4.5823,4.5823,4.5823,4.5823,4.5792,4.5719,4.5463,4.5173,4.4918,4.4572,4.4151,4.3801,4.3714,4.3714,4.3675,4.3488,4.3527,4.3557,4.3329,4.326,4.329,4.326,4.2722,4.2372,4.2581,4.2791,4.288,4.303,4.314,4.329,4.329,4.329,4.329,4.329,4.329,4.329,4.329,4.329,4.329,4.329,4.329,4.329,4.329,4.329,4.329,4.329,4.329,4.329,4.3349,4.3409,4.3379,4.329,4.3379,4.3439,4.329,4.329,4.2239,4.2679,4.2825,4.29,4.29,4.29,4.2629,4.229,4.2084,4.1726,4.1185,4.077,4.0224,3.9843,3.9504,3.9098,3.9083,4.0187,4.0861,4.1486,4.2354,4.305,4.323,4.329,4.329,4.329,4.329,4.329,4.329,4.329,4.329,4.329,4.329,4.329,4.329,4.3369,4.3606,4.4266,4.4874,4.5358,4.5719,4.5823,4.5823,4.5823,4.5823,4.5823,4.5823,4.5823,4.5823,4.5823,4.5823,4.5823,4.5823,4.5823,4.5823,4.5823,4.5823,4.5823,4.5823,4.5823,4.5823,4.5823,4.5823,4.5823,4.5787,4.5499,4.5247,4.5173,4.4949,4.4572,4.4228,4.4112,4.4143,4.4026,4.3793,4.3871,4.3832,4.3527,4.3329,4.329,4.329,4.329,4.305,4.317,4.326,4.326,4.329,4.329,4.329,4.329,4.329,4.329,4.329,4.329,4.329,4.329,4.329,4.329,4.329,4.329,4.329,4.329,4.329,4.329,4.329,4.329,4.329,4.3409,4.3559,4.3678,4.3738,4.3648,4.3589,4.3439,4.329,4.167,4.2164,4.2679,4.29,4.29,4.29,4.2873,4.2711,4.2236,4.163,4.0777,3.955,3.8863,3.8382,3.7881,3.7619,3.7798,3.8467,3.9731,4.091,4.1831,4.2811,4.314,4.329,4.329,4.329,4.329,4.329,4.329,4.329,4.329,4.329,4.329,4.329,4.329,4.3329,4.3684,4.4305,4.4874,4.5221,4.5546,4.5724,4.576,4.576,4.5792,4.5823,4.5823,4.5823,4.5823,4.5823,4.5823,4.5823,4.5823,4.5823,4.5823,4.5823,4.5823,4.5823,4.5823,4.5823,4.5823,4.5823,4.5823,4.5823,4.5823,4.5823,4.5609,4.5321,4.521,4.4986,4.4685,4.4534,4.4534,4.4419,4.4228,4.4104,4.3988,4.3645,4.3448,4.3329,4.3319,4.3389,4.3688,4.3788,4.3419,4.3389,4.329,4.329,4.329,4.329,4.329,4.329,4.329,4.329,4.329,4.329,4.329,4.329,4.329,4.329,4.329,4.329,4.329,4.329,4.329,4.329,4.3439,4.3828,4.4137,4.4186,4.4186,4.4127,4.3947,4.3738,4.3499,4.1348,4.2115,4.2338,4.2582,4.29,4.29,4.29,4.2792,4.2249,4.1191,3.9997,3.9237,3.8342,3.7528,3.7434,3.7552,3.819,3.8848,4.0128,4.144,4.2563,4.3021,4.329,4.329,4.329,4.329,4.329,4.329,4.329,4.329,4.329,4.329,4.329,4.329,4.329,4.3329,4.3684,4.4181,4.4617,4.4899,4.4857,4.5462,4.5602,4.5159,4.5697,4.5792,4.5823,4.5823,4.5823,4.5823,4.5823,4.5823,4.5823,4.5823,4.5823,4.5823,4.5823,4.5823,4.5823,4.5823,4.5823,4.5823,4.5823,4.5823,4.5823,4.5823,4.5755,4.5609,4.5536,4.5352,4.5061,4.4949,4.4949,4.4874,4.4685,4.4419,4.4189,4.3918,4.3566,4.3488,4.3568,4.3618,4.4057,4.4458,4.3888,4.3489,4.3389,4.3319,4.3379,4.3319,4.329,4.329,4.329,4.329,4.329,4.329,4.329,4.329,4.329,4.329,4.329,4.329,4.329,4.329,4.3319,4.3349,4.3648,4.4377,4.4526,4.4197,4.4407,4.4706,4.4466,4.4137,4.3868,4.1047,4.1819,4.2016,4.2435,4.29,4.29,4.29,4.2792,4.2276,4.1001,3.9319,3.9102,3.8152,3.7121,3.7202,3.7482,3.8106,3.8979,4.0329,4.1479,4.2387,4.3071,4.323,4.329,4.329,4.329,4.329,4.329,4.329,4.329,4.329,4.329,4.329,4.329,4.329,4.3329,4.3566,4.4143,4.4603,4.4812,4.4851,4.5546,4.5792,4.5286,4.5634,4.5792,4.5823,4.5823,4.5823,4.5823,4.5823,4.5823,4.5823,4.5823,4.5823,4.5823,4.5823,4.5823,4.5823,4.5823,4.5823,4.5823,4.5823,4.5823,4.5823,4.5823,4.5787,4.5787,4.5787,4.5682,4.5358,4.5389,4.5389,4.5284,4.4986,4.4761,4.4648,4.4419,4.3996,4.3684,4.3805,4.4074,4.4268,4.473,4.4941,4.4369,4.3968,4.3838,4.3708,4.3559,4.329,4.329,4.329,4.329,4.329,4.329,4.329,4.329,4.329,4.329,4.329,4.329,4.329,4.329,4.3349,4.3409,4.3938,4.4708,4.4458,4.3928,4.4518,4.53,4.5057,4.4768,4.4368,4.0795,4.1372,4.1819,4.2387,4.2852,4.29,4.2873,4.2711,4.2086,4.0892,3.9346,3.8803,3.7908,3.7039,3.7434,3.7757,3.7895,3.9057,4.0274,4.1266,4.2317,4.2871,4.311,4.329,4.329,4.329,4.329,4.329,4.329,4.329,4.329,4.329,4.329,4.329,4.329,4.3319,4.3793,4.458,4.5241,4.5546,4.5782,4.635,4.636,4.5981,4.6044,4.6234,4.6234,4.6044,4.6044,4.6013,4.6013,4.595,4.5823,4.5918,4.5918,4.5823,4.5823,4.5823,4.5823,4.5823,4.5823,4.5823,4.5823,4.5823,4.5823,4.5823,4.5823,4.5823,4.5823,4.5823,4.5755,4.5719,4.5719,4.5609,4.5284,4.5223,4.5104,4.5084,4.4695,4.4573,4.4555,4.4572,4.472,4.4989,4.5606,4.5444,4.482,4.4398,4.4047,4.3708,4.3349,4.329,4.3319,4.3499,4.3499,4.3349,4.329,4.3319,4.329,4.329,4.329,4.329,4.329,4.329,4.3349,4.3439,4.4268,4.5152,4.495,4.491,4.5384,4.593,4.5634,4.5391,4.5131,4.0287,4.0795,4.0946,4.1547,4.2338,4.2776,4.2683,4.2168,4.1245,4.0241,3.9427,3.9047,3.8342,3.7803,3.8239,3.8741,3.9224,3.9986,4.1208,4.2246,4.2783,4.3011,4.326,4.329,4.329,4.329,4.329,4.329,4.329,4.329,4.329,4.329,4.329,4.329,4.3439,4.3688,4.4308,4.4974,4.5686,4.623,4.6235,4.6937,4.7214,4.655,4.6866,4.7056,4.6992,4.6676,4.6487,4.6487,4.6487,4.6329,4.6139,4.6171,4.6234,4.5981,4.5855,4.5823,4.5823,4.5823,4.5823,4.5823,4.5886,4.5886,4.5823,4.5823,4.5823,4.5855,4.5918,4.5918,4.5823,4.5787,4.5787,4.5787,4.5667,4.5734,4.5709,4.5784,4.5672,4.5778,4.576,4.6094,4.6264,4.596,4.6295,4.6072,4.5414,4.4449,4.3938,4.3658,4.3319,4.3319,4.3349,4.3589,4.3748,4.3808,4.3738,4.3768,4.3559,4.329,4.329,4.329,4.329,4.329,4.3379,4.3569,4.4539,4.5453,4.5917,4.621,4.6527,4.6494,4.6202,4.6082,4.6079,4.0006,4.0466,4.0517,4.0997,4.1819,4.219,4.2086,4.1632,4.0827,4.0078,3.9427,3.9292,3.864,3.8145,3.8761,3.955,4.0135,4.0994,4.1778,4.29,4.318,4.322,4.329,4.329,4.329,4.329,4.329,4.329,4.329,4.329,4.329,4.329,4.3319,4.3469,4.3718,4.4268,4.4921,4.5672,4.659,4.7146,4.7213,4.7536,4.7877,4.7498,4.753,4.7846,4.7751,4.7498,4.7182,4.7182,4.7119,4.6992,4.6771,4.6582,4.6771,4.655,4.655,4.6455,4.6297,4.6582,4.655,4.6234,4.6171,4.6171,4.6266,4.6518,4.6613,4.6582,4.6297,4.636,4.6424,4.6392,4.6234,4.6266,4.6476,4.6611,4.6699,4.6736,4.6708,4.6787,4.6956,4.7327,4.7536,4.7262,4.7058,4.6539,4.595,4.4981,4.4108,4.3848,4.3748,4.3798,4.3917,4.4287,4.4436,4.4407,4.4377,4.4276,4.3977,4.3648,4.329,4.329,4.329,4.3379,4.3678,4.4137,4.5019,4.5774,4.6418,4.6936,4.7357,4.7178,4.6766,4.6756,4.6879,4.0006,4.0466,4.0491,4.0769,4.1222,4.1372,4.1353,4.1208,4.1046,4.0385,3.9427,3.9509,3.9047,3.8233,3.8972,3.9633,3.9999,4.0998,4.1819,4.2496,4.309,4.321,4.329,4.329,4.329,4.329,4.329,4.329,4.329,4.329,4.329,4.329,4.329,4.3678,4.4218,4.4861,4.5595,4.6515,4.7419,4.7918,4.8152,4.8566,4.8573,4.832,4.8288,4.832,4.8225,4.8035,4.794,4.7909,4.7909,4.7877,4.7656,4.7214,4.7435,4.7593,4.7719,4.7214,4.7024,4.7372,4.7308,4.6898,4.6961,4.6898,4.6961,4.7245,4.7372,4.7308,4.7119,4.7372,4.753,4.7308,4.7087,4.7308,4.7593,4.7713,4.7808,4.7788,4.7736,4.7738,4.7871,4.8036,4.7933,4.7773,4.7221,4.6987,4.6488,4.5878,4.5071,4.4578,4.4567,4.4796,4.4915,4.5125,4.5155,4.5065,4.5035,4.4964,4.4616,4.4257,4.3798,4.3589,4.3828,4.4107,4.4257,4.4788,4.5785,4.6508,4.7087,4.7528,4.7691,4.751,4.6976,4.7607,4.7707,3.98,3.9904,3.9525,3.988,4.0719,4.1121,4.1255,4.116,4.0742,4.0421,4.0594,4.0594,4.0187,4.0133,4.0508,4.0861,4.1312,4.1859,4.2374,4.289,4.313,4.325,4.329,4.329,4.329,4.329,4.329,4.329,4.329,4.329,4.329,4.329,4.329,4.3917,4.4708,4.5455,4.6285,4.72,4.8121,4.8675,4.9072,4.9426,4.9331,4.9205,4.9141,4.9141,4.911,4.8762,4.8667,4.8604,4.8604,4.8478,4.7846,4.8067,4.8383,4.7782,4.7498,4.715,4.7435,4.7308,4.7308,4.7719,4.7972,4.7909,4.7846,4.7846,4.8067,4.8004,4.7846,4.7972,4.8067,4.794,4.7846,4.8067,4.8288,4.8383,4.8478,4.8597,4.8544,4.8726,4.8828,4.8386,4.8326,4.761,4.7139,4.7119,4.6885,4.6395,4.5924,4.5428,4.5346,4.5574,4.5663,4.5783,4.5753,4.5633,4.5693,4.5633,4.5274,4.4945,4.4706,4.4586,4.4676,4.4825,4.5065,4.5733,4.6637,4.7117,4.7242,4.748,4.763,4.7425,4.743,4.7873,4.8091,3.9697,3.9647,3.9346,3.96,4.016,4.0542,4.0713,4.0844,4.0728,4.087,4.1106,4.1098,4.0974,4.064,4.0693,4.0907,4.1297,4.1608,4.214,4.2659,4.32,4.325,4.329,4.3319,4.329,4.329,4.329,4.329,4.329,4.329,4.329,4.329,4.329,4.4097,4.4967,4.5552,4.6395,4.7487,4.8481,4.9228,4.9613,4.9892,4.9931,4.9931,4.9931,4.9892,4.99,4.9394,4.9331,4.9299,4.9299,4.9141,4.8762,4.9078,4.8952,4.8478,4.8446,4.8225,4.832,4.832,4.8225,4.8383,4.8889,4.8983,4.892,4.8857,4.8889,4.8825,4.8541,4.8383,4.8446,4.8509,4.8604,4.8731,4.8825,4.892,4.9078,4.9268,4.941,4.9655,4.9399,4.8922,4.8286,4.7485,4.7012,4.7092,4.6978,4.6659,4.6371,4.6107,4.6154,4.6381,4.6352,4.6381,4.6292,4.6232,4.6232,4.6172,4.5903,4.5633,4.5484,4.5334,4.5244,4.5544,4.5963,4.6533,4.7015,4.6966,4.7066,4.7292,4.748,4.7387,4.7405,4.7764,4.7794,3.9697,3.9697,3.9697,3.9673,3.9622,3.975,4.0083,4.0491,4.0893,4.1196,4.1186,4.1187,4.0916,4.0673,4.0686,4.0646,4.0932,4.127,4.1987,4.238,4.3027,4.3369,4.3499,4.3379,4.3439,4.3379,4.329,4.329,4.329,4.329,4.329,4.3319,4.3439,4.4137,4.5166,4.5525,4.6429,4.7768,4.8512,4.9169,4.9573,4.9812,4.9852,4.9892,4.9892,4.9852,4.9892,4.99,4.99,4.986,4.9829,4.9805,4.9773,4.9742,4.9426,4.9205,4.9141,4.911,4.9015,4.9047,4.911,4.9268,4.9552,4.9647,4.9552,4.9489,4.9457,4.9355,4.9173,4.8993,4.9017,4.9063,4.9134,4.9221,4.9276,4.9379,4.9521,4.9568,4.9512,4.9541,4.9138,4.8687,4.8293,4.7562,4.7322,4.7207,4.7079,4.6813,4.6809,4.6719,4.6753,4.6993,4.689,4.683,4.692,4.686,4.677,4.6681,4.6441,4.6322,4.6142,4.5933,4.5723,4.6142,4.6591,4.677,4.7096,4.707,4.71,4.7246,4.7349,4.7322,4.7482,4.7666,4.7624,3.9697,3.9697,3.9697,3.9471,3.9196,3.9521,4.0006,4.0491,4.0616,4.0863,4.1284,4.1568,4.1432,4.0864,4.114,4.1105,4.0907,4.0994,4.1924,4.2602,4.3143,4.3542,4.3956,4.3967,4.3768,4.3409,4.329,4.329,4.3319,4.3319,4.3349,4.3409,4.3738,4.4586,4.5364,4.5723,4.6665,4.7861,4.8175,4.8759,4.9291,4.921,4.9128,4.9461,4.9661,4.9613,4.9661,4.9821,4.986,4.99,4.99,4.99,4.99,4.986,4.9797,4.9679,4.9426,4.9426,4.9489,4.9489,4.9394,4.9647,4.9805,4.9868,4.99,4.99,4.99,4.9837,4.9757,4.9638,4.9527,4.9552,4.9529,4.9607,4.9733,4.9812,4.986,4.9701,4.9541,4.9219,4.8811,4.8407,4.8115,4.7831,4.7619,4.7448,4.7306,4.7216,4.7443,4.7395,4.7109,4.7246,4.7233,4.7233,4.7309,4.7279,4.71,4.71,4.695,4.683,4.6741,4.6621,4.6501,4.68,4.716,4.7189,4.7189,4.7219,4.7279,4.7309,4.7309,4.7309,4.7309,4.7482,4.7439,3.9697,3.9697,3.9697,3.9521,3.932,3.9572,3.9903,4.0108,4.0134,4.0287,4.0719,4.1319,4.1368,4.0899,4.1126,4.1001,4.0553,4.0685,4.1278,4.2096,4.3164,4.3671,4.4093,4.453,4.4276,4.3858,4.3439,4.3319,4.3409,4.3648,4.3798,4.3858,4.4436,4.5065,4.5693,4.6202,4.6809,4.7636,4.7709,4.8091,4.8759,4.8718,4.8759,4.9138,4.9178,4.9178,4.9178,4.93,4.93,4.93,4.9259,4.9461,4.9501,4.9613,4.9733,4.9757,4.9647,4.9521,4.9639,4.9568,4.941,4.9694,4.9892,4.9892,4.99,4.99,4.99,4.9868,4.9868,4.9749,4.955,4.9527,4.9287,4.9188,4.9573,4.9812,4.9582,4.9259,4.9259,4.9259,4.8811,4.8355,4.8061,4.7722,4.7551,4.7422,4.7279,4.7322,4.7581,4.788,4.7624,4.7495,4.7452,4.7396,4.7309,4.7309,4.7279,4.7279,4.7309,4.7189,4.704,4.716,4.7279,4.7279,4.7279,4.7279,4.7309,4.7309,4.7309,4.7309,4.7309,4.7309,4.7309,4.7309,4.7309,3.9697,3.9697,3.9697,3.9697,3.9697,3.9697,3.9749,3.9852,3.9749,3.98,4.0032,4.087,4.0739,4.0377,4.0508,3.9911,3.9816,4.0491,4.0947,4.1715,4.2768,4.3703,4.4435,4.4862,4.4697,4.4415,4.4047,4.3828,4.3798,4.4167,4.4466,4.4586,4.5065,4.5723,4.6172,4.6501,4.6873,4.7276,4.7439,4.7568,4.7922,4.826,4.8438,4.8521,4.8563,4.8521,4.8563,4.8604,4.8604,4.8646,4.8728,4.8934,4.9138,4.9331,4.9381,4.951,4.963,4.9599,4.9622,4.951,4.9519,4.9693,4.9773,4.9812,4.9781,4.986,4.9892,4.986,4.986,4.9781,4.9613,4.9452,4.9138,4.8975,4.9381,4.9653,4.9219,4.8852,4.8975,4.9128,4.8718,4.826,4.7922,4.7581,4.7482,4.7352,4.7309,4.7352,4.7439,4.7666,4.7709,4.7709,4.7709,4.7581,4.7352,4.7309,4.7309,4.7309,4.7309,4.7309,4.7309,4.7309,4.7309,4.7309,4.7309,4.7309,4.7309,4.7309,4.7309,4.7309,4.7309,4.7309,4.7309,4.7309,4.7309,3.9697,3.9697,3.9697,3.9697,3.9697,3.9697,3.9955,4.0262,3.9852,3.9955,4.0236,4.0389,4.0332,3.9811,4.1197,4.0931,3.9784,4.0395,4.1286,4.2122,4.2789,4.3843,4.4676,4.5008,4.5128,4.5007,4.4855,4.4885,4.4616,4.4885,4.5125,4.5155,4.5741,4.6202,4.6352,4.6711,4.71,4.7309,4.7309,4.7396,4.7396,4.7709,4.8007,4.8145,4.8301,4.8355,4.848,4.8563,4.8604,4.8604,4.8521,4.8635,4.88,4.9006,4.9056,4.9097,4.9291,4.925,4.9138,4.9056,4.9056,4.9056,4.9178,4.9412,4.9493,4.9733,4.9773,4.9821,4.9781,4.9622,4.9493,4.9412,4.9178,4.9056,4.9259,4.9056,4.8769,4.8604,4.8563,4.851,4.8301,4.7922,4.7624,4.7439,4.7396,4.7309,4.7309,4.7352,4.7581,4.7709,4.7782,4.7794,4.7867,4.7666,4.7366,4.7309,4.7309,4.7309,4.7309,4.7309,4.7309,4.7309,4.7309,4.7309,4.7309,4.7309,4.7309,4.7309,4.7309,4.7309,4.7309,4.7309,4.7309,4.7309,4.7309]}]]